[[{"header":{"parameterUnit":"m.s-1","parameterCategory":1,"la1":30.6,"la2":28.766,"lo1":-90.7593,"lo2":-88.6598,"dy":0.0162,"dx":0.0183,"nx":116,"ny":114,"refTime":"2023-08-05T06:00:00:Z","depth":0,"parameterNumber":2,"parameterNumberName":"U-component_of_WINDS"},"data":[0.0,0.0,0.0,0.0,0.0,0.0,0.0,0.0,0.0,0.0,0.0,0.0,0.0,0.0,0.0,0.0,0.0,0.0,0.0,0.0,0.0,0.0,0.0,0.0,0.0,0.0,0.0,0.0,0.0,0.0,0.0,0.0,0.0,0.0,0.0,0.0,0.0,0.0,0.0,0.0,0.0,0.0,0.0,0.0,0.0,0.0,0.0,0.0,0.0,0.0,0.0,0.0,0.0,0.0,0.0,0.0,0.0,0.0,0.0,0.0,0.0,0.0,0.0,0.0,0.0,0.0,0.0,0.0,0.0,0.0,0.0,0.0,0.0,0.0,0.0,0.0,0.0,0.0,0.0,0.0,0.0,0.0,0.0,0.0,0.0,0.0,0.0,0.0,0.0,0.0,0.0,0.0,0.0,0.0,0.0,0.0,0.0,0.0,0.0,0.0,0.0,0.0,0.0,0.0,0.0,0.0,0.0,0.0,0.0,0.0,0.0,0.0,0.0,0.0,0.0,0.0,0.0,0.0,0.0,0.0,0.0,0.0,0.0,0.0,0.0,0.0,0.0,0.0,0.0,0.0,0.0,0.0,0.0,0.0,0.0,0.0,0.0,0.0,0.0,0.0,0.0,0.0,0.0,0.0,0.0,0.0,0.0,0.0,0.0,0.0,0.0,0.0,0.0,0.0,0.0,0.0,0.0,0.0,0.0,0.0,0.0,0.0,0.0,0.0,0.0,0.0,0.0,0.0,0.0,0.0,0.0,0.0,0.0,0.0,0.0,0.0,0.0,0.0,0.0,0.0,0.0,0.0,0.0,0.0,0.0,0.0,0.0,0.0,0.0,0.0,0.0,0.0,0.0,0.0,0.0,0.0,0.0,0.0,0.0,0.0,0.0,0.0,0.0,0.0,0.0,0.0,0.0,0.0,0.0,0.0,0.0,0.0,0.0,0.0,0.0,0.0,0.0,0.0,0.0,0.0,0.0,0.0,0.0,0.0,0.0,0.0,0.0,0.0,0.0,0.0,0.0,0.0,0.0,0.0,0.0,0.0,0.0,0.0,0.0,0.0,0.0,0.0,0.0,0.0,0.0,0.0,0.0,0.0,0.0,0.0,0.0,0.0,0.0,0.0,0.0,0.0,0.0,0.0,0.0,0.0,0.0,0.0,0.0,0.0,0.0,0.0,0.0,0.0,0.0,0.0,0.0,0.0,0.0,0.0,0.0,0.0,0.0,0.0,0.0,0.0,0.0,0.0,0.0,0.0,0.0,0.0,0.0,0.0,0.0,0.0,0.0,0.0,0.0,0.0,0.0,0.0,0.0,0.0,0.0,0.0,0.0,0.0,0.0,0.0,0.0,0.0,0.0,0.0,0.0,0.0,0.0,0.0,0.0,0.0,0.0,0.0,0.0,0.0,0.0,0.0,0.0,0.0,0.0,0.0,0.0,0.0,0.0,0.0,0.0,0.0,0.0,0.0,0.0,0.0,0.0,0.0,0.0,0.0,0.0,0.0,0.0,0.0,0.0,0.0,0.0,0.0,0.0,0.0,0.0,0.0,0.0,0.0,0.0,0.0,0.0,0.0,0.0,0.0,0.0,0.0,0.0,0.0,0.0,0.0,0.0,0.0,0.0,0.0,0.0,0.0,0.0,0.0,0.0,0.0,0.0,0.0,0.0,0.0,0.0,0.0,0.0,0.0,0.0,0.0,0.0,0.0,0.0,0.0,0.0,0.0,0.0,0.0,0.0,0.0,0.0,0.0,0.0,0.0,0.0,0.0,0.0,0.0,0.0,0.0,0.0,0.0,0.0,0.0,0.0,0.0,0.0,0.0,0.0,0.0,0.0,0.0,0.0,0.0,0.0,0.0,0.0,0.0,0.0,0.0,0.0,0.0,0.0,0.0,0.0,0.0,0.0,0.0,0.0,0.0,0.0,0.0,0.0,0.0,0.0,0.0,0.0,0.0,0.0,0.0,0.0,0.0,0.0,0.0,0.0,0.0,0.0,0.0,0.0,0.0,0.0,0.0,0.0,0.0,0.0,0.0,0.0,0.0,0.0,0.0,0.0,0.0,0.0,0.0,0.0,0.0,0.0,0.0,0.0,0.0,0.0,0.0,0.0,0.0,0.0,0.0,0.0,0.0,0.0,0.0,0.0,0.0,0.0,0.0,0.0,0.0,0.0,0.0,0.0,0.0,0.0,0.0,0.0,0.0,0.0,0.0,0.0,0.0,0.0,0.0,0.0,0.0,0.0,0.0,0.0,0.0,0.0,0.0,0.0,0.0,0.0,0.0,0.0,0.0,0.0,0.0,0.0,0.0,0.0,0.0,0.0,0.0,0.0,0.0,0.0,0.0,0.0,0.0,0.0,0.0,0.0,0.0,0.0,0.0,0.0,0.0,0.0,0.0,0.0,0.0,0.0,0.0,0.0,0.0,0.0,0.0,0.0,0.0,0.0,0.0,0.0,0.0,0.0,0.0,0.0,0.0,0.0,0.0,0.0,0.0,0.0,0.0,0.0,0.0,0.0,0.0,0.0,0.0,0.0,0.0,0.0,0.0,0.0,0.0,0.0,0.0,0.0,0.0,0.0,0.0,0.0,0.0,0.0,0.0,0.0,0.0,0.0,0.0,0.0,0.0,0.0,0.0,0.0,0.0,0.0,0.0,0.0,0.0,0.0,0.0,0.0,0.0,0.0,0.0,0.0,0.0,0.0,0.0,0.0,0.0,0.0,0.0,0.0,0.0,0.0,0.0,0.0,0.0,0.0,0.0,0.0,0.0,0.0,0.0,0.0,0.0,0.0,0.0,0.0,0.0,0.0,0.0,0.0,0.0,0.0,0.0,0.0,0.0,0.0,0.0,0.0,0.0,0.0,0.0,0.0,0.0,0.0,0.0,0.0,0.0,0.0,0.0,0.0,0.0,0.0,0.0,0.0,0.0,0.0,0.0,0.0,0.0,0.0,0.0,0.0,0.0,0.0,0.0,0.0,0.0,0.0,0.0,0.0,0.0,0.0,0.0,0.0,0.0,0.0,0.0,0.0,0.0,0.0,0.0,0.0,0.0,0.0,0.0,0.0,0.0,0.0,0.0,0.0,0.0,0.0,0.0,0.0,0.0,0.0,0.0,0.0,0.0,0.0,0.0,0.0,0.0,0.0,0.0,0.0,0.0,0.0,0.0,0.0,0.0,0.0,0.0,0.0,0.0,0.0,0.0,0.0,0.0,0.0,0.0,0.0,0.0,0.0,0.0,0.0,0.0,0.0,0.0,0.0,0.0,0.0,0.0,0.0,0.0,0.0,0.0,0.0,0.0,0.0,0.0,0.0,0.0,0.0,0.0,0.0,0.0,0.0,0.0,0.0,0.0,0.0,0.0,0.0,0.0,0.0,0.0,0.0,0.0,0.0,0.0,0.0,0.0,0.0,0.0,0.0,0.0,0.0,0.0,0.0,0.0,0.0,0.0,0.0,0.0,0.0,0.0,0.0,0.0,0.0,0.0,0.0,0.0,0.0,0.0,0.0,0.0,0.0,0.0,0.0,0.0,0.0,0.0,0.0,0.0,0.0,0.0,0.0,0.0,0.0,0.0,0.0,0.0,0.0,0.0,0.0,0.0,0.0,0.0,0.0,0.0,0.0,0.0,0.0,0.0,0.0,0.0,0.0,0.0,0.0,0.0,0.0,0.0,0.0,0.0,0.0,0.0,0.0,0.0,0.0,0.0,0.0,0.0,0.0,0.0,0.0,0.0,0.0,0.0,0.0,0.0,0.0,0.0,0.0,0.0,0.0,0.0,0.0,0.0,0.0,0.0,0.0,0.0,0.0,0.0,0.0,0.0,0.0,0.0,0.0,0.0,0.0,0.0,0.0,0.0,0.0,0.0,0.0,0.0,0.0,0.0,0.0,0.0,0.0,0.0,0.0,0.0,0.0,0.0,0.0,0.0,0.0,0.0,0.0,0.0,0.0,0.0,0.0,0.0,0.0,0.0,0.0,0.0,0.0,0.0,0.0,0.0,0.0,0.0,0.0,0.0,0.0,0.0,0.0,0.0,0.0,0.0,0.0,0.0,0.0,0.0,0.0,0.0,0.0,0.0,0.0,0.0,0.0,0.0,0.0,0.0,0.0,0.0,0.0,0.0,0.0,0.0,0.0,0.0,0.0,0.0,0.0,0.0,0.0,0.0,0.0,0.0,0.0,0.0,0.0,0.0,0.0,0.0,0.0,0.0,0.0,0.0,0.0,0.0,0.0,0.0,0.0,0.0,0.0,0.0,0.0,0.0,0.0,0.0,0.0,0.0,0.0,0.0,0.0,0.0,0.0,0.0,0.0,0.0,0.0,0.0,0.0,0.0,0.0,0.0,0.0,0.0,0.0,0.0,0.0,0.0,0.0,0.0,0.0,0.0,0.0,0.0,0.0,0.0,0.0,0.0,0.0,0.0,0.0,0.0,0.0,0.0,0.0,0.0,0.0,0.0,0.0,0.0,0.0,0.0,0.0,0.0,0.0,0.0,0.0,0.0,0.0,0.0,0.0,0.0,0.0,0.0,0.0,0.0,0.0,0.0,0.0,0.0,0.0,0.0,0.0,0.0,0.0,0.0,0.0,0.0,0.0,0.0,0.0,0.0,0.0,0.0,0.0,0.0,0.0,0.0,0.0,0.0,0.0,0.0,0.0,0.0,0.0,0.0,0.0,0.0,0.0,0.0,0.0,0.0,0.0,0.0,0.0,0.0,0.0,0.0,0.0,0.0,0.0,0.0,0.0,0.0,0.0,0.0,0.0,0.0,0.0,0.0,0.0,0.0,0.0,0.0,0.0,0.0,0.0,0.0,0.0,0.0,0.0,0.0,0.0,0.0,0.0,0.0,0.0,0.0,0.0,0.0,0.0,0.0,0.0,0.0,0.0,0.0,0.0,0.0,0.0,0.0,0.0,0.0,0.0,0.0,0.0,0.0,0.0,0.0,0.0,0.0,0.0,0.0,0.0,0.0,0.0,0.0,0.0,0.0,0.0,0.0,0.0,0.0,0.0,0.0,0.0,0.0,0.0,0.0,0.0,0.0,0.0,0.0,0.0,0.0,0.0,0.0,0.0,0.0,0.0,0.0,0.0,0.0,0.0,0.0,0.0,0.0,0.0,0.0,0.0,0.0,0.0,0.0,0.0,0.0,0.0,0.0,0.0,0.0,0.0,0.0,0.0,0.0,0.0,0.0,0.0,0.0,0.0,0.0,0.0,0.0,0.0,0.0,0.0,0.0,0.0,0.0,0.0,0.0,0.0,0.0,0.0,0.0,0.0,0.0,0.0,0.0,0.0,0.0,0.0,0.0,0.0,0.0,0.0,0.0,0.0,0.0,0.0,0.0,0.0,0.0,0.0,0.0,0.0,0.0,0.0,0.0,0.0,0.0,0.0,0.0,0.0,0.0,0.0,0.0,0.0,0.0,0.0,0.0,0.0,0.0,0.0,0.0,0.0,0.0,0.0,0.0,0.0,0.0,0.0,0.0,0.0,0.0,0.0,0.0,0.0,0.0,0.0,0.0,0.0,0.0,0.0,0.0,0.0,0.0,0.0,0.0,0.0,0.0,0.0,0.0,0.0,0.0,0.0,0.0,0.0,0.0,0.0,0.0,0.0,0.0,0.0,0.0,0.0,0.0,0.0,0.0,0.0,0.0,0.0,0.0,0.0,0.0,0.0,0.0,0.0,0.0,0.0,0.0,0.0,0.0,0.0,0.0,0.0,0.0,0.0,0.0,0.0,0.0,0.0,0.0,0.0,0.0,0.0,0.0,0.0,0.0,0.0,0.0,0.0,0.0,0.0,0.0,0.0,0.0,0.0,0.0,0.0,0.0,0.0,0.0,0.0,0.0,0.0,0.0,0.0,0.0,0.0,0.0,0.0,0.0,0.0,0.0,0.0,0.0,0.0,0.0,0.0,0.0,0.0,0.0,0.0,0.0,0.0,0.0,0.0,0.0,0.0,0.0,0.0,0.0,0.0,0.0,0.0,0.0,0.0,0.0,0.0,0.0,0.0,0.0,0.0,0.0,0.0,0.0,0.0,0.0,0.0,0.0,0.0,0.0,0.0,0.0,0.0,0.0,0.0,0.0,0.0,0.0,0.0,0.0,-4.4691,0.0,0.0,0.0,0.0,0.0,0.0,0.0,0.0,0.0,0.0,0.0,0.0,0.0,0.0,0.0,0.0,0.0,0.0,0.0,0.0,0.0,0.0,0.0,0.0,0.0,0.0,0.0,0.0,0.0,0.0,0.0,0.0,0.0,0.0,0.0,0.0,0.0,0.0,0.0,0.0,0.0,0.0,0.0,0.0,0.0,0.0,0.0,0.0,0.0,0.0,0.0,0.0,0.0,0.0,0.0,0.0,0.0,0.0,0.0,0.0,0.0,0.0,0.0,0.0,0.0,0.0,0.0,0.0,0.0,0.0,0.0,0.0,0.0,0.0,0.0,0.0,0.0,0.0,0.0,0.0,0.0,0.0,0.0,0.0,0.0,0.0,0.0,0.0,0.0,0.0,0.0,0.0,0.0,0.0,0.0,0.0,0.0,0.0,0.0,0.0,0.0,0.0,0.0,0.0,0.0,0.0,0.0,0.0,0.0,0.0,0.0,0.0,0.0,0.0,0.0,0.0,-4.3508,0.0,0.0,0.0,0.0,0.0,0.0,0.0,0.0,0.0,0.0,0.0,0.0,0.0,0.0,0.0,0.0,0.0,0.0,0.0,0.0,0.0,0.0,0.0,0.0,0.0,0.0,0.0,0.0,0.0,0.0,0.0,0.0,0.0,0.0,0.0,0.0,0.0,0.0,0.0,0.0,0.0,0.0,0.0,0.0,0.0,0.0,0.0,0.0,0.0,0.0,0.0,0.0,0.0,0.0,0.0,0.0,0.0,0.0,0.0,0.0,0.0,0.0,0.0,0.0,0.0,0.0,0.0,0.0,0.0,0.0,0.0,0.0,0.0,0.0,0.0,0.0,0.0,0.0,0.0,0.0,0.0,0.0,0.0,0.0,0.0,0.0,0.0,0.0,0.0,0.0,0.0,0.0,0.0,0.0,0.0,0.0,0.0,0.0,0.0,0.0,0.0,0.0,0.0,0.0,0.0,0.0,0.0,0.0,-4.4134,-4.4134,-4.4187,-4.4187,-4.3568,-4.2556,-4.3072,-4.254,-4.1323,0.0,0.0,0.0,0.0,0.0,0.0,0.0,0.0,0.0,0.0,0.0,0.0,0.0,0.0,0.0,0.0,0.0,0.0,0.0,0.0,0.0,0.0,0.0,0.0,0.0,0.0,0.0,0.0,0.0,0.0,0.0,0.0,0.0,0.0,0.0,0.0,0.0,0.0,0.0,0.0,0.0,0.0,0.0,0.0,0.0,0.0,0.0,0.0,0.0,0.0,0.0,0.0,0.0,0.0,0.0,0.0,0.0,0.0,0.0,0.0,0.0,0.0,0.0,0.0,0.0,0.0,0.0,0.0,0.0,0.0,0.0,0.0,0.0,0.0,0.0,0.0,0.0,0.0,0.0,0.0,0.0,0.0,0.0,0.0,0.0,0.0,0.0,-4.2174,-4.2459,0.0,0.0,0.0,0.0,0.0,0.0,0.0,0.0,0.0,0.0,0.0,0.0,0.0,0.0,-4.1835,-4.2459,-4.2508,-4.2027,-4.2027,-4.2025,-4.1989,-4.1989,-4.1942,-4.1731,-4.1847,0.0,-4.1323,-4.1169,0.0,0.0,0.0,0.0,0.0,0.0,0.0,0.0,0.0,0.0,0.0,0.0,0.0,0.0,0.0,0.0,0.0,0.0,0.0,0.0,0.0,0.0,0.0,0.0,0.0,0.0,0.0,0.0,0.0,0.0,0.0,0.0,0.0,0.0,0.0,0.0,0.0,0.0,0.0,0.0,0.0,0.0,0.0,0.0,0.0,0.0,0.0,0.0,0.0,0.0,0.0,0.0,0.0,0.0,0.0,0.0,0.0,0.0,0.0,0.0,0.0,0.0,0.0,0.0,0.0,0.0,0.0,0.0,0.0,0.0,0.0,0.0,0.0,0.0,0.0,0.0,0.0,0.0,0.0,0.0,0.0,0.0,0.0,0.0,0.0,-4.1916,-4.2158,-4.2285,-4.2756,-4.3141,0.0,0.0,0.0,0.0,0.0,0.0,0.0,0.0,0.0,-4.2896,-4.2941,-4.2569,-4.1588,-4.19,-4.19,-4.1588,-4.1588,-4.1588,-4.1588,-4.1588,-4.1588,-4.1588,-4.1588,-4.1522,-4.1456,-4.1236,-4.1034,-4.0882,0.0,0.0,0.0,0.0,0.0,-3.7372,0.0,0.0,0.0,0.0,0.0,0.0,0.0,0.0,0.0,0.0,0.0,0.0,0.0,0.0,0.0,0.0,0.0,0.0,0.0,0.0,0.0,0.0,0.0,0.0,0.0,0.0,0.0,0.0,0.0,0.0,0.0,0.0,0.0,0.0,0.0,0.0,0.0,0.0,0.0,0.0,0.0,0.0,0.0,0.0,0.0,0.0,0.0,0.0,0.0,0.0,0.0,0.0,0.0,0.0,0.0,0.0,0.0,0.0,0.0,0.0,0.0,0.0,0.0,0.0,0.0,0.0,0.0,0.0,0.0,0.0,0.0,0.0,0.0,0.0,0.0,0.0,0.0,-4.2158,-4.2365,-4.2492,-4.3141,-4.3621,0.0,0.0,0.0,0.0,0.0,0.0,-4.4316,-4.4128,-4.3588,-4.2851,-4.2539,-4.2077,-4.1588,-4.1588,-4.1588,-4.1588,-4.1588,-4.1588,-4.1588,-4.1588,-4.1588,-4.1588,-4.1588,-4.1588,-4.1522,-4.1236,-4.0966,-4.0662,-3.9677,-3.916,-3.8928,-3.8101,-3.7434,-3.6858,0.0,0.0,0.0,0.0,0.0,0.0,0.0,0.0,0.0,0.0,0.0,0.0,0.0,0.0,0.0,0.0,0.0,0.0,0.0,0.0,0.0,0.0,0.0,0.0,0.0,0.0,0.0,0.0,0.0,0.0,0.0,0.0,0.0,0.0,0.0,0.0,0.0,0.0,0.0,0.0,0.0,0.0,0.0,0.0,0.0,0.0,0.0,0.0,0.0,0.0,0.0,0.0,0.0,0.0,0.0,0.0,0.0,0.0,0.0,0.0,0.0,0.0,0.0,0.0,0.0,0.0,0.0,0.0,0.0,0.0,0.0,0.0,0.0,0.0,0.0,0.0,0.0,0.0,0.0,-4.3492,-4.3295,0.0,0.0,0.0,0.0,-4.4597,-4.4446,-4.4162,-4.3839,-4.3545,-4.3003,-4.2174,-4.1851,-4.1654,-4.1588,-4.1588,-4.1588,-4.1588,-4.1588,-4.1588,-4.1588,-4.1588,-4.1588,-4.1588,-4.1588,-4.1522,-4.1323,-4.1169,-4.0662,-3.9905,-3.9463,-3.8855,-3.8026,-3.7295,-3.6922,-3.678,0.0,0.0,0.0,0.0,0.0,0.0,0.0,0.0,0.0,0.0,0.0,0.0,0.0,0.0,0.0,0.0,0.0,0.0,0.0,0.0,0.0,0.0,0.0,0.0,0.0,0.0,0.0,0.0,0.0,0.0,0.0,0.0,0.0,0.0,0.0,0.0,0.0,0.0,0.0,0.0,0.0,0.0,0.0,0.0,0.0,0.0,0.0,0.0,0.0,0.0,0.0,0.0,0.0,0.0,0.0,0.0,0.0,0.0,0.0,0.0,0.0,0.0,0.0,0.0,0.0,0.0,0.0,0.0,0.0,0.0,0.0,0.0,0.0,0.0,0.0,0.0,0.0,0.0,0.0,-4.2974,-4.3235,0.0,0.0,-4.3432,-4.3595,-4.3948,-4.3889,-4.3789,-4.3654,-4.3141,-4.271,-4.2396,-4.1916,-4.1588,-4.1588,-4.1588,-4.1588,-4.1588,-4.1588,-4.1588,-4.1588,-4.1588,-4.1588,-4.1588,-4.1456,-4.1075,-4.0485,-4.0239,-3.996,-3.9591,-3.8264,-3.7601,-3.7218,-3.6387,-3.6097,-3.6097,0.0,0.0,0.0,0.0,0.0,0.0,0.0,0.0,0.0,0.0,0.0,0.0,0.0,0.0,0.0,0.0,0.0,0.0,0.0,0.0,0.0,0.0,0.0,0.0,0.0,0.0,0.0,0.0,0.0,0.0,0.0,0.0,0.0,0.0,0.0,0.0,0.0,0.0,0.0,0.0,0.0,0.0,-2.536,0.0,0.0,0.0,0.0,0.0,0.0,0.0,0.0,0.0,0.0,0.0,0.0,0.0,0.0,0.0,0.0,0.0,0.0,0.0,0.0,0.0,0.0,0.0,0.0,0.0,0.0,0.0,0.0,0.0,0.0,0.0,0.0,0.0,0.0,0.0,-4.3174,-4.2974,-4.3312,-4.3492,-4.3295,-4.3492,-4.3628,-4.3628,-4.3628,-4.3568,-4.3432,-4.2912,-4.2522,-4.2396,-4.19,-4.1588,-4.1588,-4.1588,-4.1588,-4.1588,-4.1588,-4.1588,-4.1588,-4.139,-4.1323,-4.1323,-4.0956,-4.0432,-3.9688,-3.9203,-3.884,-3.8546,-3.7372,-3.6702,-3.6401,-3.5871,-3.571,-3.571,0.0,0.0,0.0,0.0,0.0,0.0,0.0,0.0,0.0,0.0,0.0,0.0,0.0,0.0,0.0,0.0,0.0,0.0,0.0,0.0,0.0,0.0,0.0,0.0,0.0,0.0,0.0,0.0,0.0,0.0,0.0,0.0,0.0,0.0,0.0,0.0,0.0,0.0,0.0,0.0,0.0,0.0,-2.5071,0.0,0.0,0.0,0.0,0.0,0.0,0.0,0.0,0.0,0.0,0.0,0.0,0.0,0.0,0.0,0.0,0.0,0.0,0.0,0.0,0.0,0.0,0.0,0.0,0.0,0.0,0.0,0.0,0.0,0.0,0.0,0.0,0.0,-4.1997,-4.299,-4.3628,-4.3628,-4.3628,-4.3628,-4.3628,-4.3628,-4.3628,-4.3628,-4.3628,-4.3432,-4.3113,-4.2772,-4.2476,-4.2109,-4.1785,-4.1588,-4.1588,-4.1588,-4.1588,-4.1588,-4.1588,-4.1588,-4.1588,-4.1003,-4.0799,-4.073,-4.013,-3.952,-3.8913,-3.813,-3.7462,-3.6858,-3.6858,-3.6401,-3.571,-3.571,-3.571,-3.571,0.0,0.0,0.0,0.0,0.0,0.0,0.0,0.0,0.0,0.0,0.0,0.0,0.0,0.0,0.0,0.0,0.0,0.0,0.0,0.0,0.0,0.0,0.0,0.0,0.0,0.0,0.0,0.0,0.0,0.0,0.0,0.0,0.0,0.0,0.0,0.0,0.0,0.0,0.0,0.0,0.0,0.0,-2.2725,0.0,0.0,0.0,0.0,0.0,0.0,0.0,0.0,0.0,0.0,0.0,0.0,0.0,0.0,0.0,0.0,0.0,0.0,0.0,0.0,0.0,0.0,0.0,0.0,0.0,0.0,0.0,0.0,0.0,0.0,0.0,0.0,-3.983,-4.2156,-4.3113,-4.3628,-4.3628,-4.3628,-4.3628,-4.3628,-4.3628,-4.3628,-4.3628,-4.3628,-4.3432,-4.3113,-4.2772,-4.2476,-4.2109,-4.1785,-4.1588,-4.1588,-4.1588,-4.1588,-4.1588,-4.1189,-4.1003,-4.0987,-4.0409,-4.013,-4.013,-3.9864,-3.9118,-3.813,-3.7782,-3.7014,-3.6017,-3.6017,-3.5857,-3.571,-3.571,-3.571,-3.571,0.0,0.0,0.0,0.0,0.0,0.0,0.0,0.0,0.0,0.0,0.0,0.0,0.0,0.0,0.0,0.0,0.0,0.0,0.0,0.0,0.0,0.0,0.0,0.0,0.0,0.0,0.0,0.0,0.0,0.0,0.0,0.0,0.0,0.0,0.0,0.0,0.0,0.0,0.0,0.0,0.0,0.0,-2.0849,-2.0451,-2.0214,-1.9987,-1.9811,-1.9809,-1.9878,-2.0309,0.0,0.0,0.0,0.0,0.0,0.0,0.0,0.0,0.0,0.0,0.0,0.0,0.0,0.0,0.0,0.0,0.0,0.0,0.0,0.0,0.0,0.0,0.0,0.0,-3.7182,-3.8678,-4.0943,-4.2138,-4.2966,-4.3519,-4.3628,-4.3628,-4.3628,-4.3628,-4.3628,-4.3628,-4.3628,-4.3372,-4.2912,-4.2726,-4.2349,-4.1916,-4.172,-4.1588,-4.1588,-4.1588,-4.1588,-4.1588,-4.107,-4.0799,-4.0799,-3.992,-3.9565,0.0,-3.9017,-3.8323,-3.7477,-3.7197,-3.6587,0.0,0.0,0.0,0.0,0.0,-3.571,-3.571,0.0,0.0,0.0,0.0,0.0,0.0,0.0,0.0,0.0,0.0,0.0,0.0,0.0,0.0,0.0,0.0,0.0,0.0,0.0,0.0,0.0,0.0,0.0,0.0,0.0,0.0,0.0,0.0,0.0,0.0,0.0,0.0,0.0,0.0,0.0,0.0,0.0,0.0,0.0,0.0,0.0,0.0,-1.952,-1.8957,-1.886,-1.8997,-1.8568,-1.8901,-1.9475,-1.9229,0.0,0.0,0.0,0.0,0.0,0.0,0.0,0.0,0.0,0.0,0.0,0.0,0.0,0.0,0.0,0.0,0.0,0.0,0.0,0.0,0.0,0.0,0.0,0.0,-3.6758,-3.7729,-3.9094,-4.0443,-4.1824,-4.3277,-4.3578,-4.3628,-4.3628,-4.3628,-4.3628,-4.3628,-4.3628,-4.3295,-4.2648,0.0,0.0,0.0,0.0,-4.1588,-4.1588,-4.1588,-4.1588,-4.1522,-4.0909,-4.0538,-4.047,-3.9328,-3.8854,-3.884,-3.789,-3.7323,-3.6993,-3.6549,-3.6138,-3.571,-3.571,-3.571,-3.571,-3.571,-3.571,0.0,0.0,0.0,0.0,0.0,0.0,0.0,0.0,0.0,0.0,0.0,0.0,0.0,0.0,0.0,0.0,0.0,0.0,0.0,0.0,0.0,0.0,0.0,0.0,0.0,0.0,0.0,0.0,0.0,0.0,0.0,0.0,0.0,0.0,0.0,0.0,0.0,0.0,0.0,0.0,0.0,0.0,0.0,-1.9599,-1.9441,-1.8683,-1.7784,-1.7621,-1.7456,-1.7358,-1.8019,-1.8523,-1.8969,-2.0044,0.0,0.0,0.0,0.0,0.0,0.0,0.0,0.0,0.0,0.0,0.0,0.0,0.0,0.0,0.0,0.0,0.0,0.0,0.0,0.0,-3.5603,-3.5814,-3.6511,-3.8401,-3.8912,-4.0031,-4.2451,-4.3264,-4.3628,-4.3628,-4.3628,-4.3628,-4.3628,-4.3628,-4.3295,-4.2648,-4.2618,0.0,-4.1588,-4.1588,-4.1588,-4.1588,-4.1588,-4.139,-4.0919,0.0,0.0,-3.8612,-3.7399,-3.7113,-3.7623,-3.7092,-3.6912,-3.6993,-3.6549,-3.6138,-3.571,-3.571,-3.571,-3.571,-3.571,-3.571,-3.571,0.0,0.0,0.0,0.0,0.0,0.0,0.0,0.0,0.0,0.0,0.0,0.0,0.0,0.0,0.0,0.0,0.0,0.0,0.0,0.0,0.0,0.0,0.0,0.0,0.0,0.0,0.0,0.0,0.0,0.0,0.0,0.0,0.0,0.0,0.0,0.0,0.0,0.0,0.0,0.0,0.0,0.0,-1.7969,-1.7518,-1.6862,-1.6221,-1.5966,-1.5747,-1.5742,-1.6324,-1.6877,-1.7361,-1.839,-1.917,-1.9982,0.0,0.0,0.0,0.0,0.0,0.0,0.0,0.0,0.0,0.0,0.0,0.0,0.0,0.0,-3.3934,0.0,0.0,-3.5504,-3.5504,-3.5504,-3.5967,-3.725,-3.8086,-3.9354,-4.1651,-4.2618,-4.3065,-4.3065,-4.3396,-4.3628,-4.3628,-4.3432,-4.3113,-4.2648,-4.2412,-4.2109,-4.1588,-4.1588,-4.143,-4.1099,-4.0805,-4.0435,-3.9776,-3.8614,-3.7913,-3.7604,-3.6731,-3.6489,-3.6809,-3.6196,-3.6104,-3.648,-3.616,-3.5884,-3.571,-3.571,-3.571,-3.571,-3.571,-3.5467,-3.5209,0.0,0.0,0.0,0.0,0.0,0.0,0.0,0.0,0.0,0.0,0.0,0.0,0.0,0.0,0.0,0.0,0.0,0.0,0.0,0.0,0.0,0.0,0.0,0.0,0.0,0.0,0.0,0.0,0.0,0.0,0.0,0.0,0.0,0.0,0.0,0.0,0.0,0.0,0.0,0.0,0.0,0.0,-1.611,-1.5331,-1.5115,-1.5166,-1.4734,-1.465,-1.4824,-1.5006,-1.5331,-1.5796,-1.646,-1.7499,-1.8554,-1.9383,-2.0288,0.0,0.0,0.0,0.0,0.0,0.0,0.0,0.0,0.0,-3.0735,-3.1649,-3.2434,-3.3283,-3.4163,-3.4824,-3.5294,-3.5504,-3.5504,-3.5748,-3.6321,-3.7496,-3.8894,-4.0614,-4.1699,-4.2303,-4.2303,-4.285,-4.3264,-4.3396,-4.3098,-4.2827,-4.2585,-4.2285,-4.1917,-4.1399,-4.1399,-4.113,-4.0513,-3.9885,-3.9199,-3.8381,-3.7474,-3.6966,-3.6828,-3.6207,-3.594,-3.5984,-3.5289,-3.5325,-3.5711,-3.5582,-3.5601,-3.571,-3.5548,-3.5548,-3.5548,-3.5548,-3.5046,-3.4551,0.0,0.0,0.0,0.0,0.0,0.0,0.0,0.0,0.0,0.0,0.0,0.0,0.0,0.0,0.0,0.0,0.0,0.0,0.0,0.0,0.0,0.0,0.0,0.0,0.0,0.0,0.0,0.0,0.0,0.0,0.0,0.0,0.0,0.0,0.0,0.0,0.0,0.0,0.0,0.0,0.0,0.0,-1.4971,-1.475,-1.5078,-1.5567,-1.5394,-1.5159,-1.509,-1.509,-1.502,-1.4916,-1.5533,-1.6397,-1.7419,-1.8794,0.0,-2.0922,-2.2685,-2.4019,-2.4765,-2.4307,-2.6047,-2.8039,0.0,0.0,-3.0898,-3.1869,-3.2146,-3.2635,-3.4027,-3.438,-3.4677,-3.5359,-3.5504,-3.5748,-3.6321,-3.7029,-3.7807,-3.8578,-4.0327,-4.1541,-4.1541,-4.1624,-4.1939,-4.2585,-4.2325,-4.2244,-4.2585,-4.2302,-4.1645,-4.0735,-4.0704,-4.056,-4.0258,-3.9336,-3.8295,-3.702,-3.6544,-3.6064,-3.5598,-3.4878,-3.4715,-3.4982,-3.4752,-3.4733,-3.4906,-3.4909,-3.5248,-3.5629,-3.5046,-3.4799,-3.4799,-3.4799,-3.4384,-3.3797,0.0,0.0,0.0,0.0,0.0,0.0,0.0,0.0,0.0,0.0,0.0,0.0,0.0,0.0,0.0,0.0,0.0,0.0,0.0,0.0,0.0,0.0,0.0,0.0,0.0,0.0,0.0,0.0,0.0,0.0,0.0,0.0,0.0,0.0,0.0,0.0,0.0,0.0,0.0,0.0,0.0,0.0,-1.4741,-1.4344,-1.4612,-1.5138,-1.4557,-1.4261,0.0,0.0,-1.4511,-1.4671,-1.5303,-1.576,-1.6324,-1.7665,-1.8287,0.0,-2.2022,-2.354,0.0,0.0,-2.6412,-2.8051,-2.8187,-2.9471,-3.0836,-3.132,-3.1809,-3.2434,-3.3492,-3.4041,-3.4528,0.0,-3.5504,-3.5554,-3.5861,-3.6784,-3.7472,-3.7764,-3.9201,-4.0332,-4.0779,-4.1177,-4.1723,-4.2452,-4.2032,-4.1979,-4.2569,-4.1725,-4.1007,-4.0609,-4.0182,-3.9739,-3.936,-3.8614,-3.7486,-3.5971,-3.5451,-3.5063,-3.4791,-3.4311,-3.3913,-3.362,-3.3872,-3.3929,-3.3851,-3.4543,-3.4977,-3.5155,-3.4831,-3.4468,-3.4134,-3.4134,-3.3495,-3.2626,0.0,0.0,0.0,0.0,0.0,0.0,0.0,0.0,0.0,0.0,0.0,0.0,0.0,0.0,0.0,0.0,0.0,0.0,0.0,0.0,0.0,0.0,0.0,0.0,0.0,0.0,0.0,0.0,0.0,0.0,0.0,0.0,0.0,0.0,0.0,0.0,0.0,0.0,0.0,0.0,0.0,0.0,-1.4719,-1.4231,-1.4267,-1.4446,-1.389,-1.3536,0.0,0.0,-1.3939,-1.4122,-1.4706,-1.5061,-1.5514,-1.6423,-1.7227,-1.8339,-2.0932,0.0,0.0,-2.4556,-2.6222,-2.7702,-2.806,-2.9316,-3.052,-3.0911,-3.1394,-3.2087,-3.3017,-3.363,-3.4341,-3.5359,-3.5504,-3.5504,-3.5504,-3.6616,-3.7429,-3.7429,-3.8495,-3.957,-4.0299,-4.0829,-4.1425,-4.2154,-4.1618,-4.1565,-4.2261,-4.1039,-4.0214,-4.004,-3.9361,-3.8795,-3.8434,-3.7563,-3.6456,-3.5126,-3.4631,-3.4414,-3.4414,-3.3908,-3.3339,-3.2731,-3.3028,-3.3184,-3.3132,-3.3819,-3.4203,-3.4459,-3.4061,-3.3637,-3.3145,-3.2975,-3.2372,-3.1588,0.0,0.0,0.0,0.0,0.0,0.0,0.0,0.0,0.0,0.0,0.0,0.0,0.0,0.0,0.0,0.0,0.0,0.0,0.0,0.0,0.0,0.0,0.0,0.0,0.0,0.0,0.0,0.0,0.0,0.0,0.0,0.0,0.0,0.0,0.0,0.0,0.0,0.0,0.0,0.0,0.0,0.0,-1.4585,-1.438,-1.3989,-1.3653,-1.3726,0.0,0.0,0.0,-1.332,-1.3124,-1.3562,-1.4307,0.0,-1.5401,-1.7276,0.0,0.0,0.0,-2.3104,-2.272,-2.4527,-2.6769,-2.8068,-2.9069,-2.9947,-3.0823,-3.0986,-3.1482,-3.2946,-3.3213,-3.3713,-3.5228,-3.5504,-3.5504,-3.5504,-3.6616,-3.7429,-3.7429,-3.8495,-3.957,0.0,-4.0398,-4.0696,-4.1392,-4.0867,-4.0836,-4.1565,-4.029,-3.925,-3.8602,-3.8075,-3.7715,-3.7558,-3.6174,-3.5156,-3.4414,-3.4414,-3.4414,-3.4414,-3.3632,-3.3058,-3.2704,-3.24,-3.2608,-3.3064,-3.2448,-3.2816,-3.3697,-3.2453,-3.1963,-3.1878,-3.1223,-3.0977,-3.0893,0.0,0.0,0.0,0.0,0.0,0.0,0.0,0.0,0.0,0.0,0.0,0.0,0.0,0.0,0.0,0.0,0.0,0.0,0.0,0.0,0.0,0.0,0.0,0.0,0.0,0.0,0.0,0.0,0.0,0.0,0.0,0.0,0.0,0.0,0.0,0.0,0.0,0.0,0.0,0.0,0.0,0.0,-1.3855,-1.3682,-1.3717,-1.3809,0.0,0.0,0.0,0.0,0.0,0.0,-1.3912,0.0,0.0,-1.5228,-1.686,-1.8562,0.0,0.0,-2.199,-2.292,-2.4298,-2.5599,-2.6837,-2.7741,-2.8704,-2.9859,-3.0101,-3.0758,-3.2791,-3.3213,-3.3713,-3.5228,-3.5504,-3.5619,-3.6022,-3.6845,-3.7705,-3.8595,-3.9509,0.0,0.0,0.0,0.0,-4.1359,-4.0834,-4.0594,-4.0853,-3.9588,-3.8744,-3.8523,-3.7545,-3.6831,-3.6438,-3.5739,-3.506,-3.4414,-3.4414,-3.4128,-3.3632,-3.3409,-3.2931,-3.2372,-3.2241,-3.2058,-3.1862,-3.2008,-3.2083,-3.2003,-3.1568,-3.1402,-3.127,-3.0191,-2.9833,-2.9797,0.0,0.0,0.0,0.0,0.0,0.0,0.0,0.0,0.0,0.0,0.0,0.0,0.0,0.0,0.0,0.0,0.0,0.0,0.0,0.0,0.0,0.0,0.0,0.0,0.0,0.0,0.0,0.0,0.0,0.0,0.0,0.0,0.0,0.0,0.0,0.0,0.0,0.0,0.0,0.0,0.0,0.0,-1.3276,-1.3089,-1.3248,0.0,0.0,0.0,0.0,0.0,0.0,0.0,0.0,-1.4152,-1.4566,-1.5228,-1.6206,-1.7392,-1.876,-1.965,-2.0646,-2.2211,-2.334,-2.4392,-2.5431,-2.6479,-2.7574,-2.8611,-2.9322,-3.0367,-3.2393,-3.2989,-3.3713,-3.5228,-3.5504,-3.5748,-3.6321,-3.723,-3.8205,-3.9256,-4.0212,0.0,0.0,0.0,0.0,-4.1375,-4.0606,-4.0124,-4.0124,-3.887,-3.8144,-3.8144,-3.7002,-3.6212,-3.5743,-3.5249,-3.4846,-3.4414,-3.4414,-3.3991,-3.3269,-3.3269,-3.2931,-3.2182,-3.1936,-3.1616,-3.1185,-3.1161,-3.1048,-3.0808,-3.0542,-3.0433,-3.0397,-2.9588,-2.9184,-2.9015,0.0,0.0,0.0,0.0,0.0,0.0,0.0,0.0,0.0,0.0,0.0,0.0,0.0,0.0,0.0,0.0,0.0,0.0,0.0,0.0,0.0,0.0,0.0,0.0,0.0,0.0,0.0,0.0,0.0,0.0,0.0,0.0,0.0,0.0,0.0,0.0,0.0,0.0,0.0,0.0,0.0,0.0,-1.3037,-1.2824,0.0,0.0,0.0,0.0,0.0,0.0,0.0,0.0,0.0,-1.4172,-1.4559,-1.5144,-1.5394,-1.5801,-1.7432,-1.831,-1.9197,-2.0556,-2.1778,-2.2913,-2.4135,-2.5318,-2.638,-2.7186,-2.8448,-3.005,0.0,0.0,-3.3685,-3.5213,-3.5504,-3.5733,-3.6368,-3.7621,-3.873,0.0,0.0,0.0,0.0,0.0,0.0,-4.1409,0.0,-3.946,-3.9428,-3.82,-3.748,-3.748,-3.643,-3.5758,-3.5401,-3.4765,-3.4414,-3.4414,-3.4414,-3.3991,-3.3269,-3.3269,-3.286,-3.2096,-3.1468,-3.1145,-3.0996,-2.9871,-2.9638,-3.0029,-2.9488,-2.9256,-2.9256,-2.9256,-2.8943,-2.851,0.0,0.0,0.0,0.0,0.0,0.0,0.0,0.0,0.0,0.0,0.0,0.0,0.0,0.0,0.0,0.0,0.0,0.0,0.0,0.0,0.0,0.0,0.0,0.0,0.0,0.0,0.0,0.0,0.0,0.0,0.0,0.0,0.0,0.0,0.0,0.0,0.0,0.0,0.0,0.0,0.0,0.0,-1.3931,0.0,0.0,0.0,0.0,0.0,0.0,0.0,0.0,0.0,0.0,-1.433,-1.4398,-1.4412,-1.4901,-1.5477,-1.5966,-1.6935,-1.8014,-1.9145,-1.9897,-2.0879,-2.2579,-2.325,-2.3981,-2.5595,-2.6706,-2.8038,0.0,0.0,0.0,-3.4389,-3.5133,0.0,-3.7011,-3.791,0.0,-4.0705,0.0,-4.2535,-4.328,-4.217,0.0,0.0,-4.0197,-3.925,-3.8699,-3.7929,-3.7285,-3.6907,-3.6243,-3.5876,-3.5784,-3.4875,-3.4414,-3.4414,-3.4414,-3.3991,-3.3269,-3.3269,-3.2618,-3.1468,-3.1307,-3.0696,-2.9871,-2.9496,-2.9204,-2.8943,-2.8783,-2.8703,-2.8703,-2.8703,-2.8631,-2.8431,0.0,0.0,0.0,0.0,0.0,0.0,0.0,0.0,0.0,0.0,0.0,0.0,0.0,0.0,0.0,0.0,0.0,0.0,0.0,0.0,0.0,0.0,0.0,0.0,0.0,0.0,0.0,0.0,0.0,0.0,0.0,0.0,0.0,0.0,0.0,0.0,0.0,0.0,0.0,0.0,0.0,0.0,0.0,0.0,0.0,0.0,0.0,0.0,0.0,0.0,0.0,-1.4966,-1.539,-1.5553,-1.547,-1.5311,0.0,-1.6049,-1.6214,-1.687,-1.7594,-1.8318,-1.9195,-2.0117,-2.1144,-2.2148,-2.3313,-2.4657,-2.6042,0.0,0.0,0.0,0.0,0.0,0.0,0.0,-3.7251,-3.8539,-3.9876,0.0,-4.2353,0.0,-4.3578,-4.2286,-4.1409,0.0,-3.9903,-3.8829,-3.8424,-3.7833,-3.7348,-3.7064,-3.6474,-3.5838,-3.5274,-3.4674,-3.4414,-3.4414,-3.4414,-3.4088,-3.3494,-3.3368,-3.2533,-3.122,0.0,-3.0254,-2.9419,-2.9106,-2.8816,-2.851,-2.851,-2.851,-2.851,-2.851,-2.851,-2.8431,0.0,0.0,0.0,0.0,0.0,0.0,0.0,0.0,0.0,0.0,0.0,0.0,0.0,0.0,0.0,0.0,0.0,0.0,0.0,0.0,0.0,0.0,0.0,0.0,0.0,0.0,0.0,0.0,0.0,0.0,0.0,0.0,0.0,0.0,0.0,0.0,0.0,0.0,0.0,0.0,0.0,0.0,0.0,0.0,0.0,0.0,0.0,0.0,0.0,0.0,-1.6776,-1.6571,-1.6847,-1.6952,-1.6952,-1.678,-1.6698,-1.6698,-1.7115,-1.7196,-1.7286,-1.7708,-1.8957,-1.9963,-1.9904,-2.168,-2.346,-2.4058,0.0,-2.7928,-2.9621,-3.164,-3.326,-3.4317,0.0,-3.6662,-3.731,-3.9173,-4.0743,-4.1409,-4.2775,-4.3671,-4.3671,-4.2344,-4.1465,-4.1409,-3.9527,-3.8391,-3.8391,-3.7833,-3.7427,-3.7374,-3.658,-3.5594,-3.4414,-3.4414,-3.4414,-3.4414,-3.4332,-3.4117,-3.3691,-3.3255,-3.239,-3.1084,0.0,0.0,-2.9263,-2.8736,-2.851,-2.851,-2.851,-2.851,-2.851,-2.851,-2.851,-2.8351,0.0,0.0,0.0,0.0,0.0,0.0,0.0,0.0,0.0,0.0,-3.1136,0.0,0.0,0.0,0.0,0.0,0.0,0.0,0.0,0.0,0.0,0.0,0.0,0.0,0.0,0.0,0.0,0.0,0.0,0.0,0.0,0.0,0.0,0.0,0.0,0.0,0.0,0.0,0.0,0.0,0.0,0.0,0.0,0.0,0.0,0.0,0.0,0.0,0.0,0.0,-1.8536,-1.6405,-1.6676,-1.678,-1.678,-1.6698,-1.6453,-1.6214,-1.6296,-1.6312,-1.6409,-1.6812,-1.7934,-1.9125,-1.9747,-2.1252,0.0,0.0,0.0,-2.676,-2.8833,-3.0638,-3.2326,-3.4074,0.0,0.0,0.0,0.0,-4.086,0.0,0.0,0.0,0.0,0.0,0.0,0.0,0.0,0.0,-3.8391,-3.7833,-3.7199,-3.6628,-3.5383,-3.4645,-3.4414,-3.4414,-3.4414,-3.4414,-3.4031,-3.3744,-3.3677,-3.2588,-3.1502,-3.0393,0.0,0.0,-2.8669,-2.851,-2.851,-2.851,-2.851,-2.851,-2.851,-2.851,-2.851,-2.8351,0.0,0.0,0.0,0.0,0.0,0.0,0.0,0.0,0.0,0.0,-3.0986,-3.1286,0.0,0.0,0.0,0.0,0.0,0.0,0.0,0.0,0.0,0.0,0.0,0.0,0.0,0.0,0.0,0.0,0.0,0.0,0.0,0.0,0.0,0.0,0.0,0.0,0.0,0.0,0.0,0.0,0.0,0.0,0.0,0.0,0.0,0.0,0.0,0.0,0.0,0.0,-2.1075,-1.9774,-1.9243,-1.9009,-1.9009,-1.8939,-1.878,-1.8541,-1.8132,-1.8069,-1.8078,-1.8078,-1.8877,-1.9825,-2.0643,0.0,0.0,0.0,-2.6113,-2.7901,-2.9389,0.0,0.0,0.0,0.0,0.0,0.0,0.0,0.0,0.0,0.0,0.0,0.0,0.0,0.0,0.0,0.0,0.0,-3.8424,-3.7824,-3.7313,-3.7013,-3.5325,-3.4414,-3.4414,-3.4414,-3.4414,-3.4414,-3.3808,-3.2919,-3.1952,-3.1807,-3.1057,-2.9793,-2.9496,0.0,-2.851,-2.851,-2.851,-2.851,-2.851,-2.851,-2.851,-2.851,-2.851,-2.8351,0.0,0.0,0.0,0.0,0.0,0.0,0.0,-3.0228,-3.0368,-3.0609,-3.0836,-3.0986,-3.1198,-3.1373,-3.1535,0.0,0.0,0.0,0.0,0.0,0.0,0.0,0.0,0.0,0.0,0.0,0.0,0.0,0.0,0.0,0.0,0.0,0.0,0.0,0.0,0.0,0.0,0.0,0.0,0.0,0.0,0.0,0.0,0.0,0.0,0.0,0.0,0.0,0.0,0.0,-2.3408,-2.3345,-2.2264,-2.1821,-2.1593,-2.1231,-2.1001,-2.0847,-2.0285,-1.9972,-1.9737,-1.9423,-1.9904,-2.0682,-2.1552,-2.2638,0.0,0.0,-2.7366,-2.9217,-3.0214,0.0,0.0,0.0,0.0,0.0,0.0,0.0,0.0,0.0,0.0,0.0,0.0,0.0,0.0,0.0,0.0,0.0,-3.8253,-3.7745,-3.7402,-3.7136,-3.537,-3.4414,-3.4414,-3.4414,-3.4414,-3.4414,-3.3628,-3.2263,-3.0315,-3.1123,-3.0683,-2.9419,-2.9263,0.0,0.0,-2.851,-2.851,-2.851,-2.851,-2.851,-2.851,-2.851,-2.8339,-2.8087,0.0,0.0,0.0,0.0,0.0,0.0,0.0,-3.0011,-3.0228,-3.0368,-3.0609,-3.0773,-3.0986,-3.1061,0.0,0.0,0.0,0.0,0.0,0.0,0.0,0.0,0.0,0.0,0.0,0.0,0.0,0.0,0.0,0.0,0.0,0.0,0.0,0.0,0.0,0.0,0.0,0.0,0.0,0.0,0.0,0.0,0.0,0.0,0.0,0.0,0.0,0.0,0.0,0.0,0.0,-2.4552,-2.4409,-2.3722,-2.2892,-2.2103,0.0,0.0,-2.1028,-2.0178,-1.9344,-1.9344,-1.9904,-2.0682,-2.1552,0.0,0.0,-2.5158,-2.7158,-2.9173,-3.0632,-3.276,0.0,0.0,0.0,0.0,0.0,0.0,0.0,0.0,0.0,0.0,0.0,0.0,0.0,0.0,0.0,0.0,0.0,-3.7499,-3.7059,-3.6082,-3.5016,-3.4414,-3.4414,-3.4414,-3.4414,-3.4414,-3.3687,-3.2233,-3.0315,-3.0397,-3.0088,-2.9341,0.0,0.0,0.0,-2.851,-2.851,-2.851,-2.851,-2.851,-2.851,-2.851,-2.8018,-2.7185,0.0,0.0,0.0,0.0,0.0,0.0,0.0,-2.9934,-3.0152,-3.0368,-3.0609,-3.0773,-3.0986,-3.0986,-3.1061,0.0,0.0,0.0,0.0,0.0,0.0,0.0,0.0,0.0,0.0,0.0,0.0,0.0,0.0,0.0,0.0,0.0,0.0,0.0,0.0,0.0,0.0,0.0,0.0,0.0,0.0,0.0,0.0,0.0,0.0,0.0,0.0,0.0,0.0,0.0,0.0,0.0,-2.6544,-2.6506,0.0,0.0,-2.3283,-2.3051,-2.2977,-2.252,-2.2071,-2.1659,-2.2103,-2.2765,-2.3051,0.0,-2.5134,-2.6389,-2.8381,-3.02,-3.125,-3.3612,-3.5704,0.0,0.0,0.0,0.0,0.0,0.0,0.0,0.0,0.0,0.0,0.0,0.0,0.0,0.0,0.0,0.0,-3.7514,-3.6733,-3.5018,-3.4611,-3.4414,-3.4414,-3.4414,-3.4414,-3.4414,-3.3632,-3.2258,-3.0335,-3.0325,-2.9793,-2.8803,0.0,0.0,0.0,-2.851,-2.851,-2.851,-2.851,-2.851,-2.8431,-2.7926,-2.751,-2.701,0.0,0.0,0.0,0.0,0.0,0.0,-3.0269,-3.0413,-3.0494,-3.0637,-3.0778,-3.0879,-3.0999,-3.1185,-3.1334,-3.1334,0.0,0.0,0.0,0.0,0.0,0.0,0.0,0.0,0.0,0.0,0.0,-3.097,0.0,0.0,0.0,0.0,0.0,0.0,0.0,0.0,0.0,0.0,0.0,0.0,0.0,0.0,0.0,0.0,0.0,0.0,0.0,0.0,0.0,0.0,0.0,0.0,0.0,0.0,0.0,0.0,-2.504,-2.4898,-2.4552,-2.4264,-2.3975,-2.3497,-2.3902,-2.4446,0.0,0.0,-2.6346,-2.7827,-2.9577,-3.1216,-3.2074,-3.448,-3.66,0.0,0.0,0.0,0.0,0.0,0.0,0.0,0.0,0.0,0.0,0.0,0.0,0.0,0.0,0.0,0.0,-3.7498,-3.6844,-3.5326,-3.4736,-3.4414,-3.4414,-3.4414,-3.4414,-3.4414,-3.3325,-3.1959,-3.0359,-3.015,-2.9496,-2.851,0.0,0.0,0.0,-2.851,-2.851,-2.851,-2.851,-2.851,-2.8419,-2.751,-2.701,-2.6505,0.0,0.0,0.0,0.0,0.0,0.0,0.0,-3.1373,-3.1334,-3.1187,-3.1201,-3.1151,-3.1039,-3.1676,-3.2074,-3.2074,0.0,0.0,0.0,0.0,0.0,0.0,0.0,0.0,0.0,0.0,-3.2488,-3.097,-3.097,-3.0615,0.0,0.0,0.0,0.0,0.0,0.0,0.0,0.0,0.0,0.0,0.0,0.0,0.0,0.0,0.0,0.0,0.0,0.0,0.0,0.0,0.0,0.0,0.0,0.0,0.0,0.0,-2.6408,-2.6133,-2.5499,-2.4719,-2.4108,-2.412,-2.4648,-2.539,0.0,0.0,-2.7762,-2.9212,-3.0585,-3.1863,-3.3129,-3.5226,-3.7024,-3.7754,0.0,0.0,0.0,0.0,0.0,0.0,0.0,0.0,0.0,0.0,0.0,0.0,0.0,0.0,0.0,-3.7465,-3.7515,-3.7432,-3.5495,-3.4414,-3.4414,-3.4414,-3.4414,-3.4414,-3.2582,-3.132,-3.0498,-2.9719,-2.9118,0.0,0.0,0.0,0.0,-2.851,-2.851,-2.851,-2.851,-2.851,-2.8419,-2.751,-2.6505,-2.5316,0.0,0.0,0.0,0.0,0.0,0.0,0.0,-3.1386,-3.1498,-3.1749,-3.1803,-3.211,-3.2881,-3.2806,-3.3138,-3.4172,0.0,0.0,0.0,0.0,0.0,0.0,0.0,0.0,0.0,0.0,-3.378,-3.3184,-3.2721,-3.2106,-3.1331,-3.0702,0.0,0.0,0.0,0.0,0.0,0.0,0.0,0.0,0.0,0.0,0.0,0.0,0.0,0.0,0.0,0.0,0.0,0.0,0.0,0.0,0.0,0.0,0.0,0.0,0.0,0.0,-2.7564,-2.7272,-2.6992,-2.6493,-2.6912,-2.7484,-2.7647,-2.8251,-2.9226,-3.0599,-3.1797,-3.2941,-3.3794,-3.583,-3.7397,-3.7663,0.0,0.0,0.0,0.0,0.0,0.0,0.0,0.0,0.0,0.0,0.0,0.0,0.0,0.0,0.0,-3.278,-3.2786,-3.2812,-3.2176,-3.2241,-3.3108,-3.3122,-3.3122,-3.3108,-3.1074,-2.9674,-2.8866,-2.8459,0.0,0.0,0.0,0.0,0.0,-2.8366,-2.851,-2.851,-2.851,-2.851,-2.8339,-2.6835,-2.5913,-2.5231,0.0,0.0,0.0,0.0,0.0,0.0,0.0,-3.2026,-3.2129,-3.235,-3.2704,-3.3133,-3.3801,-3.414,-3.4651,-3.5563,0.0,0.0,0.0,0.0,0.0,0.0,0.0,0.0,0.0,-3.5,-3.4722,-3.4327,-3.3924,-3.3457,-3.2946,-3.225,-3.1784,-3.1436,0.0,0.0,0.0,0.0,0.0,0.0,0.0,0.0,-3.0115,0.0,0.0,0.0,0.0,0.0,0.0,0.0,0.0,0.0,0.0,0.0,0.0,0.0,-3.0505,0.0,0.0,-2.8784,-2.8648,-2.8292,-2.8869,0.0,0.0,-3.0504,-3.1532,-3.2593,-3.3416,-3.4154,-3.5024,-3.6428,-3.7589,-3.8035,0.0,0.0,0.0,0.0,0.0,0.0,0.0,0.0,0.0,0.0,0.0,0.0,0.0,0.0,0.0,0.0,-3.0585,-3.0585,-3.0628,-3.0991,-3.1803,-3.2118,-3.2176,-3.2019,-3.0281,-2.9138,-2.8529,-2.7788,0.0,0.0,0.0,0.0,0.0,-2.7777,-2.7921,-2.7855,-2.7731,-2.7723,-2.7495,-2.5931,-2.5158,-2.4638,0.0,0.0,0.0,0.0,0.0,0.0,0.0,0.0,0.0,0.0,-3.3723,-3.4204,-3.4181,-3.552,-3.6401,0.0,0.0,0.0,0.0,0.0,0.0,0.0,0.0,0.0,0.0,-3.5674,-3.5305,-3.4732,-3.4673,-3.4599,-3.4552,-3.3955,-3.3622,-3.3562,-3.293,0.0,0.0,0.0,0.0,0.0,0.0,0.0,0.0,0.0,0.0,0.0,0.0,0.0,0.0,0.0,0.0,0.0,0.0,0.0,0.0,0.0,0.0,0.0,0.0,0.0,0.0,0.0,0.0,0.0,0.0,-3.3285,0.0,-3.4927,-3.5064,-3.5447,-3.6477,-3.6982,-3.7573,-3.8707,0.0,0.0,0.0,0.0,0.0,0.0,0.0,0.0,0.0,0.0,0.0,0.0,0.0,0.0,0.0,0.0,-3.0568,-3.0568,-3.0625,-3.0609,-3.0609,-3.1354,-3.1525,-3.1067,-2.9984,-2.9319,-2.8995,-2.7447,0.0,0.0,0.0,0.0,0.0,-2.6911,-2.686,-2.6745,-2.6433,-2.6302,-2.6109,-2.4819,-2.4129,-2.3624,0.0,0.0,0.0,0.0,0.0,0.0,0.0,0.0,0.0,0.0,0.0,-3.5596,-3.7049,-3.7053,0.0,0.0,0.0,0.0,0.0,0.0,0.0,0.0,0.0,0.0,0.0,-3.7223,-3.6864,-3.6707,-3.6243,-3.5753,-3.5245,-3.5109,-3.4773,-3.4283,-3.4089,-3.3759,0.0,0.0,0.0,0.0,0.0,0.0,0.0,0.0,0.0,0.0,-3.3593,-3.3607,0.0,0.0,0.0,0.0,0.0,0.0,0.0,0.0,-3.416,-3.4179,-3.3556,0.0,-3.2915,-3.2943,-3.3185,-3.3547,0.0,-3.456,-3.4942,-3.5548,0.0,0.0,-3.6631,-3.7637,0.0,0.0,0.0,0.0,0.0,0.0,0.0,0.0,0.0,0.0,0.0,0.0,0.0,0.0,0.0,0.0,0.0,0.0,-3.0568,-3.0568,-3.0592,-3.0603,-3.0603,-3.0321,-2.9989,-2.9708,-2.8226,-2.7456,-2.7263,-2.6171,0.0,0.0,0.0,0.0,-2.6322,-2.6755,-2.6534,-2.5989,-2.5873,-2.553,-2.4823,-2.3717,-2.3094,-2.2722,0.0,0.0,0.0,0.0,0.0,0.0,0.0,0.0,0.0,0.0,0.0,0.0,0.0,0.0,0.0,0.0,0.0,0.0,0.0,0.0,0.0,0.0,0.0,0.0,-3.7895,-3.7854,-3.7796,-3.7796,-3.7504,-3.7137,-3.6774,-3.6774,-3.6468,-3.5786,-3.5519,-3.537,0.0,0.0,0.0,0.0,-3.4711,0.0,0.0,0.0,0.0,0.0,-3.4834,-3.4772,0.0,-3.458,-3.4472,-3.4414,0.0,0.0,0.0,0.0,-3.5243,-3.5477,-3.5477,-3.488,-3.4358,-3.444,-3.4636,-3.4925,-3.5615,0.0,0.0,0.0,0.0,0.0,0.0,0.0,0.0,0.0,0.0,0.0,0.0,0.0,0.0,0.0,0.0,0.0,0.0,0.0,0.0,0.0,0.0,0.0,0.0,0.0,-3.0568,-3.0568,-3.0568,-3.0447,-3.0129,-2.9808,-2.9233,-2.8519,-2.7458,-2.6731,-2.6414,-2.5652,0.0,0.0,0.0,0.0,-2.5757,-2.568,-2.5343,-2.4894,-2.4371,-2.3916,-2.3387,-2.2554,-2.2135,-2.1846,0.0,0.0,0.0,0.0,0.0,0.0,0.0,0.0,0.0,0.0,0.0,0.0,0.0,0.0,0.0,0.0,0.0,0.0,0.0,0.0,0.0,0.0,0.0,-3.8057,-3.8115,-3.8448,-3.8609,-3.8609,-3.8383,-3.8278,-3.8278,-3.8278,-3.801,-3.7519,-3.6997,-3.7033,0.0,0.0,0.0,0.0,-3.6831,0.0,0.0,0.0,0.0,0.0,0.0,0.0,0.0,-3.5524,-3.5321,-3.5279,-3.5524,0.0,0.0,0.0,0.0,0.0,-3.6794,-3.6048,-3.5256,-3.5369,-3.5689,-3.61,-3.6706,0.0,0.0,0.0,0.0,0.0,0.0,0.0,0.0,0.0,0.0,0.0,0.0,0.0,0.0,0.0,0.0,0.0,0.0,0.0,0.0,0.0,0.0,0.0,0.0,0.0,0.0,-3.0568,-3.0568,-3.0251,-2.9421,-2.9421,-2.8839,-2.7604,-2.7002,-2.6539,-2.6094,-2.5523,0.0,0.0,0.0,0.0,-2.5229,-2.4409,-2.4036,-2.379,-2.273,-2.221,-2.2015,-2.1504,-2.1148,-2.1012,0.0,0.0,0.0,0.0,0.0,0.0,0.0,0.0,0.0,0.0,0.0,0.0,0.0,0.0,0.0,0.0,0.0,0.0,0.0,0.0,0.0,0.0,-4.0818,-4.1028,-4.154,-4.0525,-3.9974,-3.9974,-3.8867,-3.8278,-3.8278,-3.8278,-3.8238,-3.8181,-3.8067,-3.7786,-3.744,-3.7886,-3.7838,-3.7488,-3.7488,0.0,0.0,0.0,0.0,0.0,0.0,0.0,0.0,-3.6703,-3.6687,-3.6687,-3.6747,0.0,0.0,0.0,0.0,0.0,-3.8646,-3.8274,-3.7664,-3.72,-3.7188,-3.7279,-3.7329,0.0,0.0,0.0,0.0,0.0,0.0,0.0,0.0,0.0,0.0,0.0,0.0,0.0,0.0,0.0,0.0,0.0,0.0,0.0,0.0,0.0,0.0,0.0,0.0,0.0,0.0,-3.0568,-3.0568,-2.9979,-2.8684,-2.8698,-2.8182,-2.7297,-2.644,-2.5955,-2.5676,-2.5382,-2.5312,0.0,0.0,-2.5312,-2.5229,-2.4409,-2.3756,-2.3106,-2.2218,-2.1497,-2.082,-2.0339,-2.0131,-2.0155,0.0,0.0,0.0,0.0,0.0,0.0,0.0,0.0,0.0,0.0,0.0,0.0,0.0,0.0,0.0,0.0,0.0,0.0,0.0,0.0,0.0,-4.3182,-4.317,-4.273,-4.1854,-4.154,-4.1372,-4.1372,-4.075,-4.0458,-4.0458,-4.0127,-4.0172,-4.0459,-3.978,-3.9537,-3.9638,-3.9622,-3.9275,-3.8656,0.0,0.0,0.0,0.0,0.0,0.0,0.0,0.0,0.0,0.0,-3.68,-3.6754,-3.6938,0.0,0.0,0.0,0.0,0.0,-3.8684,-3.8739,-3.8756,-3.8495,-3.8157,-3.8001,-3.8343,0.0,0.0,0.0,0.0,0.0,0.0,0.0,0.0,0.0,0.0,0.0,0.0,0.0,0.0,0.0,0.0,0.0,0.0,0.0,0.0,0.0,0.0,0.0,0.0,0.0,0.0,0.0,-3.0251,-2.9546,-2.8492,-2.8117,-2.7471,-2.6496,-2.6107,-2.5758,-2.5453,-2.5312,-2.5312,-2.5312,0.0,-2.5312,-2.5229,-2.3975,-2.3316,-2.2883,-2.1614,-2.0944,-2.0566,-2.0098,-1.9784,-1.9659,0.0,0.0,0.0,0.0,0.0,0.0,0.0,0.0,0.0,0.0,0.0,0.0,0.0,0.0,0.0,0.0,0.0,0.0,0.0,0.0,-4.4587,-4.4587,-4.4587,-4.3844,-4.2205,-4.2425,-4.2557,-4.2557,-4.2371,-4.2286,-4.2286,-4.1837,-4.1899,-4.2342,-4.1362,-4.118,-4.1537,-4.1305,-4.0802,-4.013,0.0,0.0,0.0,0.0,0.0,0.0,0.0,0.0,0.0,0.0,0.0,0.0,0.0,0.0,0.0,-3.7738,-3.8463,-3.9135,-3.8941,-3.9156,-3.9401,-3.9558,0.0,-3.8629,-3.9082,0.0,0.0,0.0,0.0,0.0,0.0,0.0,0.0,0.0,0.0,0.0,0.0,0.0,0.0,0.0,0.0,0.0,0.0,0.0,0.0,0.0,0.0,0.0,0.0,0.0,0.0,0.0,-2.9931,-2.9219,-2.8492,-2.7868,-2.696,-2.598,-2.591,-2.5676,-2.5382,-2.5312,-2.5312,-2.5312,-2.5312,-2.5312,-2.5158,-2.3621,-2.3032,-2.2809,-2.1242,-2.0566,-2.0411,-2.002,-1.9627,-1.9402,0.0,0.0,0.0,0.0,0.0,0.0,0.0,0.0,0.0,0.0,0.0,0.0,0.0,0.0,0.0,0.0,0.0,0.0,0.0,0.0,-4.4587,-4.4587,-4.4587,-4.4519,-4.4361,-4.3707,-4.3335,-4.3335,-4.2642,-4.2286,-4.2286,-4.2233,-4.2267,-4.2301,-4.2196,-4.1963,-4.1633,-4.2146,-4.2095,-4.167,-4.1698,0.0,0.0,0.0,0.0,0.0,0.0,0.0,0.0,0.0,0.0,0.0,0.0,0.0,-3.7806,-3.9049,-3.961,-3.9868,-4.0566,-4.0336,-4.007,-4.0662,-3.9935,0.0,-3.9206,-3.9206,0.0,0.0,0.0,0.0,0.0,0.0,0.0,0.0,0.0,0.0,0.0,0.0,0.0,0.0,0.0,0.0,0.0,0.0,0.0,0.0,0.0,0.0,0.0,0.0,0.0,0.0,0.0,-2.9219,-2.8492,-2.7868,-2.704,-2.6213,-2.598,-2.5758,-2.5535,-2.5382,-2.5312,-2.5312,-2.5312,-2.5312,-2.5158,-2.3621,-2.3032,-2.2809,-2.1242,-2.0333,-1.9942,-1.9942,-1.9627,-1.9366,0.0,0.0,0.0,0.0,0.0,0.0,0.0,0.0,0.0,0.0,0.0,0.0,0.0,0.0,0.0,0.0,0.0,0.0,0.0,0.0,-4.4587,-4.4587,-4.4587,-4.4587,-4.4587,-4.4282,-4.4147,-4.4147,-4.3859,-4.3707,-4.3707,-4.3707,-4.3707,-4.3707,-4.3707,-4.3652,-4.3452,-4.369,-4.3403,-4.2783,-4.2816,-4.2055,0.0,0.0,0.0,0.0,0.0,0.0,0.0,0.0,-3.6662,0.0,0.0,0.0,-3.8108,-3.8262,-3.9156,-4.0121,-4.0204,-4.0303,-4.0517,-4.0823,0.0,0.0,0.0,0.0,0.0,0.0,0.0,0.0,0.0,0.0,0.0,0.0,0.0,0.0,0.0,0.0,0.0,0.0,0.0,0.0,0.0,0.0,0.0,0.0,0.0,0.0,0.0,0.0,0.0,0.0,0.0,-2.8762,-2.8492,-2.7417,-2.6577,-2.598,-2.591,-2.5758,-2.5382,-2.5312,-2.5312,-2.5241,-2.4779,-2.4564,-2.4409,-2.2872,-2.2285,-2.2134,-2.1011,-2.0411,-2.0108,-1.9942,-1.9706,-1.9534,0.0,0.0,0.0,0.0,0.0,0.0,0.0,0.0,0.0,0.0,0.0,0.0,0.0,0.0,0.0,0.0,0.0,0.0,0.0,-4.431,-4.4587,-4.4587,-4.4587,-4.4587,-4.4587,-4.4587,-4.4587,-4.4587,-4.4587,-4.4587,-4.4587,-4.4587,-4.4587,-4.4587,-4.4587,-4.4626,-4.4682,-4.4682,-4.4376,-4.383,-4.383,-4.2932,0.0,0.0,0.0,0.0,0.0,0.0,0.0,0.0,0.0,0.0,0.0,0.0,0.0,0.0,-3.9172,-4.0238,-4.0054,-4.032,-4.0648,0.0,0.0,0.0,0.0,0.0,0.0,0.0,0.0,0.0,0.0,0.0,0.0,0.0,0.0,0.0,0.0,0.0,0.0,0.0,0.0,0.0,0.0,0.0,0.0,0.0,0.0,0.0,0.0,0.0,0.0,0.0,0.0,0.0,-2.8182,-2.704,-2.6327,-2.591,-2.591,-2.5688,-2.5312,-2.5312,-2.5312,-2.5241,-2.442,-2.4108,-2.3963,-2.2424,-2.169,-2.1395,-2.0789,-2.0411,-2.0177,-1.9942,-1.9706,-1.9515,0.0,0.0,0.0,0.0,0.0,0.0,0.0,0.0,0.0,0.0,0.0,0.0,0.0,0.0,0.0,0.0,0.0,0.0,0.0,-4.4587,-4.4587,-4.4587,-4.4587,-4.4587,-4.4587,-4.4587,-4.4587,-4.4587,-4.4587,-4.4587,-4.4587,-4.4587,-4.4587,-4.4587,-4.4587,-4.4682,-4.4776,-4.4776,-4.4776,-4.4776,-4.4776,-4.3803,-4.2286,0.0,0.0,0.0,0.0,0.0,0.0,0.0,-3.7895,0.0,0.0,0.0,0.0,0.0,-3.9833,-4.0305,-4.0485,-4.0468,-4.0534,0.0,0.0,0.0,0.0,0.0,0.0,0.0,0.0,0.0,0.0,0.0,0.0,0.0,0.0,0.0,0.0,0.0,0.0,0.0,0.0,0.0,0.0,0.0,0.0,0.0,0.0,0.0,0.0,0.0,0.0,0.0,0.0,0.0,-2.7471,-2.6837,-2.6302,-2.5886,-2.5886,-2.5676,-2.5312,-2.5312,-2.5312,-2.5229,-2.4409,-2.412,-2.3963,-2.2424,-2.1318,-2.0566,-2.0566,-2.0333,-1.9863,-1.9863,-1.9627,-1.9301,0.0,0.0,0.0,0.0,0.0,0.0,0.0,0.0,0.0,0.0,0.0,0.0,0.0,0.0,0.0,0.0,0.0,0.0,0.0,-4.4587,-4.4587,-4.4587,-4.4587,-4.4587,-4.4587,-4.4587,-4.4587,-4.4587,-4.4587,-4.4587,-4.4587,-4.4587,-4.4587,-4.4587,-4.4587,-4.4626,-4.4682,-4.4682,-4.4682,-4.4682,-4.4682,-4.3711,-4.2286,0.0,0.0,0.0,0.0,0.0,0.0,0.0,0.0,0.0,0.0,0.0,0.0,0.0,-3.9065,-3.9644,-4.0238,-4.0054,0.0,0.0,0.0,0.0,0.0,0.0,0.0,0.0,0.0,0.0,0.0,0.0,0.0,0.0,0.0,0.0,0.0,0.0,0.0,0.0,0.0,0.0,0.0,0.0,0.0,0.0,0.0,0.0,0.0,0.0,0.0,0.0,0.0,0.0,-2.6282,-2.5612,-2.5112,-2.4767,-2.4767,-2.4957,-2.5312,-2.5312,-2.5312,-2.5241,-2.3913,-2.3316,-2.3169,-2.1614,-2.0789,-2.0566,-2.0411,-2.0264,-2.0108,-1.9794,-1.9636,-1.9478,0.0,0.0,0.0,0.0,0.0,0.0,0.0,0.0,0.0,0.0,0.0,0.0,0.0,0.0,0.0,0.0,0.0,0.0,0.0,0.0,-4.4587,-4.4587,-4.4587,-4.4587,-4.4587,-4.4587,-4.4587,-4.4587,-4.4587,-4.4587,-4.4587,-4.4587,-4.4587,-4.4587,-4.4587,-4.4587,-4.4587,-4.4587,-4.4587,-4.4553,-4.4248,-4.3386,-4.2252,0.0,0.0,0.0,0.0,0.0,0.0,0.0,0.0,0.0,0.0,0.0,0.0,-3.8181,-3.8574,-3.892,-3.9401,0.0,0.0,0.0,0.0,0.0,0.0,0.0,0.0,0.0,0.0,0.0,0.0,0.0,0.0,0.0,0.0,0.0,0.0,0.0,0.0,0.0,0.0,0.0,0.0,0.0,0.0,0.0,0.0,0.0,0.0,0.0,0.0,0.0,0.0,0.0,-2.5421,-2.5,-2.4691,-2.4353,-2.4353,-2.4499,-2.4755,-2.4767,-2.4548,-2.4189,-2.2794,-2.2179,-2.1983,-2.1011,-2.0566,-2.0566,-2.0342,-2.0264,-2.0108,-1.9715,-1.9557,-1.9478,0.0,0.0,0.0,0.0,0.0,0.0,0.0,0.0,0.0,0.0,0.0,0.0,0.0,0.0,0.0,0.0,0.0,0.0,0.0,0.0,-4.4587,-4.4587,-4.4587,-4.4587,-4.4587,-4.4587,-4.4587,-4.4587,-4.4587,-4.4587,-4.4587,-4.4587,-4.4587,-4.4587,-4.4587,-4.4587,-4.4587,-4.4587,-4.4536,-4.4418,-4.3707,-4.2929,-4.2117,-4.1457,0.0,0.0,0.0,0.0,0.0,0.0,0.0,0.0,0.0,0.0,0.0,-3.8165,-3.8238,-3.8238,0.0,0.0,0.0,0.0,0.0,0.0,0.0,0.0,0.0,0.0,0.0,0.0,0.0,0.0,0.0,0.0,0.0,0.0,0.0,0.0,0.0,0.0,0.0,0.0,0.0,0.0,0.0,0.0,0.0,0.0,0.0,0.0,0.0,0.0,0.0,0.0,-2.4669,-2.4669,-2.4541,0.0,-2.4205,-2.4075,-2.3867,-2.3779,-2.327,-2.2446,-2.1474,-2.0832,-2.0508,-2.0508,-2.0527,-2.0566,-2.0342,-2.0098,-1.9863,-1.9636,-1.9478,-1.9301,0.0,0.0,0.0,0.0,0.0,0.0,0.0,0.0,0.0,0.0,0.0,0.0,0.0,0.0,0.0,0.0,0.0,0.0,0.0,0.0,-4.4587,-4.4587,-4.4587,-4.4587,-4.4587,-4.4587,-4.4587,-4.4587,-4.4587,-4.4587,-4.4587,-4.4587,-4.4587,-4.4587,-4.4587,-4.4587,-4.4587,-4.4587,-4.4231,-4.3656,-4.3487,-4.2625,-4.1424,-4.1271,-4.073,0.0,0.0,0.0,0.0,0.0,0.0,0.0,-3.7796,-3.7298,-3.6997,-3.746,-3.7578,-3.7679,0.0,-3.7953,0.0,0.0,0.0,0.0,0.0,0.0,0.0,0.0,0.0,0.0,0.0,0.0,0.0,0.0,0.0,0.0,0.0,0.0,0.0,0.0,0.0,0.0,0.0,0.0,0.0,0.0,0.0,0.0,0.0,0.0,0.0,0.0,0.0,-2.3611,-2.3502,-2.3502,-2.3379,0.0,-2.3084,-2.296,-2.2722,-2.2893,-2.2218,-2.0966,-2.0718,-2.0376,-2.0059,-2.0059,-2.0254,-2.0566,-2.0177,-1.9942,-1.9863,-1.9469,-1.9301,-1.9301,0.0,0.0,0.0,0.0,0.0,0.0,0.0,0.0,0.0,0.0,0.0,0.0,0.0,0.0,0.0,0.0,0.0,0.0,0.0,0.0,0.0,0.0,-4.4587,-4.4587,-4.4587,-4.4587,-4.4587,-4.4587,-4.4587,-4.4587,-4.4587,-4.4587,-4.4587,-4.4587,-4.4587,-4.4587,-4.4587,-4.4587,-4.413,-4.3386,-4.3031,-4.2202,-4.117,-4.0798,-4.0409,-4.007,-4.007,0.0,0.0,0.0,0.0,0.0,0.0,0.0,-3.7013,-3.7298,-3.7194,-3.7074,0.0,0.0,0.0,0.0,0.0,0.0,0.0,0.0,0.0,0.0,0.0,0.0,0.0,0.0,0.0,0.0,0.0,0.0,0.0,0.0,0.0,0.0,0.0,0.0,0.0,0.0,0.0,0.0,0.0,0.0,0.0,0.0,0.0,0.0,-2.3288,-2.3078,-2.3078,-2.3078,-2.3017,-2.2909,-2.2739,-2.2359,-2.1788,-2.1533,-2.097,-2.0079,-1.9737,-1.9561,-1.9609,-1.9609,-1.9798,-2.011,-1.9725,-1.9693,-1.9715,-1.9381,-1.9301,-1.9301,0.0,0.0,0.0,0.0,0.0,0.0,0.0,0.0,0.0,0.0,0.0,0.0,0.0,0.0,0.0,0.0,0.0,0.0,0.0,0.0,0.0,0.0,-4.4587,-4.4587,-4.4587,-4.4587,-4.4587,-4.4587,0.0,0.0,0.0,-4.4587,-4.4587,-4.4587,-4.4587,-4.4587,-4.4587,-4.4587,-4.4045,-4.3166,-4.254,-4.1779,-4.0967,-4.046,-4.0273,-4.029,-4.0409,-4.0375,-4.0273,-4.0155,0.0,0.0,0.0,0.0,-3.7238,-3.7238,-3.6892,-3.6492,0.0,0.0,0.0,0.0,0.0,0.0,0.0,0.0,0.0,0.0,0.0,0.0,0.0,0.0,0.0,0.0,0.0,0.0,0.0,0.0,0.0,0.0,0.0,0.0,0.0,0.0,0.0,0.0,0.0,0.0,0.0,0.0,-2.3078,-2.3078,-2.3078,-2.3078,-2.3078,-2.3078,-2.3017,-2.2909,-2.2739,-2.2099,-2.1071,-2.042,-1.9918,-1.9545,-1.8805,-1.8779,-1.918,-1.918,-1.9286,-1.9439,-1.9222,-1.9324,-1.9455,-1.9279,-1.9246,-1.9301,0.0,0.0,0.0,0.0,0.0,0.0,0.0,0.0,0.0,0.0,0.0,0.0,0.0,0.0,0.0,0.0,0.0,0.0,0.0,0.0,0.0,0.0,-4.4587,-4.4587,-4.4587,-4.4587,-4.4587,-4.4587,0.0,0.0,0.0,0.0,0.0,-4.4587,0.0,-4.4587,-4.4587,-4.4587,-4.3758,-4.2439,-4.2337,-4.1474,-4.029,-4.0849,-4.1052,-4.1136,-4.1779,-4.1593,-4.0983,-4.0458,-3.9468,0.0,0.0,0.0,-3.6616,-3.6616,-3.6554,-3.6492,0.0,0.0,0.0,0.0,0.0,0.0,0.0,0.0,0.0,0.0,0.0,0.0,0.0,0.0,0.0,0.0,0.0,0.0,0.0,0.0,0.0,0.0,0.0,0.0,0.0,0.0,0.0,0.0,0.0,0.0,0.0,-2.3522,-2.3078,-2.3078,-2.3078,-2.3078,-2.3078,-2.3078,-2.3017,-2.2909,-2.2604,-2.1963,-2.1071,-2.042,-1.9736,-1.907,-1.8349,-1.833,-1.866,-1.8608,-1.8716,-1.9017,-1.8638,-1.8732,-1.9096,-1.8865,-1.9008,-1.9301,0.0,0.0,0.0,0.0,0.0,0.0,0.0,0.0,0.0,0.0,0.0,0.0,0.0,0.0,0.0,0.0,0.0,0.0,0.0,0.0,0.0,-4.4587,-4.4587,-4.4587,-4.4587,-4.4587,-4.4587,0.0,0.0,0.0,0.0,-4.4587,-4.4587,0.0,0.0,0.0,-4.4553,-4.4113,-4.3538,-4.2878,-4.2472,-4.1897,-4.1356,-4.1677,-4.1813,-4.1863,-4.2168,-4.2083,-4.176,-4.1513,-4.0271,-3.8893,-3.8605,0.0,0.0,0.0,-3.6289,0.0,0.0,0.0,0.0,0.0,0.0,0.0,0.0,0.0,0.0,0.0,0.0,0.0,0.0,0.0,0.0,0.0,0.0,0.0,0.0,0.0,0.0,0.0,0.0,0.0,0.0,0.0,0.0,0.0,0.0,0.0,-2.3424,-2.3138,-2.3017,-2.3078,-2.3078,-2.3078,-2.3078,-2.3078,-2.2763,-2.2199,-2.1963,-2.1388,-2.0549,-1.9835,-1.9309,-1.8977,-1.8269,-1.8115,-1.8291,-1.8232,-1.8264,-1.8505,-1.8278,-1.8313,-1.8478,-1.8632,-1.8825,-1.8999,0.0,0.0,0.0,0.0,0.0,0.0,0.0,0.0,0.0,0.0,0.0,0.0,0.0,0.0,0.0,0.0,0.0,0.0,0.0,0.0,0.0,-4.4587,-4.4587,-4.4587,-4.4587,-4.4587,0.0,0.0,0.0,0.0,-4.4587,-4.4587,-4.4587,0.0,-4.4587,-4.4587,0.0,0.0,-4.3606,-4.3369,-4.2811,-4.2472,-4.2303,-4.2506,-4.2574,-4.2608,-4.2794,-4.2743,-4.2574,-4.2395,-4.1087,-3.9531,-3.9178,-3.7822,0.0,0.0,0.0,0.0,0.0,0.0,0.0,0.0,0.0,0.0,0.0,0.0,0.0,0.0,0.0,0.0,0.0,0.0,0.0,0.0,0.0,0.0,0.0,0.0,0.0,0.0,0.0,0.0,0.0,0.0,0.0,0.0,0.0,0.0,-2.2848,-2.2848,-2.2909,-2.3017,-2.3017,-2.3017,-2.3017,-2.3017,-2.258,-2.1815,-2.1702,-2.1325,-2.0624,-1.9694,-1.9309,-1.9243,-1.8395,-1.8008,-1.8008,-1.794,-1.7918,-1.7925,-1.7915,-1.7884,-1.8018,-1.8412,-1.8623,-1.877,0.0,0.0,0.0,0.0,0.0,0.0,0.0,0.0,0.0,0.0,0.0,0.0,-4.457,-4.457,-4.4587,-4.4587,0.0,0.0,0.0,0.0,0.0,-4.4587,-4.4587,0.0,-4.4587,-4.4587,0.0,0.0,0.0,0.0,-4.4587,-4.4587,-4.4587,-4.4587,-4.4587,-4.4587,-4.4587,0.0,0.0,0.0,0.0,-4.2929,-4.2371,-4.3081,-4.3352,-4.3453,-4.4198,-4.3995,-4.3242,-4.2632,-4.135,-3.9831,-3.8586,-3.7621,-3.6838,0.0,0.0,0.0,0.0,0.0,0.0,0.0,0.0,0.0,0.0,0.0,0.0,0.0,0.0,0.0,0.0,0.0,0.0,0.0,0.0,0.0,0.0,0.0,0.0,0.0,0.0,0.0,0.0,0.0,0.0,0.0,0.0,0.0,-2.2678,-2.2678,-2.2678,-2.2739,-2.286,-2.2848,-2.2739,-2.2739,-2.2616,-2.2359,-2.2359,-2.2235,-2.2061,-2.0688,-2.0031,-1.9977,-1.8596,-1.8008,-1.8008,-1.7784,-1.7666,-1.7499,-1.7342,-1.7385,-1.7578,-1.7999,-1.8394,-1.877,0.0,0.0,0.0,0.0,0.0,0.0,0.0,0.0,0.0,0.0,0.0,0.0,0.0,-4.4514,-4.4587,-4.4587,-4.4587,0.0,0.0,0.0,0.0,-4.4587,-4.4587,-4.4587,-4.4587,-4.4587,0.0,0.0,0.0,-4.4384,-4.4286,-4.4286,-4.4286,-4.4286,-4.4514,-4.4587,-4.4553,-4.4045,0.0,0.0,0.0,0.0,-4.3792,-4.4062,0.0,0.0,0.0,0.0,0.0,0.0,-4.2087,-4.0633,-3.9708,-3.8253,-3.6673,-3.5879,-3.5683,0.0,0.0,0.0,0.0,0.0,0.0,0.0,0.0,0.0,0.0,0.0,0.0,0.0,0.0,0.0,0.0,0.0,0.0,0.0,0.0,0.0,0.0,0.0,0.0,0.0,0.0,0.0,0.0,0.0,0.0,0.0,-2.2482,-2.2494,-2.2555,-2.269,-2.286,-2.2848,-2.286,-2.2739,-2.2359,-2.1776,-2.1776,-2.1463,-2.0816,-2.0302,-2.0096,-2.0042,-1.9044,-1.8395,-1.8008,-1.794,-1.7735,-1.747,-1.7392,-1.7269,-1.7165,-1.7568,-1.7981,-1.8394,0.0,0.0,0.0,0.0,0.0,0.0,0.0,0.0,0.0,0.0,0.0,0.0,0.0,0.0,-4.4514,-4.457,-4.4587,-4.4587,-4.4587,-4.4587,-4.4587,-4.4587,-4.4514,-4.4497,-4.4497,0.0,0.0,0.0,0.0,0.0,0.0,-4.3638,-4.3756,-4.3756,-4.4196,-4.4457,0.0,0.0,0.0,-4.4536,0.0,0.0,-4.4587,0.0,0.0,0.0,0.0,0.0,0.0,0.0,0.0,0.0,-4.0075,-3.8274,-3.6475,-3.5699,-3.5504,0.0,-3.5589,0.0,0.0,0.0,0.0,0.0,0.0,0.0,0.0,0.0,0.0,0.0,0.0,0.0,0.0,0.0,0.0,0.0,0.0,0.0,0.0,0.0,0.0,0.0,0.0,0.0,0.0,0.0,0.0,0.0,-2.2297,-2.2297,-2.2432,-2.2616,-2.2665,-2.2665,-2.2726,-2.2665,-2.2297,-2.1651,-2.1714,-2.1388,-2.0816,-2.0549,-2.042,-2.0355,-1.9441,-1.8721,-1.8337,-1.8076,-1.7803,-1.747,-1.747,-1.7254,-1.6954,-1.7348,-1.7761,-1.8183,0.0,0.0,0.0,0.0,0.0,0.0,0.0,0.0,0.0,-4.3763,0.0,0.0,0.0,0.0,0.0,-4.457,-4.4587,-4.4587,-4.4587,-4.457,-4.457,-4.457,0.0,0.0,0.0,0.0,0.0,0.0,0.0,0.0,0.0,0.0,-4.2998,-4.2998,-4.3756,-4.4155,-4.431,0.0,-4.457,-4.457,0.0,-4.4587,-4.4587,0.0,0.0,0.0,-4.457,-4.444,0.0,-4.2707,0.0,0.0,0.0,0.0,-3.6387,-3.5729,-3.5519,0.0,0.0,0.0,0.0,0.0,0.0,0.0,0.0,0.0,0.0,0.0,0.0,0.0,0.0,0.0,0.0,0.0,0.0,0.0,0.0,0.0,0.0,0.0,0.0,0.0,0.0,0.0,0.0,0.0,0.0,-2.2197,-2.2197,-2.2197,-2.2247,-2.242,-2.2247,-2.2247,-2.242,-2.242,-2.2297,-2.2197,-2.2297,-2.2297,-2.2197,-2.1463,-2.1123,-2.106,-1.9628,-1.9044,-1.8977,-1.8269,-1.7803,-1.747,-1.747,-1.7254,-1.6954,-1.7339,-1.7752,-1.8183,0.0,0.0,0.0,0.0,0.0,0.0,0.0,0.0,0.0,0.0,0.0,0.0,-4.3998,-4.4196,-4.4367,-4.457,-4.4587,-4.4587,-4.4587,-4.444,-4.4367,-4.4367,-4.3722,0.0,0.0,0.0,0.0,0.0,0.0,0.0,0.0,0.0,0.0,0.0,-4.3064,-4.3459,-4.4056,-4.427,0.0,-4.4384,-4.4514,-4.4587,0.0,0.0,0.0,0.0,0.0,-4.4064,-4.3426,0.0,-4.1609,-4.0702,0.0,0.0,0.0,0.0,0.0,0.0,-3.5504,0.0,0.0,0.0,0.0,0.0,0.0,0.0,0.0,0.0,0.0,0.0,0.0,0.0,0.0,0.0,0.0,0.0,0.0,0.0,0.0,0.0,0.0,0.0,0.0,0.0,0.0,0.0,-2.2197,-2.2197,-2.2197,-2.2197,-2.2247,-2.242,-2.2247,-2.2247,-2.242,-2.2309,-2.2247,-2.2197,-2.2247,-2.2247,-2.2185,-2.1987,-2.1925,-2.1862,-2.0933,-2.0139,-1.9475,-1.8307,-1.7657,-1.747,-1.7314,-1.7116,-1.6917,-1.7027,-1.7513,-1.8137,0.0,0.0,0.0,0.0,0.0,0.0,0.0,0.0,0.0,0.0,0.0,0.0,-4.3898,-4.4155,-4.431,-4.44,-4.444,-4.444,-4.44,-4.427,-4.4064,-4.3781,-4.3196,-4.2753,0.0,0.0,0.0,0.0,0.0,0.0,0.0,0.0,0.0,0.0,0.0,0.0,0.0,0.0,0.0,0.0,-4.4327,0.0,0.0,-4.44,-4.44,0.0,0.0,0.0,-4.2986,-4.2125,-4.108,0.0,0.0,0.0,0.0,0.0,0.0,0.0,-3.5504,0.0,0.0,0.0,0.0,0.0,-3.3616,-3.219,0.0,0.0,0.0,0.0,0.0,0.0,0.0,0.0,0.0,0.0,0.0,0.0,0.0,0.0,0.0,0.0,0.0,0.0,0.0,0.0,-2.18,-2.1862,-2.1987,-2.2123,-2.2247,-2.2309,-2.2247,-2.2247,-2.2309,-2.2247,-2.2197,-2.2197,-2.2197,-2.2197,-2.2197,-2.2197,-2.2197,-2.2135,-2.14,-2.0719,-1.9987,-1.8623,-1.7774,-1.7392,-1.7235,-1.7107,-1.6908,-1.6908,-1.7312,-1.7889,0.0,0.0,0.0,0.0,0.0,0.0,0.0,0.0,0.0,0.0,-4.3096,-4.3704,-4.3898,-4.4097,-4.4196,-4.4097,-4.4196,-4.4196,-4.4097,-4.4039,-4.368,-4.2998,-4.2707,-4.2269,0.0,0.0,0.0,0.0,0.0,0.0,0.0,0.0,0.0,0.0,0.0,0.0,0.0,0.0,0.0,-4.4039,-4.4097,-4.4097,0.0,0.0,-4.4097,-4.4097,-4.4097,-4.3443,-4.252,-4.1723,-4.05,0.0,0.0,0.0,0.0,0.0,-3.6073,0.0,0.0,-3.5424,-3.5213,0.0,0.0,0.0,-3.2434,-3.1276,-3.0267,0.0,0.0,0.0,0.0,0.0,0.0,0.0,0.0,0.0,0.0,0.0,0.0,0.0,0.0,0.0,0.0,0.0,-2.1158,-2.1221,-2.1221,-2.1411,-2.1651,-2.1987,-2.2185,-2.2247,-2.2259,-2.2259,-2.2247,-2.2259,-2.2197,-2.2197,-2.2197,-2.2197,-2.2197,-2.2197,-2.2197,-2.2185,-2.1463,-2.0933,-2.0462,-1.9156,-1.8104,-1.7304,-1.7166,-1.7038,-1.6908,-1.6908,-1.7156,-1.7559,-3.8782,0.0,0.0,0.0,0.0,0.0,0.0,0.0,0.0,0.0,-4.2834,-4.3704,-4.3898,-4.3956,-4.3998,-4.4097,-4.4097,-4.4155,-4.4097,-4.3443,-4.2986,-4.2847,-4.1625,-4.0857,-4.0737,0.0,0.0,0.0,0.0,0.0,0.0,0.0,0.0,0.0,0.0,0.0,0.0,0.0,0.0,-4.3747,-4.3981,0.0,-4.4097,-4.4097,-4.4097,-4.4114,-4.3998,-4.308,-4.1723,0.0,-3.9681,-3.9394,0.0,0.0,0.0,0.0,0.0,0.0,0.0,0.0,0.0,0.0,0.0,0.0,-3.229,-3.1531,-3.0683,0.0,0.0,0.0,0.0,0.0,0.0,0.0,0.0,0.0,0.0,0.0,0.0,0.0,0.0,0.0,0.0,0.0,-2.0828,-2.1169,-2.1474,-2.1651,-2.1714,-2.1987,-2.2371,-2.2726,-2.2371,-2.2371,-2.2726,-2.2371,-2.2197,-2.2197,-2.2197,-2.2197,-2.2197,-2.2197,-2.2197,-2.2185,-2.1788,-2.1123,-2.0333,-1.9759,-1.8854,-1.7803,-1.7176,-1.6908,-1.6908,-1.6908,-1.7156,-1.7487,-3.8943,0.0,0.0,0.0,0.0,0.0,0.0,0.0,0.0,-4.1008,-4.2253,-4.3113,-4.3235,-4.3628,-4.3898,-4.3864,-4.3939,-4.3805,-4.3399,-4.2941,-4.2427,-4.169,-4.0925,-4.0355,-3.995,-3.9625,0.0,0.0,0.0,0.0,0.0,0.0,0.0,0.0,0.0,0.0,0.0,0.0,-4.2772,-4.3174,-4.3671,0.0,-4.3864,-4.3864,-4.3864,-4.3864,-4.3747,-4.2818,-4.1362,-3.9879,-3.9424,0.0,0.0,-3.8497,-3.7404,0.0,-3.6507,-3.5424,0.0,0.0,0.0,-3.3408,0.0,0.0,0.0,-3.1076,-3.036,0.0,0.0,0.0,0.0,0.0,0.0,0.0,0.0,0.0,0.0,0.0,0.0,0.0,0.0,0.0,0.0,0.0,-2.0453,-2.0658,-2.0955,-2.121,-2.1411,-2.18,-2.2235,-2.2848,-2.2678,-2.2775,-2.3245,-2.2775,-2.2555,-2.2555,-2.2309,-2.2197,-2.2197,-2.2197,-2.2197,-2.2185,-2.1851,-2.1325,-2.0677,-2.0031,-1.9386,-1.8586,-1.7647,-1.7304,-1.7235,-1.6978,-1.6888,-1.6902,-3.9031,0.0,0.0,0.0,0.0,0.0,0.0,0.0,0.0,-4.0684,-4.1656,-4.238,-4.238,0.0,0.0,0.0,0.0,0.0,0.0,0.0,0.0,-4.0547,-4.0339,-4.0021,-3.9409,-3.9424,0.0,0.0,0.0,0.0,0.0,0.0,0.0,0.0,0.0,0.0,0.0,0.0,0.0,-4.2443,0.0,-4.3355,-4.3628,-4.3628,-4.3628,-4.3552,-4.3295,-4.2443,-4.126,-3.9879,0.0,-3.9424,-3.9424,-3.8497,0.0,0.0,0.0,0.0,0.0,0.0,0.0,0.0,0.0,-3.1736,0.0,0.0,0.0,0.0,0.0,0.0,0.0,0.0,0.0,0.0,0.0,0.0,0.0,0.0,0.0,0.0,0.0,0.0,0.0,0.0,-2.0085,-2.0085,-2.0388,-2.0775,-2.1094,-2.1588,-2.2149,-2.2896,-2.3017,-2.3245,-2.3754,-2.3245,-2.3017,-2.3017,-2.2555,-2.2309,-2.2309,-2.2247,-2.2185,-2.2061,-2.1726,-2.1411,-2.1031,-2.0183,-1.9715,-1.9375,-1.824,-1.7774,-1.7638,-1.7107,-1.6691,-1.6334,-3.9031,-3.9265,0.0,0.0,0.0,0.0,0.0,0.0,0.0,0.0,0.0,0.0,0.0,0.0,0.0,0.0,0.0,0.0,-4.1656,0.0,0.0,0.0,0.0,0.0,-3.9424,-3.9424,-3.9424,0.0,0.0,0.0,0.0,0.0,0.0,0.0,-3.9481,0.0,0.0,0.0,-4.1075,0.0,-4.1722,-4.2506,0.0,-4.3628,-4.3628,-4.3432,-4.2173,-4.1656,-4.126,0.0,-3.9424,-3.9424,0.0,-3.8497,-3.7404,0.0,0.0,0.0,0.0,0.0,0.0,0.0,-3.1603,0.0,0.0,0.0,0.0,0.0,0.0,0.0,0.0,0.0,0.0,0.0,0.0,0.0,0.0,0.0,0.0,0.0,0.0,0.0,0.0,0.0,0.0,-2.0085,-2.0388,-2.0635,-2.0646,-2.169,-2.2555,-2.3027,-2.3399,-2.3754,-2.4234,-2.3754,-2.3518,-2.3518,-2.3017,-2.2787,-2.2787,-2.2371,-2.2061,-2.1726,-2.1411,-2.1031,-2.0646,-2.0205,-2.0074,-1.9878,-1.8844,-1.8104,-1.7638,-1.7217,-1.6751,-1.6263,-3.9031,-3.9265,0.0,0.0,0.0,0.0,0.0,0.0,0.0,0.0,0.0,0.0,0.0,0.0,0.0,0.0,0.0,-4.1327,0.0,0.0,-4.0285,0.0,0.0,0.0,0.0,-3.9424,-3.9424,0.0,-3.9424,0.0,0.0,0.0,0.0,0.0,-3.9424,0.0,-3.9879,0.0,-4.0668,0.0,0.0,0.0,0.0,-4.2834,-4.3035,-4.2912,-4.1852,-4.126,-4.0737,0.0,-3.9424,0.0,0.0,0.0,0.0,0.0,0.0,0.0,0.0,0.0,0.0,0.0,0.0,0.0,-3.0986,0.0,-3.068,0.0,0.0,0.0,0.0,0.0,0.0,0.0,0.0,0.0,0.0,0.0,0.0,0.0,0.0,0.0,0.0,0.0,0.0,0.0,0.0,-2.0388,-2.0571,-2.1071,-2.1865,-2.3088,-2.3267,-2.3754,-2.4708,-2.4234,-2.3872,-2.3577,-2.3412,-2.3125,-2.2909,-2.2665,-2.2408,-2.2075,-2.1463,-2.0967,-2.0571,-2.027,-2.0085,-2.0085,-1.9594,-1.8921,-1.8104,-1.7345,-1.6664,-1.5929,-3.8943,0.0,0.0,0.0,0.0,0.0,0.0,0.0,0.0,0.0,0.0,0.0,-4.1061,-4.1326,0.0,0.0,-4.1501,-4.0938,0.0,0.0,-3.995,0.0,0.0,0.0,0.0,0.0,0.0,0.0,0.0,0.0,0.0,0.0,0.0,0.0,0.0,-3.9424,-3.9424,0.0,0.0,-4.0216,-4.0737,-4.1075,-4.1327,-4.2045,-4.2317,-4.219,-4.1459,-4.094,-4.0393,-3.947,-3.914,0.0,-3.8332,0.0,0.0,0.0,0.0,0.0,-3.3073,0.0,0.0,0.0,0.0,0.0,0.0,0.0,0.0,0.0,0.0,0.0,0.0,0.0,0.0,0.0,0.0,0.0,0.0,0.0,0.0,0.0,0.0,0.0,0.0,0.0,0.0,0.0,-2.0074,0.0,-2.0453,-2.0816,-2.1604,-2.2834,-2.3327,-2.3989,-2.4948,-2.465,-2.435,-2.3989,-2.3872,-2.359,-2.3258,-2.303,-2.2653,-2.2249,-2.1526,-2.0903,-2.0453,-2.0205,-2.0085,-2.0085,-2.0085,-1.9539,-1.8509,-1.755,-1.6524,-1.5551,-3.8782,-3.8943,0.0,0.0,0.0,0.0,0.0,0.0,0.0,0.0,0.0,0.0,0.0,0.0,0.0,0.0,0.0,-4.0171,-3.9454,0.0,-3.9409,0.0,0.0,-3.9424,0.0,0.0,0.0,0.0,0.0,0.0,0.0,0.0,0.0,0.0,0.0,-3.9424,-3.9424,-3.9424,-3.9424,-3.9424,-3.9481,-3.9879,-4.0615,0.0,-4.1525,-4.1459,-4.0737,0.0,0.0,-3.8913,-3.8422,0.0,0.0,0.0,0.0,0.0,0.0,0.0,0.0,0.0,0.0,-3.0898,0.0,0.0,0.0,0.0,-3.0432,0.0,0.0,0.0,0.0,0.0,-2.715,-2.6734,0.0,0.0,0.0,0.0,0.0,0.0,0.0,0.0,0.0,0.0,0.0,-1.9868,-1.9933,0.0,-2.0074,-2.1479,-2.2274,-2.2335,-2.3917,-2.4778,-2.4778,-2.4892,-2.4948,-2.4948,-2.4465,-2.4292,-2.4234,-2.3318,-2.2519,-2.1877,-2.14,-2.0786,-2.0151,-2.0085,-2.0085,-2.0085,-2.0085,-1.9671,-1.8931,-1.7813,-1.6446,-1.5133,0.0,0.0,0.0,0.0,0.0,0.0,0.0,-3.9424,0.0,0.0,0.0,0.0,0.0,-4.125,-4.1294,0.0,0.0,-4.0127,-3.9469,-3.9424,0.0,0.0,0.0,-3.9424,0.0,0.0,0.0,0.0,0.0,0.0,0.0,0.0,0.0,0.0,0.0,-3.9424,0.0,0.0,0.0,0.0,0.0,-3.9553,-3.9879,0.0,0.0,-4.0805,-4.0615,-3.991,0.0,-3.8522,-3.8108,-3.7629,-3.7,-3.6109,-3.5238,-3.4748,-3.3648,0.0,0.0,0.0,-3.1259,-3.0672,0.0,0.0,0.0,0.0,0.0,0.0,0.0,0.0,0.0,0.0,-2.7076,-2.6439,-2.529,0.0,0.0,0.0,0.0,0.0,0.0,0.0,0.0,0.0,0.0,-1.9868,-1.9868,-1.9944,0.0,-2.0571,-2.1302,-2.2274,-2.2822,-2.3623,-2.4677,-2.4778,-2.4721,-2.4421,-2.465,-2.4593,-2.4292,-2.3897,-2.3233,-2.2359,-2.1753,-2.0955,-2.0085,-2.0085,-2.0085,-2.0074,-2.0009,-1.9462,-1.8576,-1.7745,-1.6784,-1.5824,-3.8597,0.0,0.0,0.0,0.0,0.0,0.0,0.0,0.0,0.0,-3.9993,0.0,-4.0995,0.0,-4.128,0.0,-4.0651,-4.0127,-3.9469,-3.9424,0.0,-3.9424,-3.9119,0.0,0.0,0.0,0.0,0.0,0.0,-3.8159,0.0,0.0,0.0,0.0,0.0,0.0,-3.9424,0.0,-3.9424,0.0,0.0,-3.9424,0.0,0.0,-4.0478,-4.0045,0.0,-3.9158,-3.8317,-3.7868,-3.7434,-3.6903,-3.603,-3.5171,-3.4421,-3.373,-3.2635,-3.1663,-3.1455,-3.1185,0.0,-3.0368,-3.0381,0.0,-3.0228,0.0,0.0,0.0,0.0,0.0,0.0,0.0,0.0,-2.6275,-2.4976,-2.3756,0.0,-2.1838,0.0,0.0,0.0,0.0,0.0,0.0,-1.9959,-2.0162,-2.0079,-2.0182,0.0,0.0,-2.1376,-2.2531,-2.2882,-2.3505,-2.4492,-2.4664,-2.4607,-2.4305,-2.4664,-2.4721,-2.4421,-2.4131,-2.3458,-2.247,-2.1865,-2.1008,-2.0085,-2.0085,-2.0085,-2.0085,-1.9933,-1.9462,-1.8777,-1.7959,-1.7001,-1.6035,0.0,0.0,0.0,0.0,-3.9339,0.0,0.0,0.0,-3.9424,0.0,-3.9993,-4.0397,-4.0397,-4.0995,-4.1115,-4.0457,-4.0397,0.0,-3.9469,-3.9424,0.0,0.0,-3.859,-3.8023,-3.7753,0.0,0.0,0.0,0.0,0.0,0.0,0.0,0.0,0.0,-3.8782,0.0,-3.9307,-3.9307,-3.9322,-3.9424,-3.9424,-3.9394,-3.9364,-3.9364,0.0,-3.923,-3.8616,-3.8347,-3.8108,-3.6896,-3.6462,-3.6164,-3.4718,-3.3754,-3.3003,-3.229,-3.1529,-3.0911,-3.0698,-3.0698,-3.0622,-3.0164,0.0,0.0,0.0,0.0,-2.9792,0.0,0.0,0.0,0.0,0.0,0.0,-2.6287,-2.4915,-2.3463,0.0,0.0,0.0,0.0,0.0,0.0,0.0,-2.042,-2.0492,-2.0705,-2.0456,0.0,0.0,0.0,0.0,-2.3103,-2.3865,-2.4274,-2.4332,-2.4505,-2.462,-2.462,-2.462,-2.462,-2.4563,-2.4086,-2.328,-2.2274,-2.1791,-2.106,-2.0085,-2.0085,-2.0085,-2.0074,-1.9933,-1.9736,-1.9473,-1.8519,-1.7207,-1.5833,-3.8571,-3.9679,-4.0407,0.0,-4.0248,-4.0142,0.0,0.0,0.0,0.0,-3.9993,-4.0397,-4.0397,-4.0995,-4.1115,-4.0457,-4.0397,0.0,0.0,0.0,0.0,-3.8501,-3.8098,-3.7601,-3.688,-3.654,0.0,-3.629,0.0,0.0,-3.5453,0.0,0.0,0.0,0.0,0.0,-3.8263,-3.8263,-3.8616,-3.9177,-3.9177,-3.8952,0.0,0.0,-3.8347,-3.7973,-3.8272,-3.7778,-3.6926,-3.6596,-3.577,-3.4747,-3.4221,-3.3185,-3.2074,-3.1723,-3.1158,-3.052,-3.0305,-3.0381,-3.0381,-3.0011,-3.0011,-3.0088,0.0,0.0,0.0,0.0,0.0,0.0,0.0,0.0,0.0,0.0,-2.3893,0.0,0.0,0.0,0.0,0.0,0.0,0.0,-2.0493,-2.042,-2.0492,-2.0705,-2.067,0.0,0.0,0.0,0.0,-2.3539,-2.3866,-2.4291,-2.4799,-2.453,-2.4363,-2.4363,-2.4549,-2.462,-2.462,-2.4305,-2.3505,-2.2274,-2.2101,-2.125,-2.0085,-2.0085,-2.0009,-1.9944,-1.9736,-1.9473,-1.9131,-1.8307,-1.707,-1.5833,-3.8152,0.0,0.0,-4.1374,0.0,0.0,-4.065,0.0,0.0,-3.9858,-3.9918,0.0,-3.9963,-4.0307,-4.0367,-4.0008,-3.9963,0.0,-3.8914,0.0,0.0,-3.7553,-3.6972,-3.6411,-3.5775,-3.5359,0.0,-3.4966,0.0,0.0,-3.3966,0.0,0.0,0.0,0.0,-3.6202,0.0,-3.7664,-3.8309,-3.8929,-3.8662,0.0,0.0,-3.7868,-3.7347,-3.6758,-3.6821,-3.6719,-3.6432,-3.577,-3.4902,-3.4027,-3.3255,-3.242,-3.1576,-3.1158,-3.0722,-3.0368,-3.0152,-3.0152,-3.0165,-2.9554,-2.9491,-2.9492,-2.9114,-2.9239,-2.9338,0.0,0.0,0.0,0.0,0.0,0.0,0.0,0.0,0.0,0.0,0.0,0.0,0.0,-2.1807,0.0,-2.1073,-2.1031,-2.1031,-2.1167,0.0,0.0,0.0,0.0,0.0,-2.4551,-2.4722,-2.4841,-2.4975,-2.4741,-2.4439,-2.4203,-2.4332,-2.439,-2.439,-2.4261,-2.3636,-2.264,-2.2286,-2.1502,-2.0518,-2.0205,-2.0009,-1.9868,-1.9605,-1.9341,-1.9065,-1.8654,-1.7765,-1.6724,0.0,0.0,0.0,0.0,0.0,0.0,0.0,-4.0238,0.0,-3.9995,0.0,-3.9104,-3.9031,-3.9104,-3.9192,-3.9031,0.0,-3.8723,-3.8037,-3.7947,-3.7462,-3.6411,-3.5615,-3.4979,-3.4511,-3.3953,0.0,0.0,0.0,0.0,0.0,0.0,0.0,0.0,0.0,0.0,0.0,-3.6823,-3.774,0.0,-3.7652,-3.7533,-3.7544,-3.6884,-3.6182,-3.5541,-3.4891,-3.5336,-3.5904,-3.4569,-3.3891,-3.3463,-3.2132,-3.1502,-3.122,-3.0508,-3.0292,-3.0279,-2.9986,-2.9961,-2.9758,-2.8963,-2.8825,-2.8699,-2.821,-2.8399,-2.8411,-2.769,-2.7831,0.0,0.0,0.0,0.0,0.0,0.0,0.0,0.0,0.0,0.0,0.0,0.0,0.0,0.0,-2.1807,0.0,0.0,0.0,0.0,0.0,0.0,0.0,0.0,-2.5905,0.0,-2.5258,0.0,-2.4726,-2.423,-2.4151,-2.4112,-2.4112,-2.4112,-2.3734,-2.3088,-2.2408,-2.1741,-2.1008,-2.0324,-1.9944,-1.9802,-1.9417,-1.9208,-1.9075,-1.9075,-1.8654,-1.7901,0.0,0.0,0.0,0.0,0.0,-3.9518,-3.974,-3.8518,-3.7728,-3.7873,-3.7896,-3.7677,-3.7127,-3.7706,-3.7857,-3.7127,-3.7112,0.0,0.0,0.0,0.0,-3.5305,-3.4979,-3.4428,-3.3641,-3.3313,-3.3154,0.0,0.0,0.0,0.0,0.0,0.0,0.0,0.0,0.0,-3.3518,-3.4361,0.0,-3.6011,-3.5278,-3.5438,-3.6148,-3.5447,-3.479,-3.416,-3.4023,-3.4091,-3.4146,-3.3213,-3.2478,-3.1856,-3.1402,-3.0846,-3.0292,-3.0011,-2.9934,-2.9756,-2.9277,-2.9076,-2.8938,-2.8386,-2.8247,-2.8222,-2.8134,-2.7619,-2.7209,-2.7046,-2.6612,-2.6198,-2.5951,0.0,0.0,0.0,0.0,0.0,0.0,0.0,0.0,0.0,0.0,0.0,0.0,0.0,0.0,0.0,0.0,0.0,0.0,0.0,0.0,0.0,0.0,0.0,0.0,0.0,0.0,-2.4818,-2.4347,-2.4112,-2.4112,-2.4112,-2.3734,-2.3088,-2.2408,-2.169,-2.0892,-2.0194,-1.9747,-1.9417,-1.9208,-1.9142,-1.9075,-1.9075,-1.8654,-1.7949,0.0,0.0,0.0,0.0,0.0,0.0,0.0,-3.6883,0.0,-3.7566,-3.7219,-3.6696,-3.6462,-3.6788,-3.6866,-3.6462,-3.6383,-3.6239,-3.5775,-3.5682,-3.5129,-3.4191,-3.4108,0.0,-3.324,-3.3154,-3.3081,-3.3081,0.0,0.0,0.0,0.0,0.0,0.0,0.0,-3.166,0.0,0.0,0.0,-3.4668,-3.3888,-3.3956,-3.4313,-3.3633,-3.3197,-3.2861,-3.242,-3.2263,-3.2263,-3.206,-3.1696,-3.1267,-3.0771,-3.0279,-2.9883,-2.9428,-2.934,-2.9214,-2.8649,-2.8499,-2.8373,-2.7821,-2.7381,-2.7004,-2.6721,-2.6262,-2.5773,-2.5309,-2.5145,-2.487,-2.4238,-2.3339,0.0,0.0,0.0,0.0,0.0,0.0,0.0,0.0,0.0,0.0,0.0,0.0,0.0,0.0,0.0,0.0,0.0,0.0,0.0,0.0,0.0,0.0,0.0,0.0,0.0,-2.5022,-2.4687,-2.44,-2.4112,-2.4112,-2.3923,-2.3543,-2.2482,-2.1753,-2.1325,-2.0118,-1.9473,-1.9285,-1.9142,-1.9075,-1.9075,-1.9075,-1.8654,-1.7959,0.0,-3.7546,0.0,0.0,-3.7873,0.0,-3.6767,-3.5494,-3.5225,-3.7074,-3.6443,-3.5734,-3.5654,-3.5734,-3.5828,-3.5654,-3.5574,-3.5359,-3.4664,-3.4581,-3.4191,-3.3398,-3.3313,-3.324,-3.3081,-3.3081,-3.3081,0.0,0.0,0.0,0.0,0.0,0.0,0.0,0.0,0.0,0.0,0.0,-3.2751,-3.3279,-3.2595,-3.2482,-3.2725,-3.2104,-3.1856,-3.1783,-3.1119,-3.0742,-3.0501,-3.0813,-3.0874,-3.0651,-3.0024,-2.9669,-2.9352,-2.8888,-2.875,-2.8637,-2.8084,-2.7776,-2.7578,-2.703,-2.6285,-2.5588,-2.5099,-2.4818,-2.4367,-2.3688,-2.3765,-2.3606,-2.2564,-2.2056,0.0,0.0,0.0,0.0,0.0,0.0,0.0,0.0,0.0,0.0,0.0,0.0,0.0,0.0,0.0,0.0,0.0,0.0,0.0,0.0,0.0,-2.7181,-2.6857,0.0,-2.6164,0.0,-2.5027,-2.4661,-2.4112,-2.4112,-2.3995,-2.3734,-2.2433,-2.169,-2.125,-1.9857,-1.9274,-1.9285,-1.9142,-1.9075,-1.9075,-1.9075,-1.8654,-1.7969,0.0,0.0,0.0,0.0,0.0,0.0,0.0,-3.465,-3.4149,-3.4548,-3.4608,-3.4384,-3.3713,-3.4371,-3.4538,-3.3713,-3.3628,-3.3628,-3.3556,-3.3398,-3.324,-3.3154,-3.3154,-3.3167,-3.3081,-3.3081,-3.3081,0.0,0.0,0.0,0.0,0.0,0.0,0.0,0.0,0.0,0.0,-3.0087,-3.0534,-3.1127,-3.0381,-3.095,-3.2082,-3.1281,-3.1044,-3.097,-3.0895,-3.0134,-2.9076,-2.9151,-2.9139,-2.9076,-2.9001,-2.8662,-2.8247,-2.8197,-2.8185,-2.8059,-2.7507,-2.683,-2.6191,-2.5587,-2.4861,-2.425,-2.4204,-2.3666,-2.3141,-2.3067,-2.2498,-2.1987,-2.188,-2.1838,-2.1807,0.0,0.0,0.0,0.0,0.0,0.0,0.0,0.0,0.0,0.0,0.0,0.0,0.0,0.0,0.0,0.0,0.0,0.0,-2.6943,0.0,-2.7121,-2.7258,-2.6686,0.0,-2.5733,-2.521,-2.4661,-2.4112,-2.4112,-2.3662,-2.2895,-2.2175,-2.0996,-1.9539,-1.9208,-1.9142,-1.9142,-1.9075,-1.9075,-1.9075,-1.9075,-1.8654,-1.8018,0.0,0.0,0.0,0.0,0.0,0.0,0.0,-3.4186,-3.3784,-3.3606,-3.3636,-3.3484,-3.324,-3.3569,-3.3569,-3.324,-3.324,-3.324,-3.324,-3.3154,-3.3081,-3.3081,-3.3081,-3.3081,-3.3081,-3.2742,-3.2554,0.0,0.0,0.0,0.0,0.0,0.0,0.0,0.0,-2.9792,-2.9792,-2.9792,-2.9998,-3.0203,-2.9934,-3.0152,-3.0646,-3.0355,-2.9986,-2.968,-2.968,-2.9187,-2.8436,-2.8436,-2.8436,-2.8436,-2.8436,-2.8285,-2.8047,-2.7708,-2.7607,-2.7494,-2.6942,-2.6205,-2.5576,-2.536,-2.436,-2.3412,-2.3412,-2.2841,-2.2252,-2.2252,-2.2025,-2.1807,-2.1807,-2.1807,-2.1807,0.0,0.0,0.0,0.0,0.0,0.0,0.0,0.0,0.0,0.0,0.0,0.0,0.0,0.0,0.0,0.0,0.0,0.0,-2.6139,0.0,-2.6564,-2.7146,-2.6982,-2.6647,-2.6142,-2.5696,-2.5184,-2.4622,-2.4164,-2.3245,-2.1928,-2.169,-2.0677,-1.9208,-1.9142,-1.9075,-1.9075,-1.9075,-1.9075,-1.9075,-1.9075,-1.8654,-1.8096,-3.5303,0.0,-3.5755,0.0,-3.5165,-3.4801,-3.4022,-3.3759,-3.352,-3.3131,-3.3081,-3.3081,-3.3081,-3.3081,-3.3081,-3.3081,-3.3081,-3.3081,-3.3081,-3.2918,-3.283,-3.283,-3.2667,0.0,-3.2579,-3.2177,-3.1976,-3.1976,-3.1424,0.0,0.0,0.0,0.0,0.0,-2.9792,-2.9792,-2.9792,-2.9792,-2.9792,-2.9792,-2.9792,-2.9792,-2.9779,-2.9603,-2.9289,-2.89,-2.875,-2.8335,-2.7858,-2.7858,-2.7758,-2.7657,-2.7808,-2.7758,-2.7544,-2.6859,-2.6748,-2.659,-2.5972,-2.5229,-2.4587,-2.4587,-2.3644,-2.2628,-2.2628,-2.2176,-2.1807,-2.1807,-2.1807,-2.1807,-2.1807,-2.1807,-2.1807,-2.1807,0.0,0.0,0.0,0.0,0.0,0.0,-2.1807,-2.1807,-2.1807,0.0,0.0,0.0,0.0,0.0,0.0,0.0,0.0,0.0,0.0,0.0,0.0,-2.7066,-2.685,-2.6284,-2.5832,-2.5325,-2.4767,-2.3704,-2.2519,-2.1388,-2.0933,-2.0107,-1.9075,-1.9075,-1.9075,-1.9075,-1.9075,-1.9075,-1.9075,-1.9075,-1.8879,-1.8616,-3.4726,-3.4738,-3.4738,-3.4726,-3.4274,-3.3909,-3.3897,-3.3432,-3.3081,-3.3081,-3.3081,-3.3081,-3.3081,-3.3081,-3.3081,-3.3081,-3.3081,-3.3081,-3.3081,-3.2541,-3.2227,0.0,0.0,-3.1411,-3.1411,-3.1399,-3.1399,-3.1399,0.0,0.0,-3.0608,0.0,-2.9804,-2.9792,-2.9792,-2.9792,-2.9792,-2.9792,-2.9792,-2.9792,-2.9792,-2.9792,-2.9729,-2.9151,-2.8938,-2.885,-2.831,-2.7758,-2.7293,-2.7293,-2.6929,-2.6647,-2.7118,-2.6917,-2.6339,-2.5535,-2.5312,-2.517,-2.4337,-2.3559,-2.3001,-2.3001,-2.2402,-2.1807,-2.1807,-2.1807,-2.1807,-2.1807,-2.1807,-2.1807,-2.1807,-2.1807,-2.1807,-2.1807,0.0,0.0,0.0,0.0,0.0,0.0,-2.1807,-2.1807,-2.1807,0.0,0.0,0.0,0.0,0.0,0.0,0.0,0.0,-2.5229,-2.5312,0.0,-2.6714,-2.6726,-2.6502,-2.6127,-2.5563,-2.5012,-2.4325,-2.2315,-2.1388,-2.1325,-1.9781,-1.9142,-1.9075,-1.9075,-1.9075,-1.9075,-1.9075,-1.9075,-1.9075,-1.9075,-1.9354,-1.9751,-3.3006,-3.3332,-3.3608,-3.3608,-3.3131,-3.2754,-3.2754,-3.229,-3.1926,-3.1926,-3.1926,-3.1926,-3.1926,-3.2265,-3.234,0.0,-3.1926,-3.1926,0.0,-3.175,-3.165,-3.165,-3.1486,-3.1386,-3.1386,-3.1047,-3.0859,-3.0859,0.0,0.0,0.0,-2.988,-2.9792,-2.9792,-2.9792,-2.9792,-2.9792,-2.9792,-2.9792,-2.9792,-2.9792,-2.9553,-2.9189,-2.9001,-2.8461,-2.7783,-2.7607,-2.7193,-2.6646,-2.6131,-2.581,-2.5618,-2.5266,-2.5361,-2.5511,-2.4707,-2.4492,-2.4409,-2.4192,-2.3559,-2.3001,-2.3001,-2.2402,-2.1807,-2.1807,-2.1807,-2.1807,-2.1807,-2.1807,-2.1807,-2.1807,-2.1807,-2.1807,-2.1807,0.0,0.0,0.0,0.0,0.0,0.0,-2.1807,-2.1807,0.0,-2.1807,0.0,0.0,0.0,0.0,0.0,0.0,0.0,0.0,-2.4204,0.0,-2.5734,-2.6371,-2.6625,-2.6515,-2.6074,-2.532,-2.4202,-2.2751,-2.1753,-2.1123,-2.0161,-1.9518,-1.9075,-1.9075,-1.9075,-1.9075,-1.9075,-1.9075,-1.9075,-1.9075,-1.9158,-1.9396,-3.1901,-3.219,-3.2441,-3.2441,-3.2139,-3.1901,-3.1901,-3.1612,-3.1386,-3.1386,-3.1386,-3.1311,-3.1122,-3.1411,0.0,-3.1399,-3.1386,-3.1386,-3.1386,-3.121,-3.1097,-3.1097,-3.0896,-3.0796,-3.0796,0.0,0.0,-3.0306,-2.9967,-2.9792,-2.9792,-2.9792,-2.9792,-2.9792,-2.9792,-2.9792,-2.9792,-2.9792,-2.9792,-2.9779,-2.9553,-2.9252,-2.8888,-2.8461,-2.7883,-2.7256,-2.7042,-2.6602,-2.5955,-2.5453,-2.5087,-2.4719,-2.3913,-2.3998,-2.4371,-2.3841,-2.3694,-2.3621,-2.3327,-2.2905,-2.2553,-2.2553,-2.2176,-2.1807,-2.1807,-2.1807,-2.1807,-2.1807,-2.1807,-2.1807,-2.1807,-2.1807,-2.1807,-2.1807,0.0,-2.1807,-2.1807,0.0,0.0,0.0,0.0,0.0,0.0,-2.1807,0.0,0.0,0.0,0.0,0.0,0.0,0.0,-2.3001,-2.3412,0.0,-2.4862,-2.5721,-2.6,-2.5697,-2.5369,-2.4678,-2.3691,-2.2503,-2.1502,-2.0677,-2.0042,-1.9462,-1.9075,-1.9075,-1.9075,-1.9075,-1.9075,-1.9075,-1.9075,-1.9075,-1.9178,-1.9427,-3.1286,-3.1286,0.0,0.0,-3.1298,0.0,-3.1336,-3.1298,-3.1286,-3.1286,-3.1286,-3.1097,-3.0608,-3.0557,-3.0758,-3.1235,0.0,0.0,0.0,-3.0821,-3.0557,-3.0557,-3.0068,0.0,-2.9792,-2.9792,-2.9792,-2.9792,-2.9792,-2.9792,-2.9792,-2.9792,-2.9792,-2.9792,-2.9792,-2.9792,-2.9792,-2.9792,-2.9767,-2.9691,-2.9151,-2.8888,-2.8699,-2.767,-2.7256,-2.7155,-2.664,-2.5955,-2.53,-2.517,-2.4636,-2.3902,-2.3139,-2.2927,-2.2927,-2.2927,-2.2927,-2.2777,-2.2025,-2.1807,-2.1807,-2.1807,-2.1807,-2.1807,-2.1807,-2.1807,-2.1807,-2.1807,-2.1807,-2.1807,-2.1807,-2.1807,-2.1807,-2.1807,-2.1807,-2.1807,-2.1807,0.0,0.0,0.0,0.0,0.0,0.0,-2.1807,-2.1807,0.0,0.0,0.0,0.0,0.0,-2.2101,-2.2927,-2.3001,-2.335,-2.4047,-2.4791,-2.4862,-2.4108,-2.3718,-2.3305,-2.2903,-2.162,-2.0677,-2.0042,-1.9396,-1.9075,-1.9075,-1.9075,-1.9075,-1.9075,-1.9075,-1.9075,-1.9075,-1.9075,-1.9412,-1.9779,0.0,0.0,-3.0306,-3.0721,-3.0444,-3.0319,-3.0733,-3.0444,-3.0168,-3.0168,-3.0168,-3.0131,-2.9993,-2.9993,-3.003,-3.0168,-3.0168,-3.0168,-3.0168,-3.0055,-2.9993,-2.9993,-2.9867,-2.9792,-2.9792,-2.9792,-2.9792,-2.9792,-2.9792,-2.9792,-2.9792,-2.9792,-2.9792,-2.9792,-2.9792,-2.9792,-2.9792,-2.9792,-2.9528,-2.9114,-2.8988,-2.8423,-2.7645,-2.7381,-2.7017,-2.6571,-2.5853,-2.5453,-2.5087,-2.3936,-2.3434,-2.3128,-2.2327,-2.2101,-2.2101,-2.2101,-2.2101,-2.2025,-2.1883,-2.1807,-2.1807,-2.1807,-2.1807,-2.1807,-2.1807,-2.1807,-2.1807,-2.1807,-2.1807,-2.1807,-2.1807,-2.1807,-2.1807,-2.1807,-2.1807,-2.1807,-2.1807,-2.1807,0.0,0.0,-2.1807,-2.1807,-2.1807,-2.1807,-2.1807,0.0,0.0,0.0,0.0,0.0,-2.1883,-2.2101,-2.2703,-2.3065,-2.3287,-2.3986,-2.4264,-2.4097,-2.3225,-2.2805,-2.2666,-2.107,-2.0226,-2.0042,-1.9396,-1.9075,-1.9075,-1.9075,-1.9075,-1.9075,-1.9075,-1.9075,-1.9075,-1.9075,-1.9137,-1.9344,-2.9792,-2.9792,-2.988,-3.0181,-2.9993,-2.9892,-3.0193,-2.998,-2.9792,-2.9792,-2.9792,-2.9792,-2.9792,-2.9792,-2.9792,-2.9792,-2.9792,-2.9792,-2.9792,-2.9792,-2.9792,-2.9792,-2.9792,-2.9792,-2.9792,-2.9792,-2.9792,-2.9792,-2.9792,-2.9792,-2.9792,-2.9792,-2.9792,-2.9792,-2.9792,-2.9792,-2.9779,-2.9515,-2.9214,-2.8888,-2.8386,-2.7821,-2.7256,-2.7005,-2.6507,-2.5873,-2.5453,-2.4874,-2.4154,-2.3287,-2.2777,-2.2402,-2.1959,-2.1807,-2.1807,-2.1807,-2.1807,-2.1807,-2.1807,-2.1807,-2.1807,-2.1807,-2.1807,-2.1807,-2.1807,-2.1807,-2.1807,-2.1807,-2.1807,-2.1807,-2.1807,-2.1807,-2.1807,-2.1807,-2.1807,-2.1807,-2.1807,-2.1807,0.0,-2.1807,-2.1807,-2.1807,-2.1807,-2.1807,-2.1807,-2.1807,0.0,0.0,-2.1807,-2.1807,-2.1807,-2.1807,-2.2252,-2.2478,-2.2478,-2.282,-2.339,-2.4097,-2.275,-2.2138,-2.2104,-2.0732,-1.9911,-1.9649,-1.9264,-1.9075,-1.9075,-1.9075,-1.9075,-1.9075,-1.9075,-1.9075,-1.9075,-1.9075,-1.9075,-1.9168,-2.9792,-2.9792,-2.9792,-2.9792,-2.9792,-2.9792,-2.9792,-2.9792,-2.9792,-2.9792,-2.9792,-2.9792,-2.9792,-2.9792,-2.9792,-2.9792,-2.9792,-2.9792,-2.9792,-2.9792,-2.9792,-2.9792,-2.9792,-2.9792,-2.9792,-2.9792,-2.9792,-2.9792,-2.9792,-2.9792,-2.9792,-2.9792,-2.9792,-2.9792,-2.9792,-2.9741,-2.9628,-2.9139,-2.8837,-2.8599,-2.7657,-2.716,-2.6964,-2.6489,-2.5804,-2.5087,-2.5016,-2.4082,-2.3001,-2.2852,-2.2327,-2.1807,-2.1807,-2.1807,-2.1807,-2.1807,-2.1807,-2.1807,-2.1807,-2.1807,-2.1807,-2.1807,-2.1807,-2.1807,-2.1807,-2.1807,-2.1807,-2.1807,-2.1807,-2.1807,-2.1807,-2.1807,-2.1807,-2.1807,-2.1807,-2.1807,-2.1807,0.0,-2.1807,-2.1807,-2.1807,-2.1807,-2.1807,-2.1807,-2.1807,-2.1807,-2.1807,0.0,0.0,-2.1807,-2.1807,-2.1807,-2.1807,-2.1807,-2.1807,-2.1807,-2.2456,-2.3745,-2.2138,-2.1339,-2.1366,-2.0411,-1.9649,-1.9075,-1.9075,-1.9075,-1.9075,-1.9075,-1.9075,-1.9075,-1.9075,-1.9075,-1.9075,-1.9075,-1.9075,-1.9137,-2.9792,-2.9792,-2.9792,-2.9792,-2.9792,-2.9792,-2.9792,-2.9792,-2.9792,-2.9792,-2.9792,-2.9792,-2.9792,-2.9792,-2.9792,-2.9792,-2.9792,-2.9792,-2.9792,-2.9792,-2.9792,-2.9792,-2.9792,-2.9792,-2.9792,-2.9792,-2.9792,-2.9792,-2.9792,-2.9792,-2.9792,-2.9792,-2.9792,-2.9792,-2.9792,-2.9528,-2.9051,-2.8963,-2.8398,-2.7519,-2.7356,-2.6639,-2.5632,-2.5489,-2.5004,-2.4192,-2.357,-2.3213,-2.2927,-2.2252,-2.1883,-2.1807,-2.1807,-2.1807,-2.1807,-2.1807,-2.1807,-2.1807,-2.1807,-2.1807,-2.1807,-2.1807,-2.1807,-2.1807,-2.1807,-2.1807,-2.1807,-2.1807,-2.1807,-2.1807,-2.1807,-2.1807,-2.1807,-2.1807,-2.1807,-2.1807,-2.1807,0.0,-2.1807,-2.1807,-2.1807,-2.1807,-2.1807,-2.1807,-2.1807,-2.1807,-2.1807,-2.1807,-2.1807,-2.1807,-2.1807,-2.1807,-2.1807,-2.1807,-2.1807,-2.1807,-2.1949,-2.2155,-2.1084,-2.0563,-2.0532,-1.9682,-1.9198,-1.9075,-1.9075,-1.9075,-1.9075,-1.9075,-1.9075,-1.9075,-1.9075,-1.9075,-1.9075,-1.9075,-1.9075,-1.9137,-2.9792,-2.9792,-2.9792,-2.9792,-2.9792,-2.9792,-2.9792,-2.9792,-2.9792,-2.9792,-2.9792,-2.9792,-2.9792,-2.9792,-2.9792,-2.9792,-2.9792,-2.9792,-2.9792,-2.9792,-2.9624,-2.9131,-2.9118,-2.887,-2.8383,-2.8383,-2.8383,-2.8383,-2.8383,-2.8383,-2.8383,-2.887,-2.9118,-2.9106,-2.9222,-2.9176,-2.8888,-2.8298,-2.7516,-2.666,-2.6365,-2.5587,-2.4636,-2.4636,-2.4204,-2.3486,-2.3139,-2.2703,-2.2327,-2.1959,-2.1807,-2.1807,-2.1807,-2.1807,-2.1807,-2.1807,-2.1807,-2.1807,-2.1807,-2.1807,-2.1807,-2.1807,-2.1807,-2.1807,-2.1807,-2.1807,-2.1807,-2.1807,-2.1807,-2.1807,-2.1807,-2.1807,-2.1807,-2.1807,-2.1807,0.0,0.0,-2.1807,-2.1807,-2.1807,-2.1807,-2.1807,-2.1807,-2.1807,-2.1807,-2.1807,-2.1807,-2.1807,-2.1807,-2.1807,-2.1807,-2.1807,-2.1807,-2.1807,-2.1807,-2.1807,-2.1807,-2.1797,-2.0866,-2.042,-2.0389,-1.9479,-1.9075,-1.9075,-1.9075,-1.9075,-1.9075,-1.9075,-1.9075,-1.9075,-1.9075,-1.9075,-1.9075,-1.9075,-1.9075,-1.9106,-2.9792,-2.9792,-2.9792,-2.9792,-2.9792,-2.9792,-2.9792,-2.9792,-2.9792,-2.9792,-2.9792,-2.9792,-2.9792,-2.9792,-2.9792,-2.9792,-2.9792,-2.9702,-2.9534,-2.9468,-2.9209,-2.8542,-2.8291,-2.7799,-2.7151,-2.7069,-2.7069,-2.7069,-2.7069,-2.7069,-2.7151,-2.7761,-2.8044,-2.8021,-2.8344,-2.8263,-2.794,-2.7271,-2.6467,-2.5575,-2.5171,-2.4576,-2.3829,-2.3829,-2.3412,-2.2703,-2.2703,-2.2327,-2.1807,-2.1807,-2.1807,-2.1807,-2.1807,-2.1807,-2.1807,-2.1807,-2.1807,-2.1807,-2.1807,-2.1807,-2.1807,-2.1807,-2.1807,-2.1807,-2.1807,-2.1807,-2.1807,-2.1807,-2.1807,-2.1807,-2.1807,-2.1807,-2.1807,-2.1807,0.0,0.0,0.0,-2.1807,-2.1807,-2.1807,-2.1807,-2.1807,-2.1807,-2.1807,-2.1807,-2.1807,-2.1807,-2.1807,-2.1807,-2.1807,-2.1807,-2.1807,-2.1807,-2.1807,-2.1807,-2.1807,-2.1807,-2.1797,-2.0866,-2.042,-2.0389,-1.9479,-1.9075,-1.9075,-1.9075,-1.9075,-1.9075,-1.9075,-1.9075,-1.9075,-1.9075,-1.9075,-1.9075,-1.9075,-1.9075,-1.9075,-2.9792,-2.9792,-2.9792,-2.9792,-2.9792,-2.9792,-2.9792,-2.9792,-2.9792,-2.9792,-2.9792,-2.9792,-2.9792,-2.9792,-2.9792,-2.9792,-2.9792,-2.9456,-2.8633,-2.8621,-2.8542,-2.8462,-2.7637,-2.7151,-2.7069,-2.7069,-2.7069,-2.7069,-2.7069,-2.7069,-2.7058,-2.676,-2.6632,-2.6688,-2.6912,-2.6411,-2.5303,-2.591,-2.5431,-2.4238,-2.4204,-2.3768,-2.3065,-2.3065,-2.2553,-2.1883,-2.1883,-2.1883,-2.1807,-2.1807,-2.1807,-2.1807,-2.1807,-2.1807,-2.1807,-2.1807,-2.1807,-2.1807,-2.1807,-2.1807,-2.1807,-2.1807,-2.1807,-2.1807,-2.1807,-2.1807,-2.1807,-2.1807,-2.1807,-2.1807,-2.1807,-2.1807,-2.1807,-2.1807,0.0,0.0,-2.1807,-2.1807,-2.1807,-2.1807,-2.1807,-2.1807,-2.1807,-2.1807,-2.1807,-2.1807,-2.1807,-2.1807,-2.1807,-2.1807,-2.1807,-2.1807,-2.1807,-2.1807,-2.1807,-2.1807,-2.1807,-2.1797,-2.0866,-2.042,-2.0389,-1.9479,-1.9075,-1.9075,-1.9075,-1.9075,-1.9075,-1.9075,-1.9075,-1.9075,-1.9075,-1.9075,-1.9075,-1.9075,-1.9075,-1.9075,-2.9792,-2.9792,-2.9792,-2.9792,-2.9792,-2.9792,-2.9792,-2.9792,-2.9792,-2.9792,-2.9792,-2.9792,-2.9792,-2.9792,-2.9792,-2.9792,-2.9792,-2.9456,-2.8542,-2.7971,-2.7395,-2.6812,-2.6483,-2.608,-2.5516,-2.5997,-2.5997,-2.5516,-2.5236,-2.5096,-2.5085,-2.5234,-2.5228,-2.5284,-2.5546,-2.5436,-2.5027,-2.4923,-2.4303,-2.3423,-2.3423,-2.2979,-2.2252,-2.2252,-2.2101,-2.1807,-2.1807,-2.1807,-2.1807,-2.1807,-2.1807,-2.1807,-2.1807,-2.1807,-2.1807,-2.1807,-2.1807,-2.1807,-2.1807,-2.1807,-2.1807,-2.1807,-2.1807,-2.1807,-2.1807,-2.1807,-2.1807,-2.1807,-2.1807,-2.1807,-2.1807,-2.1807,-2.1807,-2.1807,0.0,-2.1807,-2.1807,-2.1807,-2.1807,-2.1807,-2.1807,-2.1807,-2.1807,-2.1807,-2.1807,-2.1807,-2.1807,-2.1807,-2.1807,-2.1807,-2.1807,-2.1807,-2.1807,-2.1807,-2.1807,-2.1807,-2.1662,-2.1373,-2.0731,-2.0276,-1.9986,-1.9354,-1.9075,-1.9075,-1.9075,-1.9075,-1.9075,-1.9075,-1.9075,-1.9075,-1.9075,-1.9075,-1.9075,-1.9075,-1.9075,-1.9075,-2.9792,-2.9792,-2.9792,-2.9792,-2.9792,-2.9792,-2.9792,-2.9792,-2.9792,-2.9792,-2.9792,-2.9792,-2.9792,-2.9792,-2.9792,-2.9792,-2.9546,-2.904,-2.8131,-2.7071,-2.6162,-2.5421,-2.5663,-2.5357,-2.4333,-2.4893,-2.4819,-2.4115,-2.3815,-2.366,-2.365,-2.3796,-2.3878,-2.3767,-2.4125,-2.4138,-2.3816,-2.3609,-2.318,-2.2553,-2.2478,-2.2101,-2.1731,-2.1655,-2.1578,-2.1655,-2.1655,-2.1731,-2.1731,-2.1807,-2.1731,-2.1731,-2.1807,-2.1807,-2.1807,-2.1807,-2.1807,-2.1807,-2.1807,-2.1807,-2.1807,-2.1807,-2.1807,-2.1807,-2.1807,-2.1807,-2.1807,-2.1807,-2.1807,-2.1807,-2.1807,-2.1807,-2.1807,-2.1807,-2.1807,-2.1807,-2.1807,-2.1807,-2.1807,-2.1807,-2.1807,-2.1807,-2.1807,-2.1807,-2.1807,-2.1807,-2.1807,-2.1807,-2.1807,-2.1807,-2.1807,-2.1807,-2.1807,-2.1807,-2.1807,-2.1807,-2.1569,-2.1104,-2.0638,-2.0193,-1.9806,-1.9282,-1.9075,-1.9075,-1.9075,-1.9075,-1.9075,-1.9075,-1.9075,-1.9075,-1.9075,-1.9075,-1.9075,-1.9075,-1.9075,-1.9075,-2.9792,-2.9792,-2.9792,-2.9792,-2.9792,-2.9792,-2.9792,-2.9792,-2.9792,-2.9792,-2.9792,-2.9792,-2.9792,-2.9792,-2.9792,-2.9792,-2.904,-2.8131,-2.7139,-2.578,-2.4844,-2.4509,-2.5326,-2.5196,-2.3877,-2.3877,-2.365,-2.3184,-2.3184,-2.3184,-2.3174,-2.2708,-2.2412,-2.2234,-2.2507,-2.2155,-2.1282,-2.208,-2.208,-2.1502,-2.1282,-2.1359,-2.1502,-2.1282,-2.1205,-2.1205,-2.1436,-2.1502,-2.1502,-2.1731,-2.1655,-2.1512,-2.1731,-2.1807,-2.1807,-2.1807,-2.1807,-2.1807,-2.1807,-2.1807,-2.1807,-2.1807,-2.1807,-2.1807,-2.1807,-2.1807,-2.1807,-2.1807,-2.1807,-2.1807,-2.1807,-2.1807,-2.1807,-2.1807,-2.1807,-2.1807,-2.1807,-2.1807,-2.1807,-2.1807,-2.1807,-2.1807,-2.1807,-2.1807,-2.1807,-2.1807,-2.1807,-2.1807,-2.1807,-2.1807,-2.1807,-2.1807,-2.1807,-2.1807,-2.1807,-2.1807,-2.1569,-2.1104,-2.0638,-2.0193,-1.9806,-1.9282,-1.9075,-1.9075,-1.9075,-1.9075,-1.9075,-1.9075,-1.9075,-1.9075,-1.9075,-1.9075,-1.9075,-1.9075,-1.9075,-1.9075,-2.9792,-2.9792,-2.9792,-2.9792,-2.9792,-2.9792,-2.9792,-2.9792,-2.9792,-2.9792,-2.9792,-2.9792,-2.9792,-2.9792,-2.9792,-2.9792,-2.9546,-2.8868,-2.7506,-2.6553,-2.5516,-2.4433,-2.5214,-2.4919,-2.3473,-2.4009,-2.3934,-2.3184,-2.2863,-2.2708,-2.2687,-2.2232,-2.2014,-2.1927,-2.2012,-2.1873,-2.1655,-2.1873,-2.1873,-2.1731,-2.1655,-2.1655,-2.1731,-2.1655,-2.1655,-2.1655,-2.1655,-2.1731,-2.1731,-2.1807,-2.1731,-2.1731,-2.1807,-2.1807,-2.1807,-2.1807,-2.1807,-2.1807,-2.1807,-2.1807,-2.1807,-2.1807,-2.1807,-2.1807,-2.1807,-2.1807,-2.1807,-2.1807,-2.1807,-2.1807,-2.1807,-2.1807,-2.1807,-2.1807,-2.1807,-2.1807,-2.1807,-2.1807,-2.1807,-2.1807,-2.1807,-2.1807,-2.1807,-2.1807,-2.1807,-2.1807,-2.1807,-2.1807,-2.1807,-2.1807,-2.1807,-2.1807,-2.1807,-2.1807,-2.1807,-2.1807,-2.1414,-2.0627,-2.0493,-2.0017,-1.9272,-1.9137,-1.9075,-1.9075,-1.9075,-1.9075,-1.9075,-1.9075,-1.9075,-1.9075,-1.9075,-1.9075,-1.9075,-1.9075,-1.9075,-1.9065,-2.9792,-2.9792,-2.9792,-2.9792,-2.9792,-2.9792,-2.9792,-2.9792,-2.9792,-2.9792,-2.9792,-2.9792,-2.9792,-2.9792,-2.9792,-2.9792,-2.9257,-2.8251,-2.672,-2.6092,-2.5127,-2.3667,-2.4238,-2.4084,-2.2915,-2.344,-2.3345,-2.2646,-2.2356,-2.2221,-2.2221,-2.1932,-2.1731,-2.1578,-2.1578,-2.1502,-2.1339,-2.1339,-2.1349,-2.1436,-2.1349,-2.1349,-2.1436,-2.1349,-2.1339,-2.1339,-2.1436,-2.1436,-2.1436,-2.1512,-2.1578,-2.1578,-2.1512,-2.1502,-2.1578,-2.1655,-2.1655,-2.1655,-2.1655,-2.1655,-2.1655,-2.1578,-2.1655,-2.1807,-2.1807,-2.1807,-2.1807,-2.1807,-2.1807,-2.1807,-2.1807,-2.1807,-2.1807,-2.1807,-2.1807,-2.1807,-2.1807,-2.1807,-2.1807,-2.1807,-2.1807,-2.1807,-2.1807,-2.1807,-2.1807,-2.1807,-2.1807,-2.1807,-2.1807,-2.1807,-2.1807,-2.1807,-2.1807,-2.1807,-2.1807,-2.1807,-2.1342,-2.042,-2.042,-1.9944,-1.9075,-1.9075,-1.9075,-1.9075,-1.9075,-1.9075,-1.9075,-1.9075,-1.9075,-1.9075,-1.9075,-1.9075,-1.9075,-1.9075,-1.9065,-1.8942,-2.9792,-2.9792,-2.9792,-2.9792,-2.9792,-2.9792,-2.9792,-2.9792,-2.9792,-2.9792,-2.9792,-2.9792,-2.9792,-2.9792,-2.9792,-2.9792,-2.8525,-2.7066,-2.5538,-2.5034,-2.4189,-2.2741,-2.2788,-2.2756,-2.2428,-2.2439,-2.2232,-2.1807,-2.1807,-2.1807,-2.1807,-2.1731,-2.1578,-2.1205,-2.1205,-2.0964,-2.0644,-2.0644,-2.0731,-2.0906,-2.0731,-2.0731,-2.0906,-2.0731,-2.0644,-2.0654,-2.0896,-2.0906,-2.0984,-2.1128,-2.1205,-2.1205,-2.0984,-2.1061,-2.1205,-2.1436,-2.1512,-2.1502,-2.1502,-2.1502,-2.1502,-2.1282,-2.1512,-2.1807,-2.1807,-2.1807,-2.1807,-2.1807,-2.1807,-2.1807,-2.1807,-2.1807,-2.1807,-2.1807,-2.1807,-2.1807,-2.1807,-2.1807,-2.1807,-2.1807,-2.1807,-2.1807,-2.1807,-2.1807,-2.1807,-2.1807,-2.1807,-2.1807,-2.1807,-2.1807,-2.1807,-2.1807,-2.1807,-2.1807,-2.1807,-2.1807,-2.1362,-2.0483,-2.0441,-1.9975,-1.9137,-1.9085,-1.9075,-1.9075,-1.9075,-1.9075,-1.9075,-1.9075,-1.9075,-1.9075,-1.9075,-1.9075,-1.9075,-1.9065,-1.8942,-1.8808,-2.9792,-2.9792,-2.9792,-2.9792,-2.9792,-2.9792,-2.9792,-2.9792,-2.9792,-2.9792,-2.9792,-2.9792,-2.9792,-2.9792,-2.9792,-2.9792,-2.9099,-2.8274,-2.7531,-2.591,-2.4568,-2.379,-2.266,-2.2001,-2.1952,-2.1952,-2.1901,-2.1807,-2.1655,-2.1589,-2.1578,-2.1425,-2.1282,-2.1205,-2.1205,-2.1128,-2.1051,-2.1051,-2.1128,-2.1128,-2.1128,-2.1128,-2.1128,-2.1128,-2.1051,-2.1051,-2.1128,-2.1128,-2.1128,-2.1205,-2.1205,-2.1205,-2.1128,-2.1128,-2.1205,-2.1282,-2.1359,-2.1512,-2.1282,-2.1502,-2.1655,-2.1512,-2.1655,-2.1731,-2.1578,-2.1655,-2.1807,-2.1807,-2.1807,-2.1807,-2.1807,-2.1807,-2.1807,-2.1807,-2.1807,-2.1807,-2.1807,-2.1807,-2.1807,-2.1807,-2.1807,-2.1807,-2.1807,-2.1807,-2.1807,-2.1807,-2.1807,-2.1807,-2.1807,-2.1807,-2.1807,-2.1807,-2.1807,-2.1807,-2.1807,-2.1807,-2.1518,-2.0959,-2.0596,-2.0141,-1.9671,-1.9297,-1.9075,-1.9075,-1.9075,-1.9075,-1.9075,-1.9075,-1.9075,-1.9075,-1.9075,-1.9075,-1.9065,-1.8942,-1.8808,-1.8808,-2.9792,-2.9792,-2.9792,-2.9792,-2.9792,-2.9792,-2.9792,-2.9792,-2.9792,-2.9792,-2.9792,-2.9792,-2.9792,-2.9792,-2.9679,-2.9402,-2.8863,-2.799,-2.6686,-2.5327,-2.4113,-2.3043,-2.2241,-2.1807,-2.1807,-2.1807,-2.1807,-2.1807,-2.1578,-2.1502,-2.1502,-2.1282,-2.1128,-2.1061,-2.1061,-2.0974,-2.0886,-2.0886,-2.0886,-2.0886,-2.0886,-2.0886,-2.0886,-2.0886,-2.0886,-2.0886,-2.0886,-2.0886,-2.0886,-2.0886,-2.0974,-2.1061,-2.1061,-2.1128,-2.1205,-2.1282,-2.1436,-2.1512,-2.1359,-2.1502,-2.1578,-2.1436,-2.1502,-2.1655,-2.1655,-2.1731,-2.1807,-2.1807,-2.1807,-2.1807,-2.1807,-2.1807,-2.1807,-2.1807,-2.1807,-2.1807,-2.1807,-2.1807,-2.1807,-2.1807,-2.1807,-2.1807,-2.1807,-2.1807,-2.1807,-2.1807,-2.1807,-2.1807,-2.1807,-2.1807,-2.1807,-2.1807,-2.1807,-2.1807,-2.1807,-2.1807,-2.1683,-2.1445,-2.0979,-2.04,-1.9827,-1.9578,-1.9282,-1.9075,-1.9075,-1.9075,-1.9075,-1.9075,-1.9075,-1.9075,-1.9075,-1.9075,-1.8942,-1.8808,-1.8741,-1.8607,-2.9792,-2.9792,-2.9792,-2.9792,-2.9792,-2.9792,-2.9792,-2.9792,-2.9792,-2.9792,-2.9792,-2.9792,-2.9792,-2.9704,-2.9453,-2.8976,-2.8335,-2.7164,-2.5296,-2.448,-2.3463,-2.2101,-2.1883,-2.1807,-2.1807,-2.1807,-2.1807,-2.1807,-2.1578,-2.1425,-2.1436,-2.1205,-2.0974,-2.0829,-2.0829,-2.0741,-2.0566,-2.0566,-2.0566,-2.0566,-2.0566,-2.0566,-2.0566,-2.0566,-2.0566,-2.0566,-2.0566,-2.0566,-2.0566,-2.0566,-2.0731,-2.0829,-2.0906,-2.0974,-2.1128,-2.1359,-2.1425,-2.1436,-2.1436,-2.1512,-2.1502,-2.1282,-2.1359,-2.1578,-2.1731,-2.1807,-2.1807,-2.1807,-2.1807,-2.1807,-2.1807,-2.1807,-2.1807,-2.1807,-2.1807,-2.1807,-2.1807,-2.1807,-2.1807,-2.1807,-2.1807,-2.1807,-2.1807,-2.1807,-2.1807,-2.1807,-2.1807,-2.1807,-2.1807,-2.1807,-2.1807,-2.1807,-2.1807,-2.1807,-2.1807,-2.1807,-2.1807,-2.1797,-2.1414,-2.0793,-1.9986,-1.99,-1.9619,-1.9256,-1.9106,-1.9075,-1.9075,-1.9075,-1.9075,-1.9075,-1.9075,-1.9008,-1.8818,-1.8832,-1.8728,-1.8534,-2.9792,-2.9792,-2.9792,-2.9792,-2.9792,-2.9792,-2.9792,-2.9792,-2.9792,-2.9792,-2.9792,-2.9792,-2.9792,-2.934,-2.9013,-2.8938,-2.7996,-2.6986,-2.6032,-2.4772,-2.3694,-2.2852,-2.2176,-2.1807,-2.1807,-2.1807,-2.1807,-2.1807,-2.1436,-2.1205,-2.1205,-2.0886,-2.0644,-2.0644,-2.0644,-2.0644,-2.0566,-2.0566,-2.0566,-2.0566,-2.0566,-2.0566,-2.0566,-2.0566,-2.0566,-2.0566,-2.0566,-2.0566,-2.0566,-2.0566,-2.0644,-2.0654,-2.0829,-2.0819,-2.0722,-2.1128,-2.1205,-2.1205,-2.1061,-2.1359,-2.1655,-2.1282,-2.1502,-2.1807,-2.1807,-2.1807,-2.1807,-2.1807,-2.1807,-2.1807,-2.1807,-2.1807,-2.1807,-2.1807,-2.1807,-2.1807,-2.1807,-2.1807,-2.1807,-2.1807,-2.1807,-2.1807,-2.1807,-2.1807,-2.1807,-2.1807,-2.1807,-2.1807,-2.1807,-2.1807,-2.1807,-2.1807,-2.1807,-2.1807,-2.1807,-2.1807,-2.1807,-2.1807,-2.1745,-2.1435,-2.0907,-2.012,-1.9796,-1.9644,-1.9251,-1.9075,-1.9075,-1.9075,-1.9075,-1.9075,-1.9075,-1.9065,-1.905,-1.912,-1.9043,-1.8884,-2.9792,-2.9792,-2.9792,-2.9792,-2.9792,-2.9792,-2.9792,-2.9792,-2.9792,-2.9792,-2.9792,-2.9792,-2.9792,-2.9277,-2.8687,-2.8059,-2.7557,-2.6859,-2.5756,-2.4693,-2.3768,-2.3001,-2.2252,-2.1807,-2.1807,-2.1807,-2.1807,-2.1807,-2.1436,-2.1128,-2.1061,-2.0731,-2.0566,-2.0566,-2.0566,-2.0566,-2.0566,-2.0566,-2.0566,-2.0566,-2.0566,-2.0566,-2.0566,-2.0566,-2.0566,-2.0566,-2.0566,-2.0566,-2.0566,-2.0566,-2.0731,-2.0964,-2.1051,-2.1128,-2.1339,-2.1502,-2.1512,-2.1512,-2.1436,-2.1589,-2.1731,-2.1578,-2.1655,-2.1807,-2.1807,-2.1807,-2.1807,-2.1807,-2.1807,-2.1807,-2.1807,-2.1807,-2.1807,-2.1807,-2.1807,-2.1807,-2.1807,-2.1807,-2.1807,-2.1807,-2.1807,-2.1807,-2.1807,-2.1807,-2.1807,-2.1807,-2.1807,-2.1807,-2.1807,-2.1807,-2.1807,-2.1807,-2.1807,-2.1807,-2.1807,-2.1807,-2.1807,-2.1807,-2.1807,-2.1559,-2.1104,-2.07,-2.0245,-1.9817,-1.9551,-1.9313,-1.9075,-1.9075,-1.9075,-1.9075,-1.9075,-1.9096,-1.9178,-1.9495,-1.9443,-1.933]},{"header":{"parameterUnit":"m.s-1","parameterCategory":1,"la1":30.6,"la2":28.766,"lo1":-90.7593,"lo2":-88.6598,"dy":0.0162,"dx":0.0183,"nx":116,"ny":114,"refTime":"2023-08-05T06:00:00:Z","depth":0,"parameterNumber":3,"parameterNumberName":"V-component_of_WINDS"},"data":[0.0,0.0,0.0,0.0,0.0,0.0,0.0,0.0,0.0,0.0,0.0,0.0,0.0,0.0,0.0,0.0,0.0,0.0,0.0,0.0,0.0,0.0,0.0,0.0,0.0,0.0,0.0,0.0,0.0,0.0,0.0,0.0,0.0,0.0,0.0,0.0,0.0,0.0,0.0,0.0,0.0,0.0,0.0,0.0,0.0,0.0,0.0,0.0,0.0,0.0,0.0,0.0,0.0,0.0,0.0,0.0,0.0,0.0,0.0,0.0,0.0,0.0,0.0,0.0,0.0,0.0,0.0,0.0,0.0,0.0,0.0,0.0,0.0,0.0,0.0,0.0,0.0,0.0,0.0,0.0,0.0,0.0,0.0,0.0,0.0,0.0,0.0,0.0,0.0,0.0,0.0,0.0,0.0,0.0,0.0,0.0,0.0,0.0,0.0,0.0,0.0,0.0,0.0,0.0,0.0,0.0,0.0,0.0,0.0,0.0,0.0,0.0,0.0,0.0,0.0,0.0,0.0,0.0,0.0,0.0,0.0,0.0,0.0,0.0,0.0,0.0,0.0,0.0,0.0,0.0,0.0,0.0,0.0,0.0,0.0,0.0,0.0,0.0,0.0,0.0,0.0,0.0,0.0,0.0,0.0,0.0,0.0,0.0,0.0,0.0,0.0,0.0,0.0,0.0,0.0,0.0,0.0,0.0,0.0,0.0,0.0,0.0,0.0,0.0,0.0,0.0,0.0,0.0,0.0,0.0,0.0,0.0,0.0,0.0,0.0,0.0,0.0,0.0,0.0,0.0,0.0,0.0,0.0,0.0,0.0,0.0,0.0,0.0,0.0,0.0,0.0,0.0,0.0,0.0,0.0,0.0,0.0,0.0,0.0,0.0,0.0,0.0,0.0,0.0,0.0,0.0,0.0,0.0,0.0,0.0,0.0,0.0,0.0,0.0,0.0,0.0,0.0,0.0,0.0,0.0,0.0,0.0,0.0,0.0,0.0,0.0,0.0,0.0,0.0,0.0,0.0,0.0,0.0,0.0,0.0,0.0,0.0,0.0,0.0,0.0,0.0,0.0,0.0,0.0,0.0,0.0,0.0,0.0,0.0,0.0,0.0,0.0,0.0,0.0,0.0,0.0,0.0,0.0,0.0,0.0,0.0,0.0,0.0,0.0,0.0,0.0,0.0,0.0,0.0,0.0,0.0,0.0,0.0,0.0,0.0,0.0,0.0,0.0,0.0,0.0,0.0,0.0,0.0,0.0,0.0,0.0,0.0,0.0,0.0,0.0,0.0,0.0,0.0,0.0,0.0,0.0,0.0,0.0,0.0,0.0,0.0,0.0,0.0,0.0,0.0,0.0,0.0,0.0,0.0,0.0,0.0,0.0,0.0,0.0,0.0,0.0,0.0,0.0,0.0,0.0,0.0,0.0,0.0,0.0,0.0,0.0,0.0,0.0,0.0,0.0,0.0,0.0,0.0,0.0,0.0,0.0,0.0,0.0,0.0,0.0,0.0,0.0,0.0,0.0,0.0,0.0,0.0,0.0,0.0,0.0,0.0,0.0,0.0,0.0,0.0,0.0,0.0,0.0,0.0,0.0,0.0,0.0,0.0,0.0,0.0,0.0,0.0,0.0,0.0,0.0,0.0,0.0,0.0,0.0,0.0,0.0,0.0,0.0,0.0,0.0,0.0,0.0,0.0,0.0,0.0,0.0,0.0,0.0,0.0,0.0,0.0,0.0,0.0,0.0,0.0,0.0,0.0,0.0,0.0,0.0,0.0,0.0,0.0,0.0,0.0,0.0,0.0,0.0,0.0,0.0,0.0,0.0,0.0,0.0,0.0,0.0,0.0,0.0,0.0,0.0,0.0,0.0,0.0,0.0,0.0,0.0,0.0,0.0,0.0,0.0,0.0,0.0,0.0,0.0,0.0,0.0,0.0,0.0,0.0,0.0,0.0,0.0,0.0,0.0,0.0,0.0,0.0,0.0,0.0,0.0,0.0,0.0,0.0,0.0,0.0,0.0,0.0,0.0,0.0,0.0,0.0,0.0,0.0,0.0,0.0,0.0,0.0,0.0,0.0,0.0,0.0,0.0,0.0,0.0,0.0,0.0,0.0,0.0,0.0,0.0,0.0,0.0,0.0,0.0,0.0,0.0,0.0,0.0,0.0,0.0,0.0,0.0,0.0,0.0,0.0,0.0,0.0,0.0,0.0,0.0,0.0,0.0,0.0,0.0,0.0,0.0,0.0,0.0,0.0,0.0,0.0,0.0,0.0,0.0,0.0,0.0,0.0,0.0,0.0,0.0,0.0,0.0,0.0,0.0,0.0,0.0,0.0,0.0,0.0,0.0,0.0,0.0,0.0,0.0,0.0,0.0,0.0,0.0,0.0,0.0,0.0,0.0,0.0,0.0,0.0,0.0,0.0,0.0,0.0,0.0,0.0,0.0,0.0,0.0,0.0,0.0,0.0,0.0,0.0,0.0,0.0,0.0,0.0,0.0,0.0,0.0,0.0,0.0,0.0,0.0,0.0,0.0,0.0,0.0,0.0,0.0,0.0,0.0,0.0,0.0,0.0,0.0,0.0,0.0,0.0,0.0,0.0,0.0,0.0,0.0,0.0,0.0,0.0,0.0,0.0,0.0,0.0,0.0,0.0,0.0,0.0,0.0,0.0,0.0,0.0,0.0,0.0,0.0,0.0,0.0,0.0,0.0,0.0,0.0,0.0,0.0,0.0,0.0,0.0,0.0,0.0,0.0,0.0,0.0,0.0,0.0,0.0,0.0,0.0,0.0,0.0,0.0,0.0,0.0,0.0,0.0,0.0,0.0,0.0,0.0,0.0,0.0,0.0,0.0,0.0,0.0,0.0,0.0,0.0,0.0,0.0,0.0,0.0,0.0,0.0,0.0,0.0,0.0,0.0,0.0,0.0,0.0,0.0,0.0,0.0,0.0,0.0,0.0,0.0,0.0,0.0,0.0,0.0,0.0,0.0,0.0,0.0,0.0,0.0,0.0,0.0,0.0,0.0,0.0,0.0,0.0,0.0,0.0,0.0,0.0,0.0,0.0,0.0,0.0,0.0,0.0,0.0,0.0,0.0,0.0,0.0,0.0,0.0,0.0,0.0,0.0,0.0,0.0,0.0,0.0,0.0,0.0,0.0,0.0,0.0,0.0,0.0,0.0,0.0,0.0,0.0,0.0,0.0,0.0,0.0,0.0,0.0,0.0,0.0,0.0,0.0,0.0,0.0,0.0,0.0,0.0,0.0,0.0,0.0,0.0,0.0,0.0,0.0,0.0,0.0,0.0,0.0,0.0,0.0,0.0,0.0,0.0,0.0,0.0,0.0,0.0,0.0,0.0,0.0,0.0,0.0,0.0,0.0,0.0,0.0,0.0,0.0,0.0,0.0,0.0,0.0,0.0,0.0,0.0,0.0,0.0,0.0,0.0,0.0,0.0,0.0,0.0,0.0,0.0,0.0,0.0,0.0,0.0,0.0,0.0,0.0,0.0,0.0,0.0,0.0,0.0,0.0,0.0,0.0,0.0,0.0,0.0,0.0,0.0,0.0,0.0,0.0,0.0,0.0,0.0,0.0,0.0,0.0,0.0,0.0,0.0,0.0,0.0,0.0,0.0,0.0,0.0,0.0,0.0,0.0,0.0,0.0,0.0,0.0,0.0,0.0,0.0,0.0,0.0,0.0,0.0,0.0,0.0,0.0,0.0,0.0,0.0,0.0,0.0,0.0,0.0,0.0,0.0,0.0,0.0,0.0,0.0,0.0,0.0,0.0,0.0,0.0,0.0,0.0,0.0,0.0,0.0,0.0,0.0,0.0,0.0,0.0,0.0,0.0,0.0,0.0,0.0,0.0,0.0,0.0,0.0,0.0,0.0,0.0,0.0,0.0,0.0,0.0,0.0,0.0,0.0,0.0,0.0,0.0,0.0,0.0,0.0,0.0,0.0,0.0,0.0,0.0,0.0,0.0,0.0,0.0,0.0,0.0,0.0,0.0,0.0,0.0,0.0,0.0,0.0,0.0,0.0,0.0,0.0,0.0,0.0,0.0,0.0,0.0,0.0,0.0,0.0,0.0,0.0,0.0,0.0,0.0,0.0,0.0,0.0,0.0,0.0,0.0,0.0,0.0,0.0,0.0,0.0,0.0,0.0,0.0,0.0,0.0,0.0,0.0,0.0,0.0,0.0,0.0,0.0,0.0,0.0,0.0,0.0,0.0,0.0,0.0,0.0,0.0,0.0,0.0,0.0,0.0,0.0,0.0,0.0,0.0,0.0,0.0,0.0,0.0,0.0,0.0,0.0,0.0,0.0,0.0,0.0,0.0,0.0,0.0,0.0,0.0,0.0,0.0,0.0,0.0,0.0,0.0,0.0,0.0,0.0,0.0,0.0,0.0,0.0,0.0,0.0,0.0,0.0,0.0,0.0,0.0,0.0,0.0,0.0,0.0,0.0,0.0,0.0,0.0,0.0,0.0,0.0,0.0,0.0,0.0,0.0,0.0,0.0,0.0,0.0,0.0,0.0,0.0,0.0,0.0,0.0,0.0,0.0,0.0,0.0,0.0,0.0,0.0,0.0,0.0,0.0,0.0,0.0,0.0,0.0,0.0,0.0,0.0,0.0,0.0,0.0,0.0,0.0,0.0,0.0,0.0,0.0,0.0,0.0,0.0,0.0,0.0,0.0,0.0,0.0,0.0,0.0,0.0,0.0,0.0,0.0,0.0,0.0,0.0,0.0,0.0,0.0,0.0,0.0,0.0,0.0,0.0,0.0,0.0,0.0,0.0,0.0,0.0,0.0,0.0,0.0,0.0,0.0,0.0,0.0,0.0,0.0,0.0,0.0,0.0,0.0,0.0,0.0,0.0,0.0,0.0,0.0,0.0,0.0,0.0,0.0,0.0,0.0,0.0,0.0,0.0,0.0,0.0,0.0,0.0,0.0,0.0,0.0,0.0,0.0,0.0,0.0,0.0,0.0,0.0,0.0,0.0,0.0,0.0,0.0,0.0,0.0,0.0,0.0,0.0,0.0,0.0,0.0,0.0,0.0,0.0,0.0,0.0,0.0,0.0,0.0,0.0,0.0,0.0,0.0,0.0,0.0,0.0,0.0,0.0,0.0,0.0,0.0,0.0,0.0,0.0,0.0,0.0,0.0,0.0,0.0,0.0,0.0,0.0,0.0,0.0,0.0,0.0,0.0,0.0,0.0,0.0,0.0,0.0,0.0,0.0,0.0,0.0,0.0,0.0,0.0,0.0,0.0,0.0,0.0,0.0,0.0,0.0,0.0,0.0,0.0,0.0,0.0,0.0,0.0,0.0,0.0,0.0,0.0,0.0,0.0,0.0,0.0,0.0,0.0,0.0,0.0,0.0,0.0,0.0,0.0,0.0,0.0,0.0,0.0,0.0,0.0,0.0,0.0,0.0,0.0,0.0,0.0,0.0,0.0,0.0,0.0,0.0,0.0,0.0,0.0,0.0,0.0,0.0,0.0,0.0,0.0,0.0,0.0,0.0,0.0,0.0,0.0,0.0,0.0,0.0,0.0,0.0,0.0,0.0,0.0,0.0,0.0,0.0,0.0,0.0,0.0,0.0,0.0,0.0,0.0,0.0,0.0,0.0,0.0,0.0,0.0,0.0,0.0,0.0,0.0,0.0,0.0,0.0,0.0,0.0,0.0,0.0,0.0,0.0,0.0,0.0,0.0,0.0,0.0,0.0,0.0,0.0,0.0,0.0,0.0,0.0,0.0,0.0,0.0,0.0,0.0,0.0,0.0,0.0,0.0,0.0,0.0,0.0,0.0,0.0,0.0,0.0,0.0,0.0,0.0,0.0,0.0,0.0,0.0,0.0,0.0,0.0,0.0,0.0,0.0,0.0,0.0,0.0,0.0,0.0,0.0,0.0,0.0,0.0,0.0,0.0,0.0,0.0,0.0,0.0,0.0,0.0,0.0,0.0,0.0,0.0,0.0,0.0,0.0,0.0,0.0,0.0,0.0,0.0,0.0,0.0,0.0,0.0,0.0,0.0,0.0,0.0,0.0,0.0,0.0,0.0,0.0,0.0,0.0,0.0,0.0,0.0,0.0,0.0,0.0,0.0,0.0,-2.958,0.0,0.0,0.0,0.0,0.0,0.0,0.0,0.0,0.0,0.0,0.0,0.0,0.0,0.0,0.0,0.0,0.0,0.0,0.0,0.0,0.0,0.0,0.0,0.0,0.0,0.0,0.0,0.0,0.0,0.0,0.0,0.0,0.0,0.0,0.0,0.0,0.0,0.0,0.0,0.0,0.0,0.0,0.0,0.0,0.0,0.0,0.0,0.0,0.0,0.0,0.0,0.0,0.0,0.0,0.0,0.0,0.0,0.0,0.0,0.0,0.0,0.0,0.0,0.0,0.0,0.0,0.0,0.0,0.0,0.0,0.0,0.0,0.0,0.0,0.0,0.0,0.0,0.0,0.0,0.0,0.0,0.0,0.0,0.0,0.0,0.0,0.0,0.0,0.0,0.0,0.0,0.0,0.0,0.0,0.0,0.0,0.0,0.0,0.0,0.0,0.0,0.0,0.0,0.0,0.0,0.0,0.0,0.0,0.0,0.0,0.0,0.0,0.0,0.0,0.0,0.0,-2.9902,0.0,0.0,0.0,0.0,0.0,0.0,0.0,0.0,0.0,0.0,0.0,0.0,0.0,0.0,0.0,0.0,0.0,0.0,0.0,0.0,0.0,0.0,0.0,0.0,0.0,0.0,0.0,0.0,0.0,0.0,0.0,0.0,0.0,0.0,0.0,0.0,0.0,0.0,0.0,0.0,0.0,0.0,0.0,0.0,0.0,0.0,0.0,0.0,0.0,0.0,0.0,0.0,0.0,0.0,0.0,0.0,0.0,0.0,0.0,0.0,0.0,0.0,0.0,0.0,0.0,0.0,0.0,0.0,0.0,0.0,0.0,0.0,0.0,0.0,0.0,0.0,0.0,0.0,0.0,0.0,0.0,0.0,0.0,0.0,0.0,0.0,0.0,0.0,0.0,0.0,0.0,0.0,0.0,0.0,0.0,0.0,0.0,0.0,0.0,0.0,0.0,0.0,0.0,0.0,0.0,0.0,0.0,0.0,-2.8252,-2.8935,-3.0086,-3.0086,-3.0365,-3.0777,-2.988,-2.9926,-3.0578,0.0,0.0,0.0,0.0,0.0,0.0,0.0,0.0,0.0,0.0,0.0,0.0,0.0,0.0,0.0,0.0,0.0,0.0,0.0,0.0,0.0,0.0,0.0,0.0,0.0,0.0,0.0,0.0,0.0,0.0,0.0,0.0,0.0,0.0,0.0,0.0,0.0,0.0,0.0,0.0,0.0,0.0,0.0,0.0,0.0,0.0,0.0,0.0,0.0,0.0,0.0,0.0,0.0,0.0,0.0,0.0,0.0,0.0,0.0,0.0,0.0,0.0,0.0,0.0,0.0,0.0,0.0,0.0,0.0,0.0,0.0,0.0,0.0,0.0,0.0,0.0,0.0,0.0,0.0,0.0,0.0,0.0,0.0,0.0,0.0,0.0,0.0,-2.9393,-2.891,0.0,0.0,0.0,0.0,0.0,0.0,0.0,0.0,0.0,0.0,0.0,0.0,0.0,0.0,-2.984,-2.891,-2.8943,-2.9839,-2.9839,-2.9976,-3.0228,-3.0228,-3.0194,-3.0319,-3.0125,0.0,-3.0578,-3.0883,0.0,0.0,0.0,0.0,0.0,0.0,0.0,0.0,0.0,0.0,0.0,0.0,0.0,0.0,0.0,0.0,0.0,0.0,0.0,0.0,0.0,0.0,0.0,0.0,0.0,0.0,0.0,0.0,0.0,0.0,0.0,0.0,0.0,0.0,0.0,0.0,0.0,0.0,0.0,0.0,0.0,0.0,0.0,0.0,0.0,0.0,0.0,0.0,0.0,0.0,0.0,0.0,0.0,0.0,0.0,0.0,0.0,0.0,0.0,0.0,0.0,0.0,0.0,0.0,0.0,0.0,0.0,0.0,0.0,0.0,0.0,0.0,0.0,0.0,0.0,0.0,0.0,0.0,0.0,0.0,0.0,0.0,0.0,0.0,0.0,-2.976,-2.9382,-2.9198,-2.8434,-2.7882,0.0,0.0,0.0,0.0,0.0,0.0,0.0,0.0,0.0,-2.8258,-2.8154,-2.8713,-3.0216,-2.9749,-2.9749,-3.0216,-3.0216,-3.0216,-3.0216,-3.0216,-3.0216,-3.0216,-3.0216,-3.0306,-3.0397,-3.0793,-3.1062,-3.1229,0.0,0.0,0.0,0.0,0.0,-3.5156,0.0,0.0,0.0,0.0,0.0,0.0,0.0,0.0,0.0,0.0,0.0,0.0,0.0,0.0,0.0,0.0,0.0,0.0,0.0,0.0,0.0,0.0,0.0,0.0,0.0,0.0,0.0,0.0,0.0,0.0,0.0,0.0,0.0,0.0,0.0,0.0,0.0,0.0,0.0,0.0,0.0,0.0,0.0,0.0,0.0,0.0,0.0,0.0,0.0,0.0,0.0,0.0,0.0,0.0,0.0,0.0,0.0,0.0,0.0,0.0,0.0,0.0,0.0,0.0,0.0,0.0,0.0,0.0,0.0,0.0,0.0,0.0,0.0,0.0,0.0,0.0,0.0,-2.9382,-2.9117,-2.8932,-2.7882,-2.7125,0.0,0.0,0.0,0.0,0.0,0.0,-2.5974,-2.6254,-2.7105,-2.8362,-2.8828,-2.9463,-3.0216,-3.0216,-3.0216,-3.0216,-3.0216,-3.0216,-3.0216,-3.0216,-3.0216,-3.0216,-3.0216,-3.0216,-3.0306,-3.0793,-3.1151,-3.1484,-3.2562,-3.3152,-3.3395,-3.4306,-3.5061,-3.5749,0.0,0.0,0.0,0.0,0.0,0.0,0.0,0.0,0.0,0.0,0.0,0.0,0.0,0.0,0.0,0.0,0.0,0.0,0.0,0.0,0.0,0.0,0.0,0.0,0.0,0.0,0.0,0.0,0.0,0.0,0.0,0.0,0.0,0.0,0.0,0.0,0.0,0.0,0.0,0.0,0.0,0.0,0.0,0.0,0.0,0.0,0.0,0.0,0.0,0.0,0.0,0.0,0.0,0.0,0.0,0.0,0.0,0.0,0.0,0.0,0.0,0.0,0.0,0.0,0.0,0.0,0.0,0.0,0.0,0.0,0.0,0.0,0.0,0.0,0.0,0.0,0.0,0.0,0.0,-2.7441,-2.7715,0.0,0.0,0.0,0.0,-2.5489,-2.579,-2.6274,-2.6733,-2.721,-2.806,-2.9393,-2.9852,-3.0125,-3.0216,-3.0216,-3.0216,-3.0216,-3.0216,-3.0216,-3.0216,-3.0216,-3.0216,-3.0216,-3.0216,-3.0306,-3.0578,-3.0883,-3.1484,-3.2314,-3.2821,-3.3479,-3.4389,-3.5237,-3.5655,-3.583,0.0,0.0,0.0,0.0,0.0,0.0,0.0,0.0,0.0,0.0,0.0,0.0,0.0,0.0,0.0,0.0,0.0,0.0,0.0,0.0,0.0,0.0,0.0,0.0,0.0,0.0,0.0,0.0,0.0,0.0,0.0,0.0,0.0,0.0,0.0,0.0,0.0,0.0,0.0,0.0,0.0,0.0,0.0,0.0,0.0,0.0,0.0,0.0,0.0,0.0,0.0,0.0,0.0,0.0,0.0,0.0,0.0,0.0,0.0,0.0,0.0,0.0,0.0,0.0,0.0,0.0,0.0,0.0,0.0,0.0,0.0,0.0,0.0,0.0,0.0,0.0,0.0,0.0,0.0,-2.8175,-2.7809,0.0,0.0,-2.7536,-2.7241,-2.6668,-2.6764,-2.6965,-2.7146,-2.7882,-2.8538,-2.9002,-2.976,-3.0216,-3.0216,-3.0216,-3.0216,-3.0216,-3.0216,-3.0216,-3.0216,-3.0216,-3.0216,-3.0216,-3.0397,-3.0812,-3.1488,-3.1865,-3.2215,-3.2636,-3.4152,-3.491,-3.5318,-3.6229,-3.6573,-3.6573,0.0,0.0,0.0,0.0,0.0,0.0,0.0,0.0,0.0,0.0,0.0,0.0,0.0,0.0,0.0,0.0,0.0,0.0,0.0,0.0,0.0,0.0,0.0,0.0,0.0,0.0,0.0,0.0,0.0,0.0,0.0,0.0,0.0,0.0,0.0,0.0,0.0,0.0,0.0,0.0,0.0,0.0,-3.6557,0.0,0.0,0.0,0.0,0.0,0.0,0.0,0.0,0.0,0.0,0.0,0.0,0.0,0.0,0.0,0.0,0.0,0.0,0.0,0.0,0.0,0.0,0.0,0.0,0.0,0.0,0.0,0.0,0.0,0.0,0.0,0.0,0.0,0.0,0.0,-2.7904,-2.8175,-2.7726,-2.7441,-2.7715,-2.7441,-2.7262,-2.7262,-2.7262,-2.7357,-2.7536,-2.8269,-2.8817,-2.9002,-2.9749,-3.0216,-3.0216,-3.0216,-3.0216,-3.0216,-3.0216,-3.0216,-3.0216,-3.0487,-3.0578,-3.0578,-3.1003,-3.1589,-3.2426,-3.3041,-3.3467,-3.3804,-3.5156,-3.591,-3.6243,-3.6822,-3.6978,-3.6978,0.0,0.0,0.0,0.0,0.0,0.0,0.0,0.0,0.0,0.0,0.0,0.0,0.0,0.0,0.0,0.0,0.0,0.0,0.0,0.0,0.0,0.0,0.0,0.0,0.0,0.0,0.0,0.0,0.0,0.0,0.0,0.0,0.0,0.0,0.0,0.0,0.0,0.0,0.0,0.0,0.0,0.0,-3.5639,0.0,0.0,0.0,0.0,0.0,0.0,0.0,0.0,0.0,0.0,0.0,0.0,0.0,0.0,0.0,0.0,0.0,0.0,0.0,0.0,0.0,0.0,0.0,0.0,0.0,0.0,0.0,0.0,0.0,0.0,0.0,0.0,0.0,-2.9407,-2.8186,-2.7262,-2.7262,-2.7262,-2.7262,-2.7262,-2.7262,-2.7262,-2.7262,-2.7262,-2.7536,-2.7998,-2.8445,-2.8921,-2.9485,-2.9943,-3.0216,-3.0216,-3.0216,-3.0216,-3.0216,-3.0216,-3.0216,-3.0216,-3.1038,-3.1306,-3.1395,-3.2064,-3.2722,-3.3382,-3.4332,-3.5087,-3.5749,-3.5749,-3.6243,-3.6978,-3.6978,-3.6978,-3.6978,0.0,0.0,0.0,0.0,0.0,0.0,0.0,0.0,0.0,0.0,0.0,0.0,0.0,0.0,0.0,0.0,0.0,0.0,0.0,0.0,0.0,0.0,0.0,0.0,0.0,0.0,0.0,0.0,0.0,0.0,0.0,0.0,0.0,0.0,0.0,0.0,0.0,0.0,0.0,0.0,0.0,0.0,-3.6191,0.0,0.0,0.0,0.0,0.0,0.0,0.0,0.0,0.0,0.0,0.0,0.0,0.0,0.0,0.0,0.0,0.0,0.0,0.0,0.0,0.0,0.0,0.0,0.0,0.0,0.0,0.0,0.0,0.0,0.0,0.0,0.0,-2.9607,-2.8973,-2.7998,-2.7262,-2.7262,-2.7262,-2.7262,-2.7262,-2.7262,-2.7262,-2.7262,-2.7262,-2.7536,-2.7998,-2.8445,-2.8921,-2.9485,-2.9943,-3.0216,-3.0216,-3.0216,-3.0216,-3.0216,-3.0758,-3.1038,-3.1026,-3.1713,-3.2064,-3.2064,-3.2426,-3.3262,-3.4332,-3.4772,-3.5588,-3.6652,-3.6652,-3.6808,-3.6978,-3.6978,-3.6978,-3.6978,0.0,0.0,0.0,0.0,0.0,0.0,0.0,0.0,0.0,0.0,0.0,0.0,0.0,0.0,0.0,0.0,0.0,0.0,0.0,0.0,0.0,0.0,0.0,0.0,0.0,0.0,0.0,0.0,0.0,0.0,0.0,0.0,0.0,0.0,0.0,0.0,0.0,0.0,0.0,0.0,0.0,0.0,-3.6293,-3.6519,-3.7229,-3.8191,-3.8261,-3.8877,-3.9652,-3.9433,0.0,0.0,0.0,0.0,0.0,0.0,0.0,0.0,0.0,0.0,0.0,0.0,0.0,0.0,0.0,0.0,0.0,0.0,0.0,0.0,0.0,0.0,0.0,0.0,-3.0244,-2.9545,-2.8802,-2.8023,-2.7504,-2.7326,-2.7262,-2.7262,-2.7262,-2.7262,-2.7262,-2.7262,-2.7262,-2.7631,-2.8269,-2.8549,-2.9106,-2.976,-3.0034,-3.0216,-3.0216,-3.0216,-3.0216,-3.0216,-3.0949,-3.1306,-3.1306,-3.2326,-3.276,0.0,-3.3471,-3.4204,-3.5101,-3.5453,-3.6111,0.0,0.0,0.0,0.0,0.0,-3.6978,-3.6978,0.0,0.0,0.0,0.0,0.0,0.0,0.0,0.0,0.0,0.0,0.0,0.0,0.0,0.0,0.0,0.0,0.0,0.0,0.0,0.0,0.0,0.0,0.0,0.0,0.0,0.0,0.0,0.0,0.0,0.0,0.0,0.0,0.0,0.0,0.0,0.0,0.0,0.0,0.0,0.0,0.0,0.0,-3.6139,-3.6416,-3.7015,-3.769,-3.786,-3.8327,-3.8849,-3.8993,0.0,0.0,0.0,0.0,0.0,0.0,0.0,0.0,0.0,0.0,0.0,0.0,0.0,0.0,0.0,0.0,0.0,0.0,0.0,0.0,0.0,0.0,0.0,0.0,-2.9899,-2.9082,-2.8665,-2.8187,-2.7683,-2.7306,-2.7231,-2.7262,-2.7262,-2.7262,-2.7262,-2.7262,-2.7262,-2.7715,-2.8631,0.0,0.0,0.0,0.0,-3.0216,-3.0216,-3.0216,-3.0216,-3.0306,-3.0968,-3.1388,-3.1476,-3.2709,-3.3331,-3.3467,-3.4568,-3.5264,-3.5723,-3.6232,-3.6615,-3.6978,-3.6978,-3.6978,-3.6978,-3.6978,-3.6978,0.0,0.0,0.0,0.0,0.0,0.0,0.0,0.0,0.0,0.0,0.0,0.0,0.0,0.0,0.0,0.0,0.0,0.0,0.0,0.0,0.0,0.0,0.0,0.0,0.0,0.0,0.0,0.0,0.0,0.0,0.0,0.0,0.0,0.0,0.0,0.0,0.0,0.0,0.0,0.0,0.0,0.0,0.0,-3.6097,-3.6182,-3.6667,-3.7284,-3.7362,-3.8084,-3.8986,-3.8642,-3.9053,-3.977,-3.9984,0.0,0.0,0.0,0.0,0.0,0.0,0.0,0.0,0.0,0.0,0.0,0.0,0.0,0.0,0.0,0.0,0.0,0.0,0.0,0.0,-3.0007,-2.9786,-2.9303,-2.8156,-2.7884,-2.7513,-2.6785,-2.7034,-2.7262,-2.7262,-2.7262,-2.7262,-2.7262,-2.7262,-2.7715,-2.8631,-2.8746,0.0,-3.0216,-3.0216,-3.0216,-3.0216,-3.0216,-3.0487,-3.1116,0.0,0.0,-3.2256,-3.2654,-3.3125,-3.358,-3.4138,-3.4875,-3.5723,-3.6232,-3.6615,-3.6978,-3.6978,-3.6978,-3.6978,-3.6978,-3.6978,-3.6978,0.0,0.0,0.0,0.0,0.0,0.0,0.0,0.0,0.0,0.0,0.0,0.0,0.0,0.0,0.0,0.0,0.0,0.0,0.0,0.0,0.0,0.0,0.0,0.0,0.0,0.0,0.0,0.0,0.0,0.0,0.0,0.0,0.0,0.0,0.0,0.0,0.0,0.0,0.0,0.0,0.0,0.0,-3.6239,-3.6935,-3.7432,-3.7756,-3.7844,-3.8253,-3.8719,-3.8456,-3.8814,-3.9455,-3.9438,-3.9522,-3.9643,0.0,0.0,0.0,0.0,0.0,0.0,0.0,0.0,0.0,0.0,0.0,0.0,0.0,0.0,-3.1368,0.0,0.0,-2.9792,-2.9792,-2.9792,-2.9386,-2.8326,-2.7925,-2.7428,-2.6407,-2.663,-2.691,-2.691,-2.7117,-2.7262,-2.7262,-2.7536,-2.7998,-2.8631,-2.9013,-2.9485,-3.0216,-3.0216,-3.0101,-2.986,-3.0194,-3.0332,-3.0521,-3.1269,-3.1813,-3.2117,-3.2497,-3.2855,-3.3143,-3.3754,-3.4562,-3.5382,-3.6318,-3.6836,-3.6978,-3.6978,-3.6978,-3.6978,-3.6978,-3.7211,-3.7429,0.0,0.0,0.0,0.0,0.0,0.0,0.0,0.0,0.0,0.0,0.0,0.0,0.0,0.0,0.0,0.0,0.0,0.0,0.0,0.0,0.0,0.0,0.0,0.0,0.0,0.0,0.0,0.0,0.0,0.0,0.0,0.0,0.0,0.0,0.0,0.0,0.0,0.0,0.0,0.0,0.0,0.0,-3.5971,-3.7473,-3.8129,-3.8256,-3.8382,-3.8415,-3.8368,-3.834,-3.8673,-3.9097,-3.9014,-3.9073,-3.934,-3.9961,-3.9817,0.0,0.0,0.0,0.0,0.0,0.0,0.0,0.0,0.0,-3.4587,-3.3644,-3.2861,-3.2001,-3.1031,-3.0406,-3.0011,-2.9792,-2.9792,-2.9468,-2.8633,-2.8,-2.7234,-2.5999,-2.6183,-2.6434,-2.6434,-2.6775,-2.7034,-2.7117,-2.7589,-2.8079,-2.8724,-2.9198,-2.9624,-3.0078,-3.0078,-2.9883,-2.9569,-3.0055,-3.0214,-3.0121,-3.1028,-3.1572,-3.1733,-3.2175,-3.2502,-3.2686,-3.3634,-3.4412,-3.5247,-3.6367,-3.6866,-3.6978,-3.7134,-3.7134,-3.7134,-3.7134,-3.7582,-3.8037,0.0,0.0,0.0,0.0,0.0,0.0,0.0,0.0,0.0,0.0,0.0,0.0,0.0,0.0,0.0,0.0,0.0,0.0,0.0,0.0,0.0,0.0,0.0,0.0,0.0,0.0,0.0,0.0,0.0,0.0,0.0,0.0,0.0,0.0,0.0,0.0,0.0,0.0,0.0,0.0,0.0,0.0,-3.4637,-3.6508,-3.7555,-3.8052,-3.8101,-3.8238,-3.8307,-3.8307,-3.8376,-3.8605,-3.9182,-3.9103,-3.8895,-3.9183,0.0,-3.8734,-3.8705,-3.8814,-3.9061,-3.9279,-3.8076,-3.6707,0.0,0.0,-3.4467,-3.3437,-3.3143,-3.2635,-3.118,-3.082,-3.0545,-2.9934,-2.9792,-2.9468,-2.8633,-2.7777,-2.6843,-2.5899,-2.5939,-2.5958,-2.5958,-2.6009,-2.6206,-2.661,-2.7094,-2.7828,-2.8724,-2.9209,-2.9568,-2.9596,-2.9573,-2.9604,-2.9653,-2.9777,-3.0325,-3.1478,-3.1073,-3.1212,-3.1772,-3.1405,-3.1672,-3.2478,-3.3854,-3.5038,-3.5989,-3.615,-3.6501,-3.7056,-3.7582,-3.781,-3.781,-3.781,-3.8188,-3.8708,0.0,0.0,0.0,0.0,0.0,0.0,0.0,0.0,0.0,0.0,0.0,0.0,0.0,0.0,0.0,0.0,0.0,0.0,0.0,0.0,0.0,0.0,0.0,0.0,0.0,0.0,0.0,0.0,0.0,0.0,0.0,0.0,0.0,0.0,0.0,0.0,0.0,0.0,0.0,0.0,0.0,0.0,-3.4311,-3.5281,-3.6395,-3.7468,-3.7676,-3.8144,0.0,0.0,-3.805,-3.8469,-3.8601,-3.8522,-3.8456,-3.8762,-3.8775,0.0,-3.8727,-3.8603,0.0,0.0,-3.7895,-3.6723,-3.6569,-3.5593,-3.4549,-3.4031,-3.352,-3.2861,-3.1783,-3.1193,-3.0683,0.0,-2.9792,-2.9702,-2.93,-2.7971,-2.6976,-2.6565,-2.5701,-2.5202,-2.5482,-2.573,-2.6072,-2.6527,-2.7296,-2.805,-2.8713,-2.9216,-2.9521,-2.9504,-2.9194,-2.9138,-2.9258,-2.9629,-3.0086,-3.0722,-3.0817,-3.1021,-3.1326,-3.1303,-3.1763,-3.2608,-3.3578,-3.4377,-3.5054,-3.577,-3.622,-3.6564,-3.7515,-3.8113,-3.8412,-3.8412,-3.8531,-3.871,0.0,0.0,0.0,0.0,0.0,0.0,0.0,0.0,0.0,0.0,0.0,0.0,0.0,0.0,0.0,0.0,0.0,0.0,0.0,0.0,0.0,0.0,0.0,0.0,0.0,0.0,0.0,0.0,0.0,0.0,0.0,0.0,0.0,0.0,0.0,0.0,0.0,0.0,0.0,0.0,0.0,0.0,-3.3852,-3.4357,-3.5313,-3.644,-3.6906,-3.7702,0.0,0.0,-3.7784,-3.8279,-3.831,-3.8234,-3.8158,-3.8456,-3.8467,-3.8448,-3.8551,0.0,0.0,-3.8546,-3.7623,-3.6596,-3.6569,-3.5721,-3.4802,-3.4481,-3.3962,-3.3227,-3.2304,-3.1636,-3.0921,-2.9934,-2.9792,-2.9792,-2.9792,-2.8223,-2.7069,-2.7069,-2.56,-2.4726,-2.5181,-2.5513,-2.5885,-2.6341,-2.7286,-2.8036,-2.8506,-2.9004,-2.9217,-2.9091,-2.8861,-2.8838,-2.8962,-2.9612,-3.0052,-3.0267,-3.0773,-3.0986,-3.0986,-3.1482,-3.2055,-3.2731,-3.3318,-3.3768,-3.4309,-3.5328,-3.6042,-3.6471,-3.7664,-3.8355,-3.8807,-3.8952,-3.8923,-3.8834,0.0,0.0,0.0,0.0,0.0,0.0,0.0,0.0,0.0,0.0,0.0,0.0,0.0,0.0,0.0,0.0,0.0,0.0,0.0,0.0,0.0,0.0,0.0,0.0,0.0,0.0,0.0,0.0,0.0,0.0,0.0,0.0,0.0,0.0,0.0,0.0,0.0,0.0,0.0,0.0,0.0,0.0,-3.2952,-3.4083,-3.4624,-3.4884,-3.5757,0.0,0.0,0.0,-3.7614,-3.7848,-3.8564,-3.8523,0.0,-3.8119,-3.7909,0.0,0.0,0.0,-3.7336,-3.8571,-3.7588,-3.6342,-3.6414,-3.5897,-3.5219,-3.4534,-3.4414,-3.3908,-3.2376,-3.2074,-3.1576,-3.0088,-2.9792,-2.9792,-2.9792,-2.8223,-2.7069,-2.7069,-2.56,-2.4726,0.0,-2.5244,-2.543,-2.5865,-2.6793,-2.7545,-2.8036,-2.8474,-2.8517,-2.8046,-2.8562,-2.894,-2.908,-2.9688,-3.0292,-3.0986,-3.0986,-3.0986,-3.0986,-3.1776,-3.2345,-3.2704,-3.3114,-3.362,-3.4239,-3.4796,-3.5813,-3.7098,-3.8165,-3.8602,-3.8672,-3.9253,-3.9471,-3.9364,0.0,0.0,0.0,0.0,0.0,0.0,0.0,0.0,0.0,0.0,0.0,0.0,0.0,0.0,0.0,0.0,0.0,0.0,0.0,0.0,0.0,0.0,0.0,0.0,0.0,0.0,0.0,0.0,0.0,0.0,0.0,0.0,0.0,0.0,0.0,0.0,0.0,0.0,0.0,0.0,0.0,0.0,-3.3244,-3.3653,-3.4166,-3.4613,0.0,0.0,0.0,0.0,0.0,0.0,-3.7711,0.0,0.0,-3.8168,-3.7647,-3.7231,0.0,0.0,-3.6961,-3.7403,-3.671,-3.6055,-3.6268,-3.5828,-3.5288,-3.5115,-3.5088,-3.4461,-3.2506,-3.2074,-3.1576,-3.0088,-2.9792,-2.9624,-2.904,-2.7891,-2.7019,-2.6774,-2.5658,0.0,0.0,0.0,0.0,-2.5844,-2.6772,-2.7381,-2.7555,-2.7978,-2.8149,-2.7989,-2.8292,-2.8647,-2.9114,-2.9724,-3.0343,-3.0986,-3.0986,-3.1272,-3.1776,-3.1982,-3.2503,-3.3086,-3.3241,-3.3634,-3.4168,-3.4778,-3.5476,-3.6333,-3.7455,-3.7925,-3.7933,-3.8126,-3.8185,-3.8138,0.0,0.0,0.0,0.0,0.0,0.0,0.0,0.0,0.0,0.0,0.0,0.0,0.0,0.0,0.0,0.0,0.0,0.0,0.0,0.0,0.0,0.0,0.0,0.0,0.0,0.0,0.0,0.0,0.0,0.0,0.0,0.0,0.0,0.0,0.0,0.0,0.0,0.0,0.0,0.0,0.0,0.0,-3.392,-3.3658,-3.3847,0.0,0.0,0.0,0.0,0.0,0.0,0.0,0.0,-3.7851,-3.8446,-3.8168,-3.7721,-3.7297,-3.7219,-3.6956,-3.6678,-3.6783,-3.6286,-3.5824,-3.615,-3.5949,-3.5612,-3.5489,-3.5413,-3.478,-3.282,-3.2277,-3.1576,-3.0088,-2.9792,-2.9468,-2.8633,-2.7801,-2.7126,-2.6604,-2.5865,0.0,0.0,0.0,0.0,-2.5854,-2.6622,-2.7064,-2.7064,-2.7471,-2.7713,-2.7713,-2.8265,-2.8676,-2.9073,-2.9973,-3.0559,-3.0986,-3.0986,-3.1421,-3.2128,-3.2128,-3.2503,-3.3326,-3.3507,-3.3756,-3.4182,-3.4913,-3.556,-3.6231,-3.7216,-3.7582,-3.7537,-3.7533,-3.7353,-3.7138,0.0,0.0,0.0,0.0,0.0,0.0,0.0,0.0,0.0,0.0,0.0,0.0,0.0,0.0,0.0,0.0,0.0,0.0,0.0,0.0,0.0,0.0,0.0,0.0,0.0,0.0,0.0,0.0,0.0,0.0,0.0,0.0,0.0,0.0,0.0,0.0,0.0,0.0,0.0,0.0,0.0,0.0,-3.4869,-3.4073,0.0,0.0,0.0,0.0,0.0,0.0,0.0,0.0,0.0,-3.7906,-3.8428,-3.8201,-3.8101,-3.7913,-3.717,-3.6724,-3.6488,-3.6706,-3.6245,-3.5794,-3.5951,-3.6158,-3.6143,-3.559,-3.5445,-3.4875,0.0,0.0,-3.1549,-3.0075,-2.9792,-2.9456,-2.8542,-2.8093,-2.7499,0.0,0.0,0.0,0.0,0.0,0.0,-2.5875,0.0,-2.6616,-2.6594,-2.6997,-2.7231,-2.7231,-2.8462,-2.9086,-2.9183,-3.0355,-3.0986,-3.0986,-3.0986,-3.1421,-3.2128,-3.2128,-3.2574,-3.3382,-3.3894,-3.4138,-3.4274,-3.5285,-3.6114,-3.6753,-3.7238,-3.7446,-3.7446,-3.7446,-3.7046,-3.6492,0.0,0.0,0.0,0.0,0.0,0.0,0.0,0.0,0.0,0.0,0.0,0.0,0.0,0.0,0.0,0.0,0.0,0.0,0.0,0.0,0.0,0.0,0.0,0.0,0.0,0.0,0.0,0.0,0.0,0.0,0.0,0.0,0.0,0.0,0.0,0.0,0.0,0.0,0.0,0.0,0.0,0.0,-3.5593,0.0,0.0,0.0,0.0,0.0,0.0,0.0,0.0,0.0,0.0,-3.8327,-3.851,-3.8546,-3.8318,-3.8068,-3.7844,-3.7377,-3.6935,-3.6582,-3.6268,-3.5982,-3.596,-3.5973,-3.589,-3.5554,-3.512,-3.447,0.0,0.0,0.0,-3.0693,-3.0139,0.0,-2.7637,-2.767,0.0,-2.6182,0.0,-2.6579,-2.7044,-2.6351,0.0,0.0,-2.6354,-2.6474,-2.6103,-2.6806,-2.7464,-2.7938,-2.87,-2.9312,-2.9761,-3.0585,-3.0986,-3.0986,-3.0986,-3.1421,-3.2128,-3.2128,-3.2761,-3.3894,-3.4016,-3.4543,-3.5285,-3.5623,-3.6064,-3.6549,-3.6675,-3.6738,-3.6738,-3.6738,-3.6645,-3.6554,0.0,0.0,0.0,0.0,0.0,0.0,0.0,0.0,0.0,0.0,0.0,0.0,0.0,0.0,0.0,0.0,0.0,0.0,0.0,0.0,0.0,0.0,0.0,0.0,0.0,0.0,0.0,0.0,0.0,0.0,0.0,0.0,0.0,0.0,0.0,0.0,0.0,0.0,0.0,0.0,0.0,0.0,0.0,0.0,0.0,0.0,0.0,0.0,0.0,0.0,0.0,-3.6356,-3.7618,-3.8016,-3.805,-3.8135,0.0,-3.7809,-3.7739,-3.745,-3.7094,-3.6741,-3.6291,-3.5922,-3.5896,-3.5791,-3.5558,-3.5214,-3.5033,0.0,0.0,0.0,0.0,0.0,0.0,0.0,-2.7313,-2.7363,-2.7151,0.0,-2.6465,0.0,-2.7231,-2.6423,-2.5875,0.0,-2.6162,-2.619,-2.5917,-2.6738,-2.751,-2.8184,-2.8754,-2.9543,-3.0394,-3.0812,-3.0986,-3.0986,-3.0986,-3.1373,-3.2063,-3.2082,-3.2818,-3.407,0.0,-3.4957,-3.5688,-3.5943,-3.6226,-3.6492,-3.6492,-3.6492,-3.6492,-3.6492,-3.6492,-3.6554,0.0,0.0,0.0,0.0,0.0,0.0,0.0,0.0,0.0,0.0,0.0,0.0,0.0,0.0,0.0,0.0,0.0,0.0,0.0,0.0,0.0,0.0,0.0,0.0,0.0,0.0,0.0,0.0,0.0,0.0,0.0,0.0,0.0,0.0,0.0,0.0,0.0,0.0,0.0,0.0,0.0,0.0,0.0,0.0,0.0,0.0,0.0,0.0,0.0,0.0,-3.6183,-3.6363,-3.7182,-3.7413,-3.7413,-3.7469,-3.7505,-3.7505,-3.7339,-3.7301,-3.7281,-3.7126,-3.6416,-3.583,-3.5907,-3.5552,-3.511,-3.4679,0.0,-3.4182,-3.1904,-3.164,-3.1288,-2.944,0.0,-2.8131,-2.7232,-2.7175,-2.684,-2.5875,-2.6599,-2.7156,-2.7156,-2.6331,-2.5785,-2.5875,-2.5915,-2.5895,-2.5895,-2.6738,-2.7568,-2.8292,-2.8967,-2.9867,-3.0986,-3.0986,-3.0986,-3.0986,-3.1048,-3.14,-3.2112,-3.2255,-3.296,-3.4221,0.0,0.0,-3.5816,-3.6289,-3.6492,-3.6492,-3.6492,-3.6492,-3.6492,-3.6492,-3.6492,-3.6616,0.0,0.0,0.0,0.0,0.0,0.0,0.0,0.0,0.0,0.0,-3.4278,0.0,0.0,0.0,0.0,0.0,0.0,0.0,0.0,0.0,0.0,0.0,0.0,0.0,0.0,0.0,0.0,0.0,0.0,0.0,0.0,0.0,0.0,0.0,0.0,0.0,0.0,0.0,0.0,0.0,0.0,0.0,0.0,0.0,0.0,0.0,0.0,0.0,0.0,0.0,-3.5798,-3.6417,-3.7237,-3.7469,-3.7469,-3.7505,-3.7614,-3.7739,-3.7703,-3.7739,-3.7739,-3.754,-3.6974,-3.635,-3.5994,-3.5195,0.0,0.0,0.0,-3.2462,-3.2305,-3.1313,-3.0542,-3.0546,0.0,0.0,0.0,0.0,-2.6662,0.0,0.0,0.0,0.0,0.0,0.0,0.0,0.0,0.0,-2.5895,-2.6738,-2.7778,-2.8875,-3.0087,-3.0786,-3.0986,-3.0986,-3.0986,-3.0986,-3.132,-3.1743,-3.2098,-3.2874,-3.3782,-3.481,0.0,0.0,-3.6367,-3.6492,-3.6492,-3.6492,-3.6492,-3.6492,-3.6492,-3.6492,-3.6492,-3.6616,0.0,0.0,0.0,0.0,0.0,0.0,0.0,0.0,0.0,0.0,-3.4414,-3.4142,0.0,0.0,0.0,0.0,0.0,0.0,0.0,0.0,0.0,0.0,0.0,0.0,0.0,0.0,0.0,0.0,0.0,0.0,0.0,0.0,0.0,0.0,0.0,0.0,0.0,0.0,0.0,0.0,0.0,0.0,0.0,0.0,0.0,0.0,0.0,0.0,0.0,0.0,-3.4731,-3.5129,-3.6,-3.6323,-3.6323,-3.6381,-3.6464,-3.6586,-3.6768,-3.6843,-3.686,-3.686,-3.6457,-3.595,-3.5397,0.0,0.0,0.0,-3.2536,-3.1955,-3.1105,0.0,0.0,0.0,0.0,0.0,0.0,0.0,0.0,0.0,0.0,0.0,0.0,0.0,0.0,0.0,0.0,0.0,-2.5917,-2.7355,-2.8502,-2.9048,-3.0304,-3.0986,-3.0986,-3.0986,-3.0986,-3.0986,-3.1389,-3.1928,-3.2514,-3.3226,-3.4192,-3.535,-3.5623,0.0,-3.6492,-3.6492,-3.6492,-3.6492,-3.6492,-3.6492,-3.6492,-3.6492,-3.6492,-3.6616,0.0,0.0,0.0,0.0,0.0,0.0,0.0,-3.5082,-3.4935,-3.475,-3.4549,-3.4414,-3.4196,-3.4088,-3.3965,0.0,0.0,0.0,0.0,0.0,0.0,0.0,0.0,0.0,0.0,0.0,0.0,0.0,0.0,0.0,0.0,0.0,0.0,0.0,0.0,0.0,0.0,0.0,0.0,0.0,0.0,0.0,0.0,0.0,0.0,0.0,0.0,0.0,0.0,0.0,-3.3585,-3.3652,-3.4447,-3.4752,-3.4894,-3.5161,-3.5299,-3.5391,-3.5671,-3.5847,-3.5977,-3.6147,-3.5907,-3.5464,-3.4828,-3.4202,0.0,0.0,-3.2184,-3.1746,-3.0083,0.0,0.0,0.0,0.0,0.0,0.0,0.0,0.0,0.0,0.0,0.0,0.0,0.0,0.0,0.0,0.0,0.0,-2.6168,-2.8058,-2.909,-2.9145,-3.0342,-3.0986,-3.0986,-3.0986,-3.0986,-3.0986,-3.1496,-3.2122,-3.2939,-3.3522,-3.4528,-3.5688,-3.5816,0.0,0.0,-3.6492,-3.6492,-3.6492,-3.6492,-3.6492,-3.6492,-3.6492,-3.66,-3.6769,0.0,0.0,0.0,0.0,0.0,0.0,0.0,-3.5294,-3.5082,-3.4935,-3.475,-3.4631,-3.4414,-3.4346,0.0,0.0,0.0,0.0,0.0,0.0,0.0,0.0,0.0,0.0,0.0,0.0,0.0,0.0,0.0,0.0,0.0,0.0,0.0,0.0,0.0,0.0,0.0,0.0,0.0,0.0,0.0,0.0,0.0,0.0,0.0,0.0,0.0,0.0,0.0,0.0,0.0,-3.2879,-3.2986,-3.3411,-3.3939,-3.4528,0.0,0.0,-3.517,-3.5664,-3.619,-3.619,-3.5907,-3.5464,-3.4828,0.0,0.0,-3.2492,-3.1797,-3.1147,-3.0632,-2.9757,0.0,0.0,0.0,0.0,0.0,0.0,0.0,0.0,0.0,0.0,0.0,0.0,0.0,0.0,0.0,0.0,0.0,-2.8386,-2.9084,-2.9089,-3.0305,-3.0986,-3.0986,-3.0986,-3.0986,-3.0986,-3.169,-3.2374,-3.2939,-3.4207,-3.5073,-3.5752,0.0,0.0,0.0,-3.6492,-3.6492,-3.6492,-3.6492,-3.6492,-3.6492,-3.6492,-3.6846,-3.7417,0.0,0.0,0.0,0.0,0.0,0.0,0.0,-3.5359,-3.5148,-3.4935,-3.475,-3.4631,-3.4414,-3.4414,-3.4346,0.0,0.0,0.0,0.0,0.0,0.0,0.0,0.0,0.0,0.0,0.0,0.0,0.0,0.0,0.0,0.0,0.0,0.0,0.0,0.0,0.0,0.0,0.0,0.0,0.0,0.0,0.0,0.0,0.0,0.0,0.0,0.0,0.0,0.0,0.0,0.0,0.0,-3.1217,-3.1172,0.0,0.0,-3.3719,-3.3855,-3.3905,-3.4186,-3.4478,-3.483,-3.4528,-3.4071,-3.3855,0.0,-3.2461,-3.145,-3.1108,-3.0867,-3.031,-2.9477,-2.8655,0.0,0.0,0.0,0.0,0.0,0.0,0.0,0.0,0.0,0.0,0.0,0.0,0.0,0.0,0.0,0.0,-2.8398,-2.9088,-2.9124,-3.0353,-3.0986,-3.0986,-3.0986,-3.0986,-3.0986,-3.1776,-3.2541,-3.3396,-3.4427,-3.535,-3.6211,0.0,0.0,0.0,-3.6492,-3.6492,-3.6492,-3.6492,-3.6492,-3.6554,-3.6892,-3.7178,-3.7519,0.0,0.0,0.0,0.0,0.0,0.0,-3.6073,-3.5926,-3.5703,-3.5244,-3.5096,-3.4902,-3.4428,-3.4182,-3.4045,-3.4045,0.0,0.0,0.0,0.0,0.0,0.0,0.0,0.0,0.0,0.0,0.0,-2.6921,0.0,0.0,0.0,0.0,0.0,0.0,0.0,0.0,0.0,0.0,0.0,0.0,0.0,0.0,0.0,0.0,0.0,0.0,0.0,0.0,0.0,0.0,0.0,0.0,0.0,0.0,0.0,0.0,-3.2485,-3.2594,-3.2879,-3.3093,-3.3303,-3.3713,-3.3355,-3.2886,0.0,0.0,-3.1537,-3.0635,-3.0628,-3.0542,-3.0041,-2.9189,-2.8211,0.0,0.0,0.0,0.0,0.0,0.0,0.0,0.0,0.0,0.0,0.0,0.0,0.0,0.0,0.0,0.0,-2.8257,-2.8915,-2.912,-3.0329,-3.0986,-3.0986,-3.0986,-3.0986,-3.0986,-3.1901,-3.2807,-3.3717,-3.4684,-3.5623,-3.6492,0.0,0.0,0.0,-3.6492,-3.6492,-3.6492,-3.6492,-3.6492,-3.6538,-3.7178,-3.7519,-3.7854,0.0,0.0,0.0,0.0,0.0,0.0,0.0,-3.7389,-3.7014,-3.6035,-3.5893,-3.5521,-3.4472,-3.3673,-3.3213,-3.3213,0.0,0.0,0.0,0.0,0.0,0.0,0.0,0.0,0.0,0.0,-2.6544,-2.6921,-2.6921,-2.7324,0.0,0.0,0.0,0.0,0.0,0.0,0.0,0.0,0.0,0.0,0.0,0.0,0.0,0.0,0.0,0.0,0.0,0.0,0.0,0.0,0.0,0.0,0.0,0.0,0.0,0.0,-3.1332,-3.1562,-3.2201,-3.2803,-3.3182,-3.3198,-3.271,-3.2063,0.0,0.0,-3.043,-3.0383,-3.0319,-3.0236,-2.9961,-2.8781,-2.7522,-2.6682,0.0,0.0,0.0,0.0,0.0,0.0,0.0,0.0,0.0,0.0,0.0,0.0,0.0,0.0,0.0,-2.7976,-2.8527,-2.9114,-3.0316,-3.0986,-3.0986,-3.0986,-3.0986,-3.0986,-3.2299,-3.3149,-3.3723,-3.5106,-3.5958,0.0,0.0,0.0,0.0,-3.6492,-3.6492,-3.6492,-3.6492,-3.6492,-3.6538,-3.7178,-3.7854,-3.8613,0.0,0.0,0.0,0.0,0.0,0.0,0.0,-3.7404,-3.7207,-3.6684,-3.6586,-3.6134,-3.4953,-3.427,-3.3429,-3.2286,0.0,0.0,0.0,0.0,0.0,0.0,0.0,0.0,0.0,0.0,-2.687,-2.7112,-2.7578,-2.7787,-2.7841,-2.8505,0.0,0.0,0.0,0.0,0.0,0.0,0.0,0.0,0.0,0.0,0.0,0.0,0.0,0.0,0.0,0.0,0.0,0.0,0.0,0.0,0.0,0.0,0.0,0.0,0.0,0.0,-3.0346,-3.0556,-3.0778,-3.1157,-3.0822,-3.0524,-3.1112,-3.083,-3.0397,-3.0333,-3.0306,-3.0053,-2.9507,-2.812,-2.7046,-2.6741,0.0,0.0,0.0,0.0,0.0,0.0,0.0,0.0,0.0,0.0,0.0,0.0,0.0,0.0,0.0,-2.775,-2.8375,-2.8523,-2.9355,-2.9804,-2.981,-2.9823,-2.9823,-2.981,-3.1074,-3.1961,-3.2484,-3.3767,0.0,0.0,0.0,0.0,0.0,-3.6307,-3.6492,-3.6492,-3.6492,-3.6492,-3.66,-3.7621,-3.8238,-3.8668,0.0,0.0,0.0,0.0,0.0,0.0,0.0,-3.8167,-3.7953,-3.7379,-3.6965,-3.6317,-3.5156,-3.414,-3.3171,-3.2162,0.0,0.0,0.0,0.0,0.0,0.0,0.0,0.0,0.0,-2.7468,-2.7128,-2.7061,-2.7471,-2.758,-2.7401,-2.8158,-2.8244,-2.7812,0.0,0.0,0.0,0.0,0.0,0.0,0.0,0.0,-2.9209,0.0,0.0,0.0,0.0,0.0,0.0,0.0,0.0,0.0,0.0,0.0,0.0,0.0,-2.7709,0.0,0.0,-2.9164,-2.9407,-3.0207,-2.9764,0.0,0.0,-2.9845,-2.9276,-2.9476,-2.9434,-2.93,-2.8872,-2.7826,-2.6812,-2.6141,0.0,0.0,0.0,0.0,0.0,0.0,0.0,0.0,0.0,0.0,0.0,0.0,0.0,0.0,0.0,0.0,-2.8026,-2.8026,-2.8812,-2.9282,-2.927,-2.9302,-2.9355,-2.9469,-3.0815,-3.166,-3.2105,-3.3412,0.0,0.0,0.0,0.0,0.0,-3.5553,-3.5737,-3.5814,-3.6304,-3.6457,-3.6654,-3.8084,-3.8739,-3.9049,0.0,0.0,0.0,0.0,0.0,0.0,0.0,0.0,0.0,0.0,-3.7126,-3.6202,-3.5088,-3.356,-3.2632,0.0,0.0,0.0,0.0,0.0,0.0,0.0,0.0,0.0,0.0,-2.7621,-2.7459,-2.6892,-2.6968,-2.7031,-2.6995,-2.7619,-2.7963,-2.7913,-2.8626,0.0,0.0,0.0,0.0,0.0,0.0,0.0,0.0,0.0,0.0,0.0,0.0,0.0,0.0,0.0,0.0,0.0,0.0,0.0,0.0,0.0,0.0,0.0,0.0,0.0,0.0,0.0,0.0,0.0,0.0,-2.8303,0.0,-2.8157,-2.8268,-2.8195,-2.8243,-2.7742,-2.6801,-2.5136,0.0,0.0,0.0,0.0,0.0,0.0,0.0,0.0,0.0,0.0,0.0,0.0,0.0,0.0,0.0,0.0,-2.7523,-2.7523,-2.8559,-2.9174,-2.9174,-2.9238,-2.9398,-2.974,-3.1185,-3.1997,-3.2344,-3.3743,0.0,0.0,0.0,0.0,0.0,-3.4445,-3.4534,-3.4697,-3.5886,-3.6368,-3.6603,-3.84,-3.9182,-3.9511,0.0,0.0,0.0,0.0,0.0,0.0,0.0,0.0,0.0,0.0,0.0,-3.6381,-3.47,-3.3804,0.0,0.0,0.0,0.0,0.0,0.0,0.0,0.0,0.0,0.0,0.0,-2.692,-2.7278,-2.7162,-2.781,-2.7933,-2.7536,-2.7678,-2.7536,-2.7148,-2.736,-2.7705,0.0,0.0,0.0,0.0,0.0,0.0,0.0,0.0,0.0,0.0,-2.7569,-2.7458,0.0,0.0,0.0,0.0,0.0,0.0,0.0,0.0,-2.645,-2.6584,-2.6932,0.0,-2.7742,-2.8012,-2.7846,-2.7777,0.0,-2.8237,-2.8169,-2.8786,0.0,0.0,-2.8235,-2.6846,0.0,0.0,0.0,0.0,0.0,0.0,0.0,0.0,0.0,0.0,0.0,0.0,0.0,0.0,0.0,0.0,0.0,0.0,-2.7523,-2.7523,-2.7788,-2.792,-2.792,-2.8398,-2.8833,-2.9067,-3.0535,-3.1307,-3.1501,-3.2463,0.0,0.0,0.0,0.0,-3.369,-3.4245,-3.4736,-3.5122,-3.5449,-3.5792,-3.6287,-3.7228,-3.7686,-3.8003,0.0,0.0,0.0,0.0,0.0,0.0,0.0,0.0,0.0,0.0,0.0,0.0,0.0,0.0,0.0,0.0,0.0,0.0,0.0,0.0,0.0,0.0,0.0,0.0,-2.6412,-2.6505,-2.6588,-2.6588,-2.6999,-2.7105,-2.6841,-2.6841,-2.6862,-2.7089,-2.7502,-2.8009,0.0,0.0,0.0,0.0,-2.836,0.0,0.0,0.0,0.0,0.0,-2.7585,-2.7412,0.0,-2.6896,-2.6812,-2.6887,0.0,0.0,0.0,0.0,-2.6317,-2.6492,-2.6492,-2.6764,-2.7085,-2.7641,-2.7551,-2.7533,-2.8077,0.0,0.0,0.0,0.0,0.0,0.0,0.0,0.0,0.0,0.0,0.0,0.0,0.0,0.0,0.0,0.0,0.0,0.0,0.0,0.0,0.0,0.0,0.0,0.0,0.0,-2.7523,-2.7523,-2.7523,-2.7656,-2.7973,-2.8287,-2.8853,-2.9532,-3.0495,-3.116,-3.148,-3.2104,0.0,0.0,0.0,0.0,-3.2967,-3.3619,-3.4093,-3.4422,-3.5294,-3.5792,-3.6186,-3.7169,-3.7578,-3.7838,0.0,0.0,0.0,0.0,0.0,0.0,0.0,0.0,0.0,0.0,0.0,0.0,0.0,0.0,0.0,0.0,0.0,0.0,0.0,0.0,0.0,0.0,0.0,-2.6896,-2.6813,-2.6056,-2.5676,-2.5676,-2.5768,-2.5819,-2.5819,-2.5819,-2.6246,-2.701,-2.7753,-2.8417,0.0,0.0,0.0,0.0,-2.8007,0.0,0.0,0.0,0.0,0.0,0.0,0.0,0.0,-2.6527,-2.6375,-2.6464,-2.6167,0.0,0.0,0.0,0.0,0.0,-2.6245,-2.6311,-2.6688,-2.7758,-2.7633,-2.7451,-2.7912,0.0,0.0,0.0,0.0,0.0,0.0,0.0,0.0,0.0,0.0,0.0,0.0,0.0,0.0,0.0,0.0,0.0,0.0,0.0,0.0,0.0,0.0,0.0,0.0,0.0,0.0,-2.7523,-2.7523,-2.7842,-2.8661,-2.8661,-2.9219,-3.0389,-3.0925,-3.1349,-3.1796,-3.2231,0.0,0.0,0.0,0.0,-3.2437,-3.2986,-3.3235,-3.3507,-3.5169,-3.5891,-3.6102,-3.7246,-3.7763,-3.7906,0.0,0.0,0.0,0.0,0.0,0.0,0.0,0.0,0.0,0.0,0.0,0.0,0.0,0.0,0.0,0.0,0.0,0.0,0.0,0.0,0.0,0.0,-2.6761,-2.5637,-2.4836,-2.5077,-2.5222,-2.5222,-2.5604,-2.5819,-2.5819,-2.5819,-2.5913,-2.5997,-2.6163,-2.6704,-2.7452,-2.6528,-2.6494,-2.6987,-2.6987,0.0,0.0,0.0,0.0,0.0,0.0,0.0,0.0,-2.7658,-2.7646,-2.7646,-2.7566,0.0,0.0,0.0,0.0,0.0,-2.4978,-2.5333,-2.6129,-2.7151,-2.7267,-2.7209,-2.7371,0.0,0.0,0.0,0.0,0.0,0.0,0.0,0.0,0.0,0.0,0.0,0.0,0.0,0.0,0.0,0.0,0.0,0.0,0.0,0.0,0.0,0.0,0.0,0.0,0.0,0.0,-2.7523,-2.7523,-2.8078,-2.9317,-2.9331,-2.9827,-3.0718,-3.1509,-3.191,-3.2135,-3.2342,-3.2398,0.0,0.0,-3.2398,-3.2437,-3.2986,-3.3459,-3.3935,-3.4708,-3.5252,-3.5701,-3.6134,-3.6317,-3.6549,0.0,0.0,0.0,0.0,0.0,0.0,0.0,0.0,0.0,0.0,0.0,0.0,0.0,0.0,0.0,0.0,0.0,0.0,0.0,0.0,0.0,-2.6722,-2.6067,-2.5548,-2.5148,-2.4836,-2.4736,-2.4736,-2.4972,-2.5036,-2.5036,-2.5564,-2.5964,-2.6275,-2.6455,-2.692,-2.7498,-2.6725,-2.6367,-2.6444,0.0,0.0,0.0,0.0,0.0,0.0,0.0,0.0,0.0,0.0,-2.8111,-2.8203,-2.7962,0.0,0.0,0.0,0.0,0.0,-2.5242,-2.5158,-2.5168,-2.56,-2.6102,-2.6362,-2.5863,0.0,0.0,0.0,0.0,0.0,0.0,0.0,0.0,0.0,0.0,0.0,0.0,0.0,0.0,0.0,0.0,0.0,0.0,0.0,0.0,0.0,0.0,0.0,0.0,0.0,0.0,0.0,-2.7842,-2.8532,-2.9504,-2.9889,-3.051,-3.1437,-3.1811,-3.2094,-3.2287,-3.2398,-3.2398,-3.2398,0.0,-3.2398,-3.2437,-3.3303,-3.3767,-3.4086,-3.4927,-3.5379,-3.5622,-3.5888,-3.6062,-3.6397,0.0,0.0,0.0,0.0,0.0,0.0,0.0,0.0,0.0,0.0,0.0,0.0,0.0,0.0,0.0,0.0,0.0,0.0,0.0,0.0,-2.5742,-2.5742,-2.5742,-2.5698,-2.5737,-2.499,-2.457,-2.457,-2.4463,-2.4414,-2.4414,-2.5138,-2.5676,-2.6074,-2.6351,-2.6743,-2.7233,-2.6441,-2.5994,-2.5812,0.0,0.0,0.0,0.0,0.0,0.0,0.0,0.0,0.0,0.0,0.0,0.0,0.0,0.0,0.0,-2.667,-2.5579,-2.4573,-2.4808,-2.4467,-2.4145,-2.3887,0.0,-2.5326,-2.4659,0.0,0.0,0.0,0.0,0.0,0.0,0.0,0.0,0.0,0.0,0.0,0.0,0.0,0.0,0.0,0.0,0.0,0.0,0.0,0.0,0.0,0.0,0.0,0.0,0.0,0.0,0.0,-2.8157,-2.8839,-2.9504,-3.0147,-3.1014,-3.194,-3.1996,-3.2135,-3.2342,-3.2398,-3.2398,-3.2398,-3.2398,-3.2398,-3.2492,-3.3578,-3.3986,-3.4136,-3.5178,-3.5622,-3.5711,-3.5932,-3.6148,-3.649,0.0,0.0,0.0,0.0,0.0,0.0,0.0,0.0,0.0,0.0,0.0,0.0,0.0,0.0,0.0,0.0,0.0,0.0,0.0,0.0,-2.5742,-2.5742,-2.5742,-2.5703,-2.5741,-2.5234,-2.5019,-2.5019,-2.4619,-2.4414,-2.4414,-2.4506,-2.4526,-2.4545,-2.4608,-2.4965,-2.5513,-2.4579,-2.4549,-2.5038,-2.5179,0.0,0.0,0.0,0.0,0.0,0.0,0.0,0.0,0.0,0.0,0.0,0.0,0.0,-2.6472,-2.4638,-2.38,-2.3367,-2.2255,-2.2589,-2.3018,-2.2078,-2.329,0.0,-2.4498,-2.4498,0.0,0.0,0.0,0.0,0.0,0.0,0.0,0.0,0.0,0.0,0.0,0.0,0.0,0.0,0.0,0.0,0.0,0.0,0.0,0.0,0.0,0.0,0.0,0.0,0.0,0.0,0.0,-2.8839,-2.9504,-3.0147,-3.097,-3.1799,-3.194,-3.2094,-3.2247,-3.2342,-3.2398,-3.2398,-3.2398,-3.2398,-3.2492,-3.3578,-3.3986,-3.4136,-3.5178,-3.5756,-3.5975,-3.5975,-3.6148,-3.6422,0.0,0.0,0.0,0.0,0.0,0.0,0.0,0.0,0.0,0.0,0.0,0.0,0.0,0.0,0.0,0.0,0.0,0.0,0.0,0.0,-2.5742,-2.5742,-2.5742,-2.5742,-2.5742,-2.5566,-2.5488,-2.5488,-2.5322,-2.5234,-2.5234,-2.5234,-2.5234,-2.5234,-2.5234,-2.533,-2.5595,-2.5225,-2.5059,-2.5075,-2.5095,-2.4772,0.0,0.0,0.0,0.0,0.0,0.0,0.0,0.0,-2.8259,0.0,0.0,0.0,-2.6069,-2.5808,-2.4467,-2.3047,-2.2862,-2.2687,-2.2344,-2.182,0.0,0.0,0.0,0.0,0.0,0.0,0.0,0.0,0.0,0.0,0.0,0.0,0.0,0.0,0.0,0.0,0.0,0.0,0.0,0.0,0.0,0.0,0.0,0.0,0.0,0.0,0.0,0.0,0.0,0.0,0.0,-2.9268,-2.9504,-3.0584,-3.1394,-3.194,-3.1996,-3.2094,-3.2342,-3.2398,-3.2398,-3.2453,-3.2734,-3.2895,-3.2986,-3.407,-3.448,-3.4577,-3.5316,-3.5711,-3.5905,-3.5975,-3.6105,-3.6354,0.0,0.0,0.0,0.0,0.0,0.0,0.0,0.0,0.0,0.0,0.0,0.0,0.0,0.0,0.0,0.0,0.0,0.0,0.0,-2.61,-2.5742,-2.5742,-2.5742,-2.5742,-2.5742,-2.5742,-2.5742,-2.5742,-2.5742,-2.5742,-2.5742,-2.5742,-2.5742,-2.5742,-2.5742,-2.5635,-2.5538,-2.5538,-2.5363,-2.5178,-2.5178,-2.4662,0.0,0.0,0.0,0.0,0.0,0.0,0.0,0.0,0.0,0.0,0.0,0.0,0.0,0.0,-2.4478,-2.2882,-2.3125,-2.2696,-2.2185,0.0,0.0,0.0,0.0,0.0,0.0,0.0,0.0,0.0,0.0,0.0,0.0,0.0,0.0,0.0,0.0,0.0,0.0,0.0,0.0,0.0,0.0,0.0,0.0,0.0,0.0,0.0,0.0,0.0,0.0,0.0,0.0,0.0,-2.9827,-3.097,-3.1655,-3.1996,-3.1996,-3.215,-3.2398,-3.2398,-3.2398,-3.2453,-3.3002,-3.3182,-3.3287,-3.4366,-3.488,-3.5085,-3.547,-3.5711,-3.5844,-3.5975,-3.6105,-3.6319,0.0,0.0,0.0,0.0,0.0,0.0,0.0,0.0,0.0,0.0,0.0,0.0,0.0,0.0,0.0,0.0,0.0,0.0,0.0,-2.5742,-2.5742,-2.5742,-2.5742,-2.5742,-2.5742,-2.5742,-2.5742,-2.5742,-2.5742,-2.5742,-2.5742,-2.5742,-2.5742,-2.5742,-2.5742,-2.5538,-2.5333,-2.5333,-2.5333,-2.5333,-2.5333,-2.4909,-2.4414,0.0,0.0,0.0,0.0,0.0,0.0,0.0,-2.6412,0.0,0.0,0.0,0.0,0.0,-2.3464,-2.2803,-2.2441,-2.2432,-2.2353,0.0,0.0,0.0,0.0,0.0,0.0,0.0,0.0,0.0,0.0,0.0,0.0,0.0,0.0,0.0,0.0,0.0,0.0,0.0,0.0,0.0,0.0,0.0,0.0,0.0,0.0,0.0,0.0,0.0,0.0,0.0,0.0,0.0,-3.051,-3.1146,-3.1625,-3.1966,-3.1966,-3.2135,-3.2398,-3.2398,-3.2398,-3.2437,-3.2986,-3.3198,-3.3287,-3.4366,-3.5131,-3.5622,-3.5622,-3.5756,-3.6019,-3.6019,-3.6148,-3.6301,0.0,0.0,0.0,0.0,0.0,0.0,0.0,0.0,0.0,0.0,0.0,0.0,0.0,0.0,0.0,0.0,0.0,0.0,0.0,-2.5742,-2.5742,-2.5742,-2.5742,-2.5742,-2.5742,-2.5742,-2.5742,-2.5742,-2.5742,-2.5742,-2.5742,-2.5742,-2.5742,-2.5742,-2.5742,-2.5635,-2.5538,-2.5538,-2.5538,-2.5538,-2.5538,-2.511,-2.4414,0.0,0.0,0.0,0.0,0.0,0.0,0.0,0.0,0.0,0.0,0.0,0.0,0.0,-2.4648,-2.382,-2.2882,-2.3125,0.0,0.0,0.0,0.0,0.0,0.0,0.0,0.0,0.0,0.0,0.0,0.0,0.0,0.0,0.0,0.0,0.0,0.0,0.0,0.0,0.0,0.0,0.0,0.0,0.0,0.0,0.0,0.0,0.0,0.0,0.0,0.0,0.0,0.0,-2.9189,-2.9855,-3.0328,-3.0585,-3.0585,-3.1235,-3.2398,-3.2398,-3.2398,-3.2453,-3.3371,-3.3767,-3.3869,-3.4927,-3.547,-3.5622,-3.5711,-3.5817,-3.5905,-3.6079,-3.6165,-3.6251,0.0,0.0,0.0,0.0,0.0,0.0,0.0,0.0,0.0,0.0,0.0,0.0,0.0,0.0,0.0,0.0,0.0,0.0,0.0,0.0,-2.5742,-2.5742,-2.5742,-2.5742,-2.5742,-2.5742,-2.5742,-2.5742,-2.5742,-2.5742,-2.5742,-2.5742,-2.5742,-2.5742,-2.5742,-2.5742,-2.5742,-2.5742,-2.5742,-2.5723,-2.5547,-2.5049,-2.4394,0.0,0.0,0.0,0.0,0.0,0.0,0.0,0.0,0.0,0.0,0.0,0.0,-2.5997,-2.5411,-2.4914,-2.4145,0.0,0.0,0.0,0.0,0.0,0.0,0.0,0.0,0.0,0.0,0.0,0.0,0.0,0.0,0.0,0.0,0.0,0.0,0.0,0.0,0.0,0.0,0.0,0.0,0.0,0.0,0.0,0.0,0.0,0.0,0.0,0.0,0.0,0.0,0.0,-2.8987,-2.9401,-2.9687,-2.994,-2.994,-3.0525,-3.1543,-3.1559,-3.1705,-3.1955,-3.3321,-3.4153,-3.4673,-3.5316,-3.5622,-3.5622,-3.5773,-3.5817,-3.5905,-3.6122,-3.6208,-3.6251,0.0,0.0,0.0,0.0,0.0,0.0,0.0,0.0,0.0,0.0,0.0,0.0,0.0,0.0,0.0,0.0,0.0,0.0,0.0,0.0,-2.5742,-2.5742,-2.5742,-2.5742,-2.5742,-2.5742,-2.5742,-2.5742,-2.5742,-2.5742,-2.5742,-2.5742,-2.5742,-2.5742,-2.5742,-2.5742,-2.5742,-2.5742,-2.5713,-2.5644,-2.5234,-2.4785,-2.4316,-2.3935,0.0,0.0,0.0,0.0,0.0,0.0,0.0,0.0,0.0,0.0,0.0,-2.5986,-2.5913,-2.5913,0.0,0.0,0.0,0.0,0.0,0.0,0.0,0.0,0.0,0.0,0.0,0.0,0.0,0.0,0.0,0.0,0.0,0.0,0.0,0.0,0.0,0.0,0.0,0.0,0.0,0.0,0.0,0.0,0.0,0.0,0.0,0.0,0.0,0.0,0.0,0.0,-2.94,-2.94,-2.9507,0.0,-2.9758,-2.9863,-3.0005,-3.0299,-3.074,-3.1323,-3.291,-3.433,-3.552,-3.552,-3.5554,-3.5622,-3.5773,-3.5888,-3.6019,-3.6165,-3.6251,-3.6301,0.0,0.0,0.0,0.0,0.0,0.0,0.0,0.0,0.0,0.0,0.0,0.0,0.0,0.0,0.0,0.0,0.0,0.0,0.0,0.0,-2.5742,-2.5742,-2.5742,-2.5742,-2.5742,-2.5742,-2.5742,-2.5742,-2.5742,-2.5742,-2.5742,-2.5742,-2.5742,-2.5742,-2.5742,-2.5742,-2.5742,-2.5742,-2.5537,-2.5205,-2.5107,-2.4609,-2.3916,-2.3828,-2.3516,0.0,0.0,0.0,0.0,0.0,0.0,0.0,-2.6588,-2.7348,-2.7753,-2.7092,-2.6928,-2.6753,0.0,-2.6329,0.0,0.0,0.0,0.0,0.0,0.0,0.0,0.0,0.0,0.0,0.0,0.0,0.0,0.0,0.0,0.0,0.0,0.0,0.0,0.0,0.0,0.0,0.0,0.0,0.0,0.0,0.0,0.0,0.0,0.0,0.0,0.0,0.0,-2.7891,-2.8008,-2.8008,-2.8111,0.0,-2.8379,-2.848,-2.8694,-3.0242,-3.1437,-3.2285,-3.2677,-3.3579,-3.4742,-3.4742,-3.5081,-3.5622,-3.5844,-3.5975,-3.6019,-3.6233,-3.6301,-3.6301,0.0,0.0,0.0,0.0,0.0,0.0,0.0,0.0,0.0,0.0,0.0,0.0,0.0,0.0,0.0,0.0,0.0,0.0,0.0,0.0,0.0,0.0,-2.5742,-2.5742,-2.5742,-2.5742,-2.5742,-2.5742,-2.5742,-2.5742,-2.5742,-2.5742,-2.5742,-2.5742,-2.5742,-2.5742,-2.5742,-2.5742,-2.5478,-2.5049,-2.4844,-2.4365,-2.3769,-2.3555,-2.333,-2.3135,-2.3135,0.0,0.0,0.0,0.0,0.0,0.0,0.0,-2.7765,-2.7348,-2.7522,-2.7684,0.0,0.0,0.0,0.0,0.0,0.0,0.0,0.0,0.0,0.0,0.0,0.0,0.0,0.0,0.0,0.0,0.0,0.0,0.0,0.0,0.0,0.0,0.0,0.0,0.0,0.0,0.0,0.0,0.0,0.0,0.0,0.0,0.0,0.0,-2.7754,-2.7625,-2.7625,-2.7625,-2.7675,-2.779,-2.7955,-2.8235,-2.8653,-2.9911,-3.1089,-3.2133,-3.2367,-3.3043,-3.3964,-3.3964,-3.4464,-3.5186,-3.5403,-3.5711,-3.6122,-3.6259,-3.6301,-3.6301,0.0,0.0,0.0,0.0,0.0,0.0,0.0,0.0,0.0,0.0,0.0,0.0,0.0,0.0,0.0,0.0,0.0,0.0,0.0,0.0,0.0,0.0,-2.5742,-2.5742,-2.5742,-2.5742,-2.5742,-2.5742,0.0,0.0,0.0,-2.5742,-2.5742,-2.5742,-2.5742,-2.5742,-2.5742,-2.5742,-2.543,-2.4922,-2.456,-2.4121,-2.3652,-2.3359,-2.3252,-2.3262,-2.333,-2.331,-2.3252,-2.3418,0.0,0.0,0.0,0.0,-2.7429,-2.7429,-2.7926,-2.851,0.0,0.0,0.0,0.0,0.0,0.0,0.0,0.0,0.0,0.0,0.0,0.0,0.0,0.0,0.0,0.0,0.0,0.0,0.0,0.0,0.0,0.0,0.0,0.0,0.0,0.0,0.0,0.0,0.0,0.0,0.0,0.0,-2.7625,-2.7625,-2.7625,-2.7625,-2.7625,-2.7625,-2.7675,-2.779,-2.7955,-2.8414,-2.9136,-2.9572,-3.0381,-3.143,-3.1924,-3.2527,-3.322,-3.322,-3.3744,-3.4534,-3.4677,-3.5223,-3.6019,-3.6069,-3.6197,-3.6301,0.0,0.0,0.0,0.0,0.0,0.0,0.0,0.0,0.0,0.0,0.0,0.0,0.0,0.0,0.0,0.0,0.0,0.0,0.0,0.0,0.0,0.0,-2.5742,-2.5742,-2.5742,-2.5742,-2.5742,-2.5742,0.0,0.0,0.0,0.0,0.0,-2.5742,0.0,-2.5742,-2.5742,-2.5742,-2.5264,-2.4502,-2.4443,-2.3945,-2.3262,-2.3584,-2.3701,-2.375,-2.4121,-2.4014,-2.3781,-2.455,-2.5144,0.0,0.0,0.0,-2.8351,-2.8351,-2.8431,-2.851,0.0,0.0,0.0,0.0,0.0,0.0,0.0,0.0,0.0,0.0,0.0,0.0,0.0,0.0,0.0,0.0,0.0,0.0,0.0,0.0,0.0,0.0,0.0,0.0,0.0,0.0,0.0,0.0,0.0,0.0,0.0,-2.7299,-2.7625,-2.7625,-2.7625,-2.7625,-2.7625,-2.7625,-2.7675,-2.779,-2.8039,-2.8494,-2.9136,-2.9572,-3.0103,-3.0667,-3.115,-3.1749,-3.2483,-3.2557,-3.308,-3.3785,-3.3973,-3.45,-3.517,-3.5294,-3.5749,-3.6301,0.0,0.0,0.0,0.0,0.0,0.0,0.0,0.0,0.0,0.0,0.0,0.0,0.0,0.0,0.0,0.0,0.0,0.0,0.0,0.0,0.0,-2.5742,-2.5742,-2.5742,-2.5742,-2.5742,-2.5742,0.0,0.0,0.0,0.0,-2.5742,-2.5742,0.0,0.0,0.0,-2.5723,-2.5469,-2.5137,-2.4756,-2.4521,-2.4189,-2.3877,-2.4062,-2.4141,-2.417,-2.4346,-2.4297,-2.4232,-2.4575,-2.5409,-2.6234,-2.6657,0.0,0.0,0.0,-2.8736,0.0,0.0,0.0,0.0,0.0,0.0,0.0,0.0,0.0,0.0,0.0,0.0,0.0,0.0,0.0,0.0,0.0,0.0,0.0,0.0,0.0,0.0,0.0,0.0,0.0,0.0,0.0,0.0,0.0,0.0,0.0,-2.7306,-2.7575,-2.7675,-2.7625,-2.7625,-2.7625,-2.7625,-2.7625,-2.786,-2.8286,-2.8494,-2.8904,-2.9483,-2.9968,-3.0309,-3.0518,-3.1015,-3.1376,-3.1681,-3.1738,-3.2281,-3.3042,-3.3146,-3.3728,-3.4571,-3.5042,-3.5404,-3.5732,0.0,0.0,0.0,0.0,0.0,0.0,0.0,0.0,0.0,0.0,0.0,0.0,0.0,0.0,0.0,0.0,0.0,0.0,0.0,0.0,0.0,-2.5742,-2.5742,-2.5742,-2.5742,-2.5742,0.0,0.0,0.0,0.0,-2.5742,-2.5742,-2.5742,0.0,-2.5742,-2.5742,0.0,0.0,-2.5176,-2.5039,-2.4717,-2.4521,-2.4424,-2.4541,-2.458,-2.46,-2.4707,-2.4678,-2.458,-2.4848,-2.5799,-2.679,-2.6926,-2.7987,0.0,0.0,0.0,0.0,0.0,0.0,0.0,0.0,0.0,0.0,0.0,0.0,0.0,0.0,0.0,0.0,0.0,0.0,0.0,0.0,0.0,0.0,0.0,0.0,0.0,0.0,0.0,0.0,0.0,0.0,0.0,0.0,0.0,0.0,-2.784,-2.784,-2.779,-2.7675,-2.7675,-2.7675,-2.7675,-2.7675,-2.8008,-2.8559,-2.8669,-2.8951,-2.9454,-3.0038,-3.0309,-3.0351,-3.0918,-3.119,-3.119,-3.123,-3.1669,-3.2337,-3.232,-3.2938,-3.3886,-3.4628,-3.5025,-3.5301,0.0,0.0,0.0,0.0,0.0,0.0,0.0,0.0,0.0,0.0,0.0,0.0,-2.5732,-2.5732,-2.5742,-2.5742,0.0,0.0,0.0,0.0,0.0,-2.5742,-2.5742,0.0,-2.5742,-2.5742,0.0,0.0,0.0,0.0,-2.5742,-2.5742,-2.5742,-2.5742,-2.5742,-2.5742,-2.5742,0.0,0.0,0.0,0.0,-2.4785,-2.4463,-2.4873,-2.5029,-2.5088,-2.5518,-2.54,-2.5218,-2.6125,-2.6982,-2.7631,-2.8035,-2.8998,-2.9831,0.0,0.0,0.0,0.0,0.0,0.0,0.0,0.0,0.0,0.0,0.0,0.0,0.0,0.0,0.0,0.0,0.0,0.0,0.0,0.0,0.0,0.0,0.0,0.0,0.0,0.0,0.0,0.0,0.0,0.0,0.0,0.0,0.0,-2.8005,-2.8005,-2.8005,-2.7955,-2.7855,-2.784,-2.7955,-2.7955,-2.8054,-2.8235,-2.8235,-2.8332,-2.8493,-2.9409,-2.9837,-2.9897,-3.0797,-3.119,-3.119,-3.1274,-3.1385,-3.1568,-3.161,-3.2187,-3.3059,-3.3852,-3.4594,-3.5301,0.0,0.0,0.0,0.0,0.0,0.0,0.0,0.0,0.0,0.0,0.0,0.0,0.0,-2.583,-2.5742,-2.5742,-2.5742,0.0,0.0,0.0,0.0,-2.5742,-2.5742,-2.5742,-2.5742,-2.5742,0.0,0.0,0.0,-2.6014,-2.6217,-2.6217,-2.6217,-2.6217,-2.583,-2.5742,-2.5723,-2.543,0.0,0.0,0.0,0.0,-2.5283,-2.5439,0.0,0.0,0.0,0.0,0.0,0.0,-2.7462,-2.8188,-2.8982,-2.9618,-3.0096,-2.9708,-2.9546,0.0,0.0,0.0,0.0,0.0,0.0,0.0,0.0,0.0,0.0,0.0,0.0,0.0,0.0,0.0,0.0,0.0,0.0,0.0,0.0,0.0,0.0,0.0,0.0,0.0,0.0,0.0,0.0,0.0,0.0,0.0,-2.8137,-2.8152,-2.8103,-2.802,-2.7855,-2.784,-2.7855,-2.7955,-2.8235,-2.8637,-2.8637,-2.8873,-2.9319,-2.9677,-2.9793,-2.9853,-3.0477,-3.0918,-3.119,-3.123,-3.1346,-3.1517,-3.1538,-3.1806,-3.2283,-3.3041,-3.3818,-3.4594,0.0,0.0,0.0,0.0,0.0,0.0,0.0,0.0,0.0,0.0,0.0,0.0,0.0,0.0,-2.583,-2.5732,-2.5742,-2.5742,-2.5742,-2.5742,-2.5742,-2.5742,-2.583,-2.582,-2.582,0.0,0.0,0.0,0.0,0.0,0.0,-2.7136,-2.6945,-2.6945,-2.6294,-2.5927,0.0,0.0,0.0,-2.5713,0.0,0.0,-2.5742,0.0,0.0,0.0,0.0,0.0,0.0,0.0,0.0,0.0,-3.0062,-3.0445,-3.0336,-2.9955,-2.9792,0.0,-2.9599,0.0,0.0,0.0,0.0,0.0,0.0,0.0,0.0,0.0,0.0,0.0,0.0,0.0,0.0,0.0,0.0,0.0,0.0,0.0,0.0,0.0,0.0,0.0,0.0,0.0,0.0,0.0,0.0,0.0,-2.8284,-2.8284,-2.8201,-2.8054,-2.7989,-2.7989,-2.794,-2.7989,-2.8284,-2.8732,-2.8685,-2.8904,-2.9319,-2.9483,-2.9572,-2.9617,-3.0225,-3.0699,-3.0975,-3.1151,-3.1308,-3.1517,-3.1517,-3.1614,-3.1886,-3.2628,-3.3404,-3.4197,0.0,0.0,0.0,0.0,0.0,0.0,0.0,0.0,0.0,-2.7081,0.0,0.0,0.0,0.0,0.0,-2.5732,-2.5742,-2.5742,-2.5742,-2.5732,-2.5732,-2.5732,0.0,0.0,0.0,0.0,0.0,0.0,0.0,0.0,0.0,0.0,-2.7923,-2.7923,-2.6945,-2.64,-2.61,0.0,-2.5732,-2.5732,0.0,-2.5742,-2.5742,0.0,0.0,0.0,-2.5732,-2.5917,0.0,-2.8402,0.0,0.0,0.0,0.0,-3.0532,-2.998,-2.9804,0.0,0.0,0.0,0.0,0.0,0.0,0.0,0.0,0.0,0.0,0.0,0.0,0.0,0.0,0.0,0.0,0.0,0.0,0.0,0.0,0.0,0.0,0.0,0.0,0.0,0.0,0.0,0.0,0.0,0.0,-2.8411,-2.8411,-2.8411,-2.8348,-2.8186,-2.8348,-2.8348,-2.8186,-2.8186,-2.8284,-2.8411,-2.8284,-2.8284,-2.8411,-2.8873,-2.9074,-2.912,-3.0081,-3.0477,-3.0518,-3.1015,-3.1308,-3.1517,-3.1517,-3.1614,-3.1886,-3.261,-3.3386,-3.4197,0.0,0.0,0.0,0.0,0.0,0.0,0.0,0.0,0.0,0.0,0.0,0.0,-2.6699,-2.6294,-2.6004,-2.5732,-2.5742,-2.5742,-2.5742,-2.5917,-2.6004,-2.6004,-2.6924,0.0,0.0,0.0,0.0,0.0,0.0,0.0,0.0,0.0,0.0,0.0,-2.7966,-2.7421,-2.6602,-2.6207,0.0,-2.6014,-2.583,-2.5742,0.0,0.0,0.0,0.0,0.0,-2.6476,-2.74,0.0,-2.9954,-3.095,0.0,0.0,0.0,0.0,0.0,0.0,-2.9792,0.0,0.0,0.0,0.0,0.0,0.0,0.0,0.0,0.0,0.0,0.0,0.0,0.0,0.0,0.0,0.0,0.0,0.0,0.0,0.0,0.0,0.0,0.0,0.0,0.0,0.0,0.0,-2.8411,-2.8411,-2.8411,-2.8411,-2.8348,-2.8186,-2.8348,-2.8348,-2.8186,-2.8299,-2.8348,-2.8411,-2.8348,-2.8348,-2.8396,-2.8525,-2.8573,-2.8621,-2.9212,-2.9717,-3.0133,-3.0925,-3.1368,-3.1517,-3.1559,-3.1688,-3.1817,-3.2024,-3.2938,-3.4111,0.0,0.0,0.0,0.0,0.0,0.0,0.0,0.0,0.0,0.0,0.0,0.0,-2.69,-2.64,-2.61,-2.6024,-2.5917,-2.5917,-2.6024,-2.6207,-2.6476,-2.6829,-2.7652,-2.8297,0.0,0.0,0.0,0.0,0.0,0.0,0.0,0.0,0.0,0.0,0.0,0.0,0.0,0.0,0.0,0.0,-2.611,0.0,0.0,-2.6024,-2.6024,0.0,0.0,0.0,-2.8049,-2.9223,-3.0676,0.0,0.0,0.0,0.0,0.0,0.0,0.0,-2.9792,0.0,0.0,0.0,0.0,0.0,-3.1623,-3.1221,0.0,0.0,0.0,0.0,0.0,0.0,0.0,0.0,0.0,0.0,0.0,0.0,0.0,0.0,0.0,0.0,0.0,0.0,0.0,0.0,-2.8668,-2.8621,-2.8525,-2.8444,-2.8348,-2.8299,-2.8348,-2.8348,-2.8299,-2.8348,-2.8411,-2.8411,-2.8411,-2.8411,-2.8411,-2.8411,-2.8411,-2.846,-2.892,-2.9316,-2.9772,-3.069,-3.1257,-3.1538,-3.1579,-3.1671,-3.18,-3.18,-3.2559,-3.3645,0.0,0.0,0.0,0.0,0.0,0.0,0.0,0.0,0.0,0.0,-2.7987,-2.7177,-2.69,-2.6496,-2.6294,-2.6496,-2.6294,-2.6294,-2.6496,-2.6592,-2.703,-2.7923,-2.8402,-2.905,0.0,0.0,0.0,0.0,0.0,0.0,0.0,0.0,0.0,0.0,0.0,0.0,0.0,0.0,0.0,-2.6592,-2.6496,-2.6496,0.0,0.0,-2.6496,-2.6496,-2.6496,-2.741,-2.868,-2.9761,-3.15,0.0,0.0,0.0,0.0,0.0,-3.0269,0.0,0.0,-2.9856,-3.0075,0.0,0.0,0.0,-3.2861,-3.2246,-3.1617,0.0,0.0,0.0,0.0,0.0,0.0,0.0,0.0,0.0,0.0,0.0,0.0,0.0,0.0,0.0,0.0,0.0,-2.9121,-2.9075,-2.9075,-2.8936,-2.8732,-2.8525,-2.8396,-2.8348,-2.8363,-2.8363,-2.8348,-2.8363,-2.8411,-2.8411,-2.8411,-2.8411,-2.8411,-2.8411,-2.8411,-2.8396,-2.8873,-2.9212,-2.9496,-3.036,-3.1044,-3.1542,-3.1617,-3.1709,-3.18,-3.18,-3.2265,-3.3024,-3.3713,0.0,0.0,0.0,0.0,0.0,0.0,0.0,0.0,0.0,-2.8351,-2.7177,-2.69,-2.6805,-2.6699,-2.6496,-2.6496,-2.64,-2.6496,-2.741,-2.8049,-2.8226,-2.9966,-3.1069,-3.1258,0.0,0.0,0.0,0.0,0.0,0.0,0.0,0.0,0.0,0.0,0.0,0.0,0.0,0.0,-2.7071,-2.6688,0.0,-2.6496,-2.6496,-2.6496,-2.6506,-2.6699,-2.7977,-2.9761,0.0,-3.2711,-3.3056,0.0,0.0,0.0,0.0,0.0,0.0,0.0,0.0,0.0,0.0,0.0,0.0,-3.3003,-3.2651,-3.2192,0.0,0.0,0.0,0.0,0.0,0.0,0.0,0.0,0.0,0.0,0.0,0.0,0.0,0.0,0.0,0.0,0.0,-2.9335,-2.9137,-2.8889,-2.8732,-2.8685,-2.8525,-2.825,-2.794,-2.825,-2.825,-2.794,-2.825,-2.8411,-2.8411,-2.8411,-2.8411,-2.8411,-2.8411,-2.8411,-2.8396,-2.8653,-2.9074,-2.9585,-2.9995,-3.0617,-3.1308,-3.1634,-3.18,-3.18,-3.18,-3.2265,-3.3062,-3.3556,0.0,0.0,0.0,0.0,0.0,0.0,0.0,0.0,-3.0902,-2.9176,-2.7998,-2.7809,-2.7262,-2.69,-2.688,-2.6794,-2.6976,-2.7515,-2.8154,-2.8888,-2.9875,-3.0979,-3.1813,-3.2351,-3.281,0.0,0.0,0.0,0.0,0.0,0.0,0.0,0.0,0.0,0.0,0.0,0.0,-2.8445,-2.7904,-2.7156,0.0,-2.688,-2.688,-2.688,-2.688,-2.7071,-2.8341,-3.0328,-3.2438,-3.3081,0.0,0.0,-3.2303,-3.1386,0.0,-3.0633,-2.9856,0.0,0.0,0.0,-3.1842,0.0,0.0,0.0,-3.3325,-3.2844,0.0,0.0,0.0,0.0,0.0,0.0,0.0,0.0,0.0,0.0,0.0,0.0,0.0,0.0,0.0,0.0,0.0,-2.9621,-2.9502,-2.9243,-2.9059,-2.8936,-2.8668,-2.8332,-2.784,-2.8005,-2.7875,-2.7458,-2.7875,-2.8103,-2.8103,-2.8299,-2.8411,-2.8411,-2.8411,-2.8411,-2.8396,-2.8605,-2.8951,-2.9393,-2.9837,-3.0284,-3.0781,-3.1351,-3.1542,-3.1579,-3.1763,-3.2098,-3.2641,-3.3484,0.0,0.0,0.0,0.0,0.0,0.0,0.0,0.0,-3.1359,-2.9988,-2.8991,-2.8991,0.0,0.0,0.0,0.0,0.0,0.0,0.0,0.0,-3.1536,-3.1801,-3.2264,-3.3068,-3.3081,0.0,0.0,0.0,0.0,0.0,0.0,0.0,0.0,0.0,0.0,0.0,0.0,0.0,-2.8899,0.0,-2.762,-2.7262,-2.7262,-2.7262,-2.7347,-2.7715,-2.8899,-3.0531,-3.2438,0.0,-3.3081,-3.3081,-3.2303,0.0,0.0,0.0,0.0,0.0,0.0,0.0,0.0,0.0,-3.3589,0.0,0.0,0.0,0.0,0.0,0.0,0.0,0.0,0.0,0.0,0.0,0.0,0.0,0.0,0.0,0.0,0.0,0.0,0.0,0.0,-2.9918,-2.9918,-2.9665,-2.9396,-2.9167,-2.8779,-2.835,-2.7775,-2.7675,-2.7458,-2.6967,-2.7458,-2.7675,-2.7675,-2.8103,-2.8299,-2.8299,-2.8348,-2.8396,-2.8493,-2.87,-2.8936,-2.9213,-2.9782,-3.007,-3.0267,-3.0965,-3.1257,-3.1334,-3.1671,-3.1893,-3.223,-3.3484,-3.324,0.0,0.0,0.0,0.0,0.0,0.0,0.0,0.0,0.0,0.0,0.0,0.0,0.0,0.0,0.0,0.0,-2.9988,0.0,0.0,0.0,0.0,0.0,-3.3081,-3.3081,-3.3081,0.0,0.0,0.0,0.0,0.0,0.0,0.0,-3.2982,0.0,0.0,0.0,-3.0812,0.0,-2.9897,-2.8806,0.0,-2.7262,-2.7262,-2.7536,-2.9257,-2.9988,-3.0531,0.0,-3.3081,-3.3081,0.0,-3.2303,-3.1386,0.0,0.0,0.0,0.0,0.0,0.0,0.0,-3.3742,0.0,0.0,0.0,0.0,0.0,0.0,0.0,0.0,0.0,0.0,0.0,0.0,0.0,0.0,0.0,0.0,0.0,0.0,0.0,0.0,0.0,0.0,-2.9918,-2.9665,-2.947,-2.9486,-2.8654,-2.7978,-2.7565,-2.7276,-2.6967,-2.6563,-2.6967,-2.7174,-2.7174,-2.7675,-2.789,-2.789,-2.825,-2.8493,-2.87,-2.8936,-2.9213,-2.9486,-2.9814,-2.9902,-3.0033,-3.0601,-3.1044,-3.1334,-3.1545,-3.1839,-3.2266,-3.3484,-3.324,0.0,0.0,0.0,0.0,0.0,0.0,0.0,0.0,0.0,0.0,0.0,0.0,0.0,0.0,0.0,-3.0441,0.0,0.0,-3.1901,0.0,0.0,0.0,0.0,-3.3081,-3.3081,0.0,-3.3081,0.0,0.0,0.0,0.0,0.0,-3.3081,0.0,-3.2438,0.0,-3.1347,0.0,0.0,0.0,0.0,-2.8351,-2.8081,-2.8269,-2.9715,-3.0531,-3.1258,0.0,-3.3081,0.0,0.0,0.0,0.0,0.0,0.0,0.0,0.0,0.0,0.0,0.0,0.0,0.0,-3.4414,0.0,-3.4374,0.0,0.0,0.0,0.0,0.0,0.0,0.0,0.0,0.0,0.0,0.0,0.0,0.0,0.0,0.0,0.0,0.0,0.0,0.0,0.0,-2.9665,-2.9515,-2.9136,-2.8496,-2.7515,-2.7363,-2.6967,-2.615,-2.6563,-2.6864,-2.7122,-2.7291,-2.756,-2.779,-2.7989,-2.8171,-2.8383,-2.8873,-2.9259,-2.9515,-2.977,-2.9918,-2.9918,-3.0172,-3.0576,-3.1044,-3.1452,-3.1841,-3.2301,-3.3556,0.0,0.0,0.0,0.0,0.0,0.0,0.0,0.0,0.0,0.0,0.0,-3.2808,-3.1998,0.0,0.0,-3.1415,-3.1413,0.0,0.0,-3.2351,0.0,0.0,0.0,0.0,0.0,0.0,0.0,0.0,0.0,0.0,0.0,0.0,0.0,0.0,-3.3081,-3.3081,0.0,0.0,-3.1989,-3.1258,-3.0812,-3.0441,-2.9441,-2.9084,-2.9268,-3.026,-3.0991,-3.1701,-3.2537,-3.2842,0.0,-3.2164,0.0,0.0,0.0,0.0,0.0,-3.2218,0.0,0.0,0.0,0.0,0.0,0.0,0.0,0.0,0.0,0.0,0.0,0.0,0.0,0.0,0.0,0.0,0.0,0.0,0.0,0.0,0.0,0.0,0.0,0.0,0.0,0.0,0.0,-2.9902,0.0,-2.9621,-2.9319,-2.867,-2.77,-2.7312,-2.6759,-2.5948,-2.6204,-2.6457,-2.6759,-2.6864,-2.7137,-2.7473,-2.769,-2.7974,-2.8222,-2.8826,-2.9305,-2.9621,-2.9814,-2.9918,-2.9918,-2.9918,-3.0231,-3.0804,-3.1338,-3.1913,-3.242,-3.3713,-3.3556,0.0,0.0,0.0,0.0,0.0,0.0,0.0,0.0,0.0,0.0,0.0,0.0,0.0,0.0,0.0,-3.3558,-3.3106,0.0,-3.3068,0.0,0.0,-3.3081,0.0,0.0,0.0,0.0,0.0,0.0,0.0,0.0,0.0,0.0,0.0,-3.3081,-3.3081,-3.3081,-3.3081,-3.3081,-3.2982,-3.2438,-3.1448,0.0,-3.017,-3.026,-3.1258,0.0,0.0,-3.2077,-3.224,0.0,0.0,0.0,0.0,0.0,0.0,0.0,0.0,0.0,0.0,-3.4467,0.0,0.0,0.0,0.0,-3.4854,0.0,0.0,0.0,0.0,0.0,-3.2213,-3.144,0.0,0.0,0.0,0.0,0.0,0.0,0.0,0.0,0.0,0.0,0.0,-3.0017,-2.9973,0.0,-2.9902,-2.8764,-2.8128,-2.8079,-2.6797,-2.6111,-2.6111,-2.6002,-2.5948,-2.5948,-2.6351,-2.651,-2.6563,-2.7423,-2.8057,-2.8511,-2.892,-2.9412,-2.9874,-2.9918,-2.9918,-2.9918,-2.9918,-3.0146,-3.0593,-3.1167,-3.1932,-3.2639,0.0,0.0,0.0,0.0,0.0,0.0,0.0,-3.3081,0.0,0.0,0.0,0.0,0.0,-3.4613,-3.465,0.0,0.0,-3.3671,-3.3119,-3.3081,0.0,0.0,0.0,-3.3081,0.0,0.0,0.0,0.0,0.0,0.0,0.0,0.0,0.0,0.0,0.0,-3.3081,0.0,0.0,0.0,0.0,0.0,-3.2896,-3.2438,0.0,0.0,-3.1169,-3.1448,-3.1746,0.0,-3.2181,-3.1976,-3.1574,-3.1047,-3.1251,-3.1589,-3.1287,-3.193,0.0,0.0,0.0,-3.4113,-3.4668,0.0,0.0,0.0,0.0,0.0,0.0,0.0,0.0,0.0,0.0,-3.2556,-3.2649,-3.281,0.0,0.0,0.0,0.0,0.0,0.0,0.0,0.0,0.0,0.0,-3.0017,-3.0017,-2.9989,0.0,-2.9515,-2.8919,-2.8128,-2.7685,-2.7056,-2.6233,-2.6111,-2.6165,-2.6418,-2.6204,-2.6258,-2.651,-2.6893,-2.7444,-2.811,-2.8606,-2.9243,-2.9918,-2.9918,-2.9918,-2.9902,-2.9946,-3.0258,-3.0764,-3.1206,-3.1733,-3.2266,-3.5213,0.0,0.0,0.0,0.0,0.0,0.0,0.0,0.0,0.0,-3.3558,0.0,-3.4399,0.0,-3.4638,0.0,-3.411,-3.3671,-3.3119,-3.3081,0.0,-3.3081,-3.3411,0.0,0.0,0.0,0.0,0.0,0.0,-3.4358,0.0,0.0,0.0,0.0,0.0,0.0,-3.3081,0.0,-3.3081,0.0,0.0,-3.3081,0.0,0.0,-3.1625,-3.214,0.0,-3.1994,-3.2152,-3.1775,-3.1411,-3.1103,-3.0773,-3.1254,-3.1819,-3.173,-3.2635,-3.3659,-3.3879,-3.4182,0.0,-3.4935,-3.4949,0.0,-3.5082,0.0,0.0,0.0,0.0,0.0,0.0,0.0,0.0,-3.333,-3.3295,-3.3459,0.0,-3.4279,0.0,0.0,0.0,0.0,0.0,0.0,-3.103,-3.0898,-3.0626,-3.0347,0.0,0.0,-2.8889,-2.7947,-2.7635,-2.7159,-2.6379,-2.6218,-2.6272,-2.6525,-2.6218,-2.6165,-2.6418,-2.6683,-2.7225,-2.7997,-2.8496,-2.9182,-2.9918,-2.9918,-2.9918,-2.9918,-2.9973,-3.0258,-3.0642,-3.1106,-3.164,-3.2162,0.0,0.0,0.0,0.0,-3.3303,0.0,0.0,0.0,-3.3081,0.0,-3.3558,-3.3897,-3.3897,-3.4399,-3.45,-3.3947,-3.3897,0.0,-3.3119,-3.3081,0.0,0.0,-3.3992,-3.4538,-3.4746,0.0,0.0,0.0,0.0,0.0,0.0,0.0,0.0,0.0,-3.3564,0.0,-3.3129,-3.3129,-3.3142,-3.3081,-3.3081,-3.3056,-3.3031,-3.3031,0.0,-3.2918,-3.2403,-3.2177,-3.1976,-3.0959,-3.0595,-3.0615,-3.0851,-3.1476,-3.229,-3.3003,-3.3811,-3.4481,-3.4698,-3.4698,-3.4765,-3.5162,0.0,0.0,0.0,0.0,-3.5504,0.0,0.0,0.0,0.0,0.0,0.0,-3.3495,-3.3365,-3.3665,0.0,0.0,0.0,0.0,0.0,0.0,0.0,-3.268,-3.2635,-3.25,-3.1802,0.0,0.0,0.0,0.0,-2.7655,-2.6974,-2.6606,-2.6553,-2.6394,-2.6286,-2.6286,-2.6286,-2.6286,-2.634,-2.675,-2.7378,-2.8128,-2.8528,-2.912,-2.9918,-2.9918,-2.9918,-2.9902,-2.9973,-3.0103,-3.0274,-3.0821,-3.1528,-3.2283,-3.7574,-3.6518,-3.5592,0.0,-3.4224,-3.3684,0.0,0.0,0.0,0.0,-3.3558,-3.3897,-3.3897,-3.4399,-3.45,-3.3947,-3.3897,0.0,0.0,0.0,0.0,-3.4063,-3.4454,-3.491,-3.5615,-3.5908,0.0,-3.6132,0.0,0.0,-3.7035,0.0,0.0,0.0,0.0,0.0,-3.2969,-3.2969,-3.3127,-3.3313,-3.3313,-3.2975,0.0,0.0,-3.2177,-3.1863,-3.2114,-3.17,-3.0984,-3.0708,-3.0686,-3.0877,-3.1084,-3.2046,-3.3213,-3.3575,-3.4153,-3.4802,-3.5016,-3.4949,-3.4949,-3.5294,-3.5294,-3.5228,0.0,0.0,0.0,0.0,0.0,0.0,0.0,0.0,0.0,0.0,-3.4603,0.0,0.0,0.0,0.0,0.0,0.0,0.0,-3.2796,-3.268,-3.2635,-3.25,-3.229,0.0,0.0,0.0,0.0,-2.9592,-2.8569,-2.7821,-2.7422,-2.6769,-2.6472,-2.6472,-2.6326,-2.6286,-2.6286,-2.6525,-2.7159,-2.8128,-2.8288,-2.8982,-2.9918,-2.9918,-2.9946,-2.9989,-3.0103,-3.0274,-3.0468,-3.0925,-3.1603,-3.2283,-3.9507,0.0,0.0,-3.6444,0.0,0.0,-3.4565,0.0,0.0,-3.3445,-3.3495,0.0,-3.3533,-3.3822,-3.3872,-3.3571,-3.3533,0.0,-3.3679,0.0,0.0,-3.5019,-3.5548,-3.6094,-3.6724,-3.7098,0.0,-3.7496,0.0,0.0,-3.7723,0.0,0.0,0.0,0.0,-3.3028,0.0,-3.2885,-3.3155,-3.3543,-3.3314,0.0,0.0,-3.22,-3.1757,-3.1394,-3.2008,-3.15,-3.057,-3.0686,-3.0879,-3.118,-3.1974,-3.2847,-3.3713,-3.4153,-3.4572,-3.4935,-3.5148,-3.5148,-3.5008,-3.5066,-3.4991,-3.4837,-3.4696,-3.4846,-3.512,0.0,0.0,0.0,0.0,0.0,0.0,0.0,0.0,0.0,0.0,0.0,0.0,0.0,-3.4899,0.0,-3.3723,-3.3657,-3.3657,-3.3548,0.0,0.0,0.0,0.0,0.0,-2.9651,-2.8946,-2.8326,-2.7737,-2.7238,-2.6905,-2.6645,-2.6553,-2.65,-2.65,-2.6592,-2.7071,-2.7834,-2.8143,-2.8795,-2.9576,-2.9814,-2.9946,-3.0017,-3.0189,-3.0359,-3.051,-3.074,-3.124,-3.1787,0.0,0.0,0.0,0.0,0.0,0.0,0.0,-3.5133,0.0,-3.431,0.0,-3.3398,-3.3484,-3.3398,-3.3326,-3.3484,0.0,-3.381,-3.4551,-3.462,-3.5087,-3.6094,-3.688,-3.751,-3.7994,-3.8546,0.0,0.0,0.0,0.0,0.0,0.0,0.0,0.0,0.0,0.0,0.0,-3.3156,-3.339,0.0,-3.3312,-3.2916,-3.2636,-3.2204,-3.1731,-3.1306,-3.1972,-3.1538,-3.08,-3.0989,-3.1328,-3.1756,-3.3129,-3.3782,-3.407,-3.4787,-3.5001,-3.4986,-3.5109,-3.508,-3.4996,-3.4517,-3.4352,-3.4203,-3.3619,-3.3995,-3.4619,-3.5124,-3.5783,0.0,0.0,0.0,0.0,0.0,0.0,0.0,0.0,0.0,0.0,0.0,0.0,0.0,0.0,-3.4899,0.0,0.0,0.0,0.0,0.0,0.0,0.0,0.0,-2.8897,0.0,-2.7929,0.0,-2.7461,-2.691,-2.6823,-2.6779,-2.6779,-2.6779,-2.7063,-2.7515,-2.8046,-2.8591,-2.9182,-2.971,-2.9989,-3.006,-3.0333,-3.0443,-3.0526,-3.0526,-3.074,-3.1162,0.0,0.0,0.0,0.0,0.0,-3.9865,-3.9394,-3.7852,-3.6593,-3.6414,-3.5339,-3.4828,-3.5386,-3.4855,-3.469,-3.5386,-3.5373,0.0,0.0,0.0,0.0,-3.7204,-3.751,-3.8069,-3.887,-3.9177,-3.9337,0.0,0.0,0.0,0.0,0.0,0.0,0.0,0.0,0.0,-3.396,-3.4361,0.0,-3.358,-3.4068,-3.3192,-3.1562,-3.2057,-3.1879,-3.1439,-3.1588,-3.1514,-3.1426,-3.2074,-3.2763,-3.3422,-3.3822,-3.4409,-3.5001,-3.5294,-3.5359,-3.5305,-3.4737,-3.4651,-3.4487,-3.3829,-3.3664,-3.3634,-3.3529,-3.3955,-3.436,-3.4463,-3.4996,-3.5404,-3.5392,0.0,0.0,0.0,0.0,0.0,0.0,0.0,0.0,0.0,0.0,0.0,0.0,0.0,0.0,0.0,0.0,0.0,0.0,0.0,0.0,0.0,0.0,0.0,0.0,0.0,0.0,-2.7563,-2.7041,-2.6779,-2.6779,-2.6779,-2.7063,-2.7515,-2.8046,-2.8654,-2.9289,-2.9798,-3.0119,-3.0333,-3.0443,-3.0485,-3.0526,-3.0526,-3.074,-3.1247,0.0,0.0,0.0,0.0,0.0,0.0,0.0,-3.99,0.0,-3.773,-3.6415,-3.5748,-3.5987,-3.5682,-3.5601,-3.5987,-3.6067,-3.6239,-3.6724,-3.6788,-3.7343,-3.8308,-3.8383,0.0,-3.9265,-3.9337,-3.9424,-3.9424,0.0,0.0,0.0,0.0,0.0,0.0,0.0,-3.4249,0.0,0.0,0.0,-3.4218,-3.4335,-3.3661,-3.2704,-3.2763,-3.2622,-3.2434,-3.2847,-3.2975,-3.2975,-3.3199,-3.3547,-3.3973,-3.4476,-3.4986,-3.5299,-3.507,-3.4966,-3.4816,-3.4143,-3.3963,-3.3814,-3.3155,-3.3216,-3.3347,-3.2998,-3.3614,-3.4357,-3.4676,-3.5252,-3.5684,-3.5598,-3.5261,0.0,0.0,0.0,0.0,0.0,0.0,0.0,0.0,0.0,0.0,0.0,0.0,0.0,0.0,0.0,0.0,0.0,0.0,0.0,0.0,0.0,0.0,0.0,0.0,0.0,-2.7668,-2.7418,-2.7099,-2.6779,-2.6779,-2.6922,-2.7203,-2.8012,-2.8606,-2.8951,-2.9826,-3.0274,-3.0417,-3.0485,-3.0526,-3.0526,-3.0526,-3.074,-3.1263,0.0,-4.2252,0.0,0.0,-4.1695,0.0,-4.1376,-4.1192,-4.0521,-3.8728,-3.741,-3.6682,-3.676,-3.6682,-3.6618,-3.676,-3.6838,-3.7098,-3.7829,-3.7904,-3.8308,-3.9104,-3.9177,-3.9265,-3.9424,-3.9424,-3.9424,0.0,0.0,0.0,0.0,0.0,0.0,0.0,0.0,0.0,0.0,0.0,-3.4512,-3.4764,-3.4498,-3.4229,-3.3888,-3.3536,-3.3422,-3.3492,-3.4109,-3.4292,-3.4324,-3.4071,-3.3989,-3.4191,-3.4845,-3.5046,-3.4981,-3.4427,-3.4262,-3.4128,-3.3469,-3.3396,-3.3307,-3.2645,-3.2898,-3.3197,-3.271,-3.3388,-3.4319,-3.4791,-3.5399,-3.5834,-3.5762,-3.5297,0.0,0.0,0.0,0.0,0.0,0.0,0.0,0.0,0.0,0.0,0.0,0.0,0.0,0.0,0.0,0.0,0.0,0.0,0.0,0.0,0.0,-3.0454,-2.9827,0.0,-2.9058,0.0,-2.7795,-2.7389,-2.6779,-2.6779,-2.6884,-2.7063,-2.8076,-2.8654,-2.8982,-3.0,-3.0401,-3.0417,-3.0485,-3.0526,-3.0526,-3.0526,-3.074,-3.128,0.0,0.0,0.0,0.0,0.0,0.0,0.0,-4.1294,-4.0338,-3.9919,-3.8774,-3.8188,-3.8782,-3.8173,-3.8023,-3.8782,-3.8855,-3.8855,-3.8943,-3.9104,-3.9265,-3.9337,-3.9337,-3.9352,-3.9424,-3.9424,-3.9424,0.0,0.0,0.0,0.0,0.0,0.0,0.0,0.0,0.0,0.0,-3.5383,-3.4971,-3.4419,-3.5104,-3.4525,-3.3368,-3.3988,-3.4177,-3.4245,-3.4312,-3.4361,-3.4498,-3.4435,-3.442,-3.4498,-3.4562,-3.4158,-3.3664,-3.3604,-3.3589,-3.344,-3.2781,-3.2985,-3.3223,-3.2604,-3.2843,-3.3224,-3.3161,-3.3642,-3.4147,-3.4198,-3.4644,-3.5017,-3.5015,-3.4949,-3.4899,0.0,0.0,0.0,0.0,0.0,0.0,0.0,0.0,0.0,0.0,0.0,0.0,0.0,0.0,0.0,0.0,0.0,0.0,-3.1132,0.0,-3.0925,-3.0674,-3.0163,0.0,-2.8579,-2.7998,-2.7389,-2.6779,-2.6779,-2.71,-2.765,-2.8255,-2.9166,-3.0231,-3.0443,-3.0485,-3.0485,-3.0526,-3.0526,-3.0526,-3.0526,-3.074,-3.1365,0.0,0.0,0.0,0.0,0.0,0.0,0.0,-4.0741,-4.0262,-3.9697,-3.9209,-3.9031,-3.9265,-3.8958,-3.8958,-3.9265,-3.9265,-3.9265,-3.9265,-3.9337,-3.9424,-3.9424,-3.9424,-3.9424,-3.9424,-3.902,-3.8796,0.0,0.0,0.0,0.0,0.0,0.0,0.0,0.0,-3.5504,-3.5504,-3.5504,-3.5279,-3.5052,-3.5359,-3.5148,-3.4639,-3.492,-3.4801,-3.4445,-3.4445,-3.4174,-3.3888,-3.3888,-3.3888,-3.3888,-3.3888,-3.3709,-3.3425,-3.3021,-3.2901,-3.2766,-3.2108,-3.2361,-3.2736,-3.2459,-3.3071,-3.3748,-3.3748,-3.4184,-3.4594,-3.4594,-3.4739,-3.4899,-3.4899,-3.4899,-3.4899,0.0,0.0,0.0,0.0,0.0,0.0,0.0,0.0,0.0,0.0,0.0,0.0,0.0,0.0,0.0,0.0,0.0,0.0,-3.1709,0.0,-3.1379,-3.0955,-3.0631,-3.0119,-2.9418,-2.8664,-2.7969,-2.7345,-2.7074,-2.7458,-2.8448,-2.8654,-2.9393,-3.0443,-3.0485,-3.0526,-3.0526,-3.0526,-3.0526,-3.0526,-3.0526,-3.074,-3.1343,-4.2073,0.0,-4.2611,0.0,-4.1908,-4.1474,-4.0546,-4.0232,-3.9948,-3.9484,-3.9424,-3.9424,-3.9424,-3.9424,-3.9424,-3.9424,-3.9424,-3.9424,-3.9424,-3.923,-3.9125,-3.9125,-3.8931,0.0,-3.8826,-3.8347,-3.8108,-3.8108,-3.7449,0.0,0.0,0.0,0.0,0.0,-3.5504,-3.5504,-3.5504,-3.5504,-3.5504,-3.5504,-3.5504,-3.5504,-3.5489,-3.528,-3.4906,-3.4442,-3.4262,-3.3769,-3.32,-3.32,-3.308,-3.2961,-3.314,-3.308,-3.2826,-3.2583,-3.2447,-3.24,-3.2072,-3.2437,-3.2926,-3.2926,-3.361,-3.4349,-3.4349,-3.4643,-3.4899,-3.4899,-3.4899,-3.4899,-3.4899,-3.4899,-3.4899,-3.4899,0.0,0.0,0.0,0.0,0.0,0.0,-3.4899,-3.4899,-3.4899,0.0,0.0,0.0,0.0,0.0,0.0,0.0,0.0,0.0,0.0,0.0,0.0,-3.0999,-3.0617,-2.9971,-2.9198,-2.8499,-2.7871,-2.7632,-2.8057,-2.8904,-2.9212,-2.981,-3.0526,-3.0526,-3.0526,-3.0526,-3.0526,-3.0526,-3.0526,-3.0526,-3.0808,-3.1446,-4.1384,-4.1399,-4.1399,-4.1384,-4.0846,-4.0412,-4.0397,-3.9843,-3.9424,-3.9424,-3.9424,-3.9424,-3.9424,-3.9424,-3.9424,-3.9424,-3.9424,-3.9424,-3.9424,-3.8781,-3.8407,0.0,0.0,-3.7434,-3.7434,-3.7419,-3.7419,-3.7419,0.0,0.0,-3.6477,0.0,-3.5519,-3.5504,-3.5504,-3.5504,-3.5504,-3.5504,-3.5504,-3.5504,-3.5504,-3.5504,-3.5429,-3.4741,-3.4487,-3.4382,-3.3739,-3.308,-3.2527,-3.2527,-3.2093,-3.1616,-3.2317,-3.2078,-3.167,-3.2247,-3.2398,-3.2508,-3.3039,-3.3646,-3.4101,-3.4101,-3.4497,-3.4899,-3.4899,-3.4899,-3.4899,-3.4899,-3.4899,-3.4899,-3.4899,-3.4899,-3.4899,-3.4899,0.0,0.0,0.0,0.0,0.0,0.0,-3.4899,-3.4899,-3.4899,0.0,0.0,0.0,0.0,0.0,0.0,0.0,0.0,-3.2437,-3.2398,0.0,-3.1278,-3.1292,-3.0893,-3.0056,-2.9407,-2.8773,-2.8231,-2.8691,-2.8904,-2.8951,-3.0027,-3.0485,-3.0526,-3.0526,-3.0526,-3.0526,-3.0526,-3.0526,-3.0526,-3.0526,-3.0974,-3.1762,-3.9334,-3.9723,-4.0053,-4.0053,-3.9484,-3.9035,-3.9035,-3.8482,-3.8048,-3.8048,-3.8048,-3.8048,-3.8048,-3.8452,-3.8542,0.0,-3.8048,-3.8048,0.0,-3.7838,-3.7719,-3.7719,-3.7524,-3.7404,-3.7404,-3.7,-3.6776,-3.6776,0.0,0.0,0.0,-3.5609,-3.5504,-3.5504,-3.5504,-3.5504,-3.5504,-3.5504,-3.5504,-3.5504,-3.5504,-3.522,-3.4786,-3.4562,-3.3918,-3.311,-3.2901,-3.2407,-3.1897,-3.227,-3.2303,-3.2206,-3.2779,-3.2607,-3.2216,-3.2788,-3.2949,-3.2986,-3.3145,-3.3646,-3.4101,-3.4101,-3.4497,-3.4899,-3.4899,-3.4899,-3.4899,-3.4899,-3.4899,-3.4899,-3.4899,-3.4899,-3.4899,-3.4899,0.0,0.0,0.0,0.0,0.0,0.0,-3.4899,-3.4899,0.0,-3.4899,0.0,0.0,0.0,0.0,0.0,0.0,0.0,0.0,-3.3161,0.0,-3.2064,-3.1567,-3.1174,-3.0908,-3.0127,-2.9256,-2.8337,-2.8347,-2.8606,-2.9074,-2.975,-3.0199,-3.0526,-3.0526,-3.0526,-3.0526,-3.0526,-3.0526,-3.0526,-3.0526,-3.0659,-3.104,-3.8018,-3.8362,-3.8661,-3.8661,-3.8302,-3.8018,-3.8018,-3.7674,-3.7404,-3.7404,-3.7404,-3.7315,-3.709,-3.7434,0.0,-3.7419,-3.7404,-3.7404,-3.7404,-3.7195,-3.706,-3.706,-3.6821,-3.6701,-3.6701,0.0,0.0,-3.6118,-3.5714,-3.5504,-3.5504,-3.5504,-3.5504,-3.5504,-3.5504,-3.5504,-3.5504,-3.5504,-3.5504,-3.5489,-3.522,-3.4861,-3.4427,-3.3918,-3.323,-3.2482,-3.2228,-3.1985,-3.191,-3.2287,-3.2547,-3.2803,-3.3371,-3.3335,-3.3087,-3.3423,-3.3527,-3.3578,-3.3783,-3.4118,-3.4399,-3.4399,-3.4643,-3.4899,-3.4899,-3.4899,-3.4899,-3.4899,-3.4899,-3.4899,-3.4899,-3.4899,-3.4899,-3.4899,0.0,-3.4899,-3.4899,0.0,0.0,0.0,0.0,0.0,0.0,-3.4899,0.0,0.0,0.0,0.0,0.0,0.0,0.0,-3.4101,-3.3748,0.0,-3.2695,-3.2048,-3.1823,-3.2018,-3.0774,-2.9672,-2.874,-2.8544,-2.8795,-2.9393,-2.9853,-3.0258,-3.0526,-3.0526,-3.0526,-3.0526,-3.0526,-3.0526,-3.0526,-3.0526,-3.0692,-3.109,-3.7285,-3.7285,0.0,0.0,-3.73,0.0,-3.7345,-3.73,-3.7285,-3.7285,-3.7285,-3.706,-3.6477,-3.6417,-3.6656,-3.7225,0.0,0.0,0.0,-3.6731,-3.6417,-3.6417,-3.5833,0.0,-3.5504,-3.5504,-3.5504,-3.5504,-3.5504,-3.5504,-3.5504,-3.5504,-3.5504,-3.5504,-3.5504,-3.5504,-3.5504,-3.5504,-3.5474,-3.5385,-3.4741,-3.4427,-3.4203,-3.2976,-3.2482,-3.2362,-3.1749,-3.191,-3.2382,-3.2508,-3.2841,-3.3355,-3.3984,-3.4151,-3.4151,-3.4151,-3.4151,-3.425,-3.4739,-3.4899,-3.4899,-3.4899,-3.4899,-3.4899,-3.4899,-3.4899,-3.4899,-3.4899,-3.4899,-3.4899,-3.4899,-3.4899,-3.4899,-3.4899,-3.4899,-3.4899,-3.4899,0.0,0.0,0.0,0.0,0.0,0.0,-3.4899,-3.4899,0.0,0.0,0.0,0.0,0.0,-3.4691,-3.4151,-3.4101,-3.3815,-3.3251,-3.2749,-3.2695,-3.3182,-3.1332,-3.0099,-2.9446,-2.9218,-2.9393,-2.9853,-3.03,-3.0526,-3.0526,-3.0526,-3.0526,-3.0526,-3.0526,-3.0526,-3.0526,-3.0526,-3.0915,-3.1653,0.0,0.0,-3.6118,-3.6611,-3.6282,-3.6133,-3.6626,-3.6282,-3.5953,-3.5953,-3.5953,-3.5908,-3.5744,-3.5744,-3.5789,-3.5953,-3.5953,-3.5953,-3.5953,-3.5818,-3.5744,-3.5744,-3.5594,-3.5504,-3.5504,-3.5504,-3.5504,-3.5504,-3.5504,-3.5504,-3.5504,-3.5504,-3.5504,-3.5504,-3.5504,-3.5504,-3.5504,-3.5504,-3.519,-3.4696,-3.4547,-3.3873,-3.2946,-3.2632,-3.2198,-3.1807,-3.2068,-3.2287,-3.2547,-3.3403,-3.3781,-3.3968,-3.4546,-3.4691,-3.4691,-3.4691,-3.4691,-3.4739,-3.4851,-3.4899,-3.4899,-3.4899,-3.4899,-3.4899,-3.4899,-3.4899,-3.4899,-3.4899,-3.4899,-3.4899,-3.4899,-3.4899,-3.4899,-3.4899,-3.4899,-3.4899,-3.4899,-3.4899,0.0,0.0,-3.4899,-3.4899,-3.4899,-3.4899,-3.4899,0.0,0.0,0.0,0.0,0.0,-3.4851,-3.4691,-3.43,-3.4034,-3.3882,-3.3319,-3.3093,-3.3166,-3.1675,-3.082,-3.0631,-2.9952,-2.9705,-2.9853,-3.03,-3.0526,-3.0526,-3.0526,-3.0526,-3.0526,-3.0526,-3.0526,-3.0526,-3.0526,-3.0626,-3.0957,-3.5504,-3.5504,-3.5609,-3.5968,-3.5744,-3.5624,-3.5983,-3.5729,-3.5504,-3.5504,-3.5504,-3.5504,-3.5504,-3.5504,-3.5504,-3.5504,-3.5504,-3.5504,-3.5504,-3.5504,-3.5504,-3.5504,-3.5504,-3.5504,-3.5504,-3.5504,-3.5504,-3.5504,-3.5504,-3.5504,-3.5504,-3.5504,-3.5504,-3.5504,-3.5504,-3.5504,-3.5489,-3.5175,-3.4816,-3.4427,-3.3829,-3.3155,-3.2482,-3.2183,-3.2013,-3.1951,-3.2287,-3.2711,-3.3245,-3.3882,-3.425,-3.4497,-3.4804,-3.4899,-3.4899,-3.4899,-3.4899,-3.4899,-3.4899,-3.4899,-3.4899,-3.4899,-3.4899,-3.4899,-3.4899,-3.4899,-3.4899,-3.4899,-3.4899,-3.4899,-3.4899,-3.4899,-3.4899,-3.4899,-3.4899,-3.4899,-3.4899,-3.4899,0.0,-3.4899,-3.4899,-3.4899,-3.4899,-3.4899,-3.4899,-3.4899,0.0,0.0,-3.4899,-3.4899,-3.4899,-3.4899,-3.4594,-3.4448,-3.4448,-3.4152,-3.3716,-3.3166,-3.2042,-3.147,-3.1422,-3.0306,-2.9941,-3.0113,-3.0384,-3.0526,-3.0526,-3.0526,-3.0526,-3.0526,-3.0526,-3.0526,-3.0526,-3.0526,-3.0526,-3.0675,-3.5504,-3.5504,-3.5504,-3.5504,-3.5504,-3.5504,-3.5504,-3.5504,-3.5504,-3.5504,-3.5504,-3.5504,-3.5504,-3.5504,-3.5504,-3.5504,-3.5504,-3.5504,-3.5504,-3.5504,-3.5504,-3.5504,-3.5504,-3.5504,-3.5504,-3.5504,-3.5504,-3.5504,-3.5504,-3.5504,-3.5504,-3.5504,-3.5504,-3.5504,-3.5504,-3.5444,-3.531,-3.4726,-3.4367,-3.4083,-3.2961,-3.2511,-3.242,-3.185,-3.2007,-3.2547,-3.2602,-3.3298,-3.4101,-3.4201,-3.4546,-3.4899,-3.4899,-3.4899,-3.4899,-3.4899,-3.4899,-3.4899,-3.4899,-3.4899,-3.4899,-3.4899,-3.4899,-3.4899,-3.4899,-3.4899,-3.4899,-3.4899,-3.4899,-3.4899,-3.4899,-3.4899,-3.4899,-3.4899,-3.4899,-3.4899,-3.4899,0.0,-3.4899,-3.4899,-3.4899,-3.4899,-3.4899,-3.4899,-3.4899,-3.4899,-3.4899,0.0,0.0,-3.4899,-3.4899,-3.4899,-3.4899,-3.4899,-3.4899,-3.4899,-3.4415,-3.3443,-3.2515,-3.2087,-3.1976,-3.0547,-3.0113,-3.0526,-3.0526,-3.0526,-3.0526,-3.0526,-3.0526,-3.0526,-3.0526,-3.0526,-3.0526,-3.0526,-3.0526,-3.0626,-3.5504,-3.5504,-3.5504,-3.5504,-3.5504,-3.5504,-3.5504,-3.5504,-3.5504,-3.5504,-3.5504,-3.5504,-3.5504,-3.5504,-3.5504,-3.5504,-3.5504,-3.5504,-3.5504,-3.5504,-3.5504,-3.5504,-3.5504,-3.5504,-3.5504,-3.5504,-3.5504,-3.5504,-3.5504,-3.5504,-3.5504,-3.5504,-3.5504,-3.5504,-3.5504,-3.519,-3.4622,-3.4517,-3.3844,-3.2796,-3.2602,-3.246,-3.2369,-3.2333,-3.2586,-3.3145,-3.3662,-3.3933,-3.4151,-3.4594,-3.4851,-3.4899,-3.4899,-3.4899,-3.4899,-3.4899,-3.4899,-3.4899,-3.4899,-3.4899,-3.4899,-3.4899,-3.4899,-3.4899,-3.4899,-3.4899,-3.4899,-3.4899,-3.4899,-3.4899,-3.4899,-3.4899,-3.4899,-3.4899,-3.4899,-3.4899,-3.4899,0.0,-3.4899,-3.4899,-3.4899,-3.4899,-3.4899,-3.4899,-3.4899,-3.4899,-3.4899,-3.4899,-3.4899,-3.4899,-3.4899,-3.4899,-3.4899,-3.4899,-3.4899,-3.4899,-3.4787,-3.461,-3.3255,-3.259,-3.2541,-3.1044,-3.0426,-3.0526,-3.0526,-3.0526,-3.0526,-3.0526,-3.0526,-3.0526,-3.0526,-3.0526,-3.0526,-3.0526,-3.0526,-3.0626,-3.5504,-3.5504,-3.5504,-3.5504,-3.5504,-3.5504,-3.5504,-3.5504,-3.5504,-3.5504,-3.5504,-3.5504,-3.5504,-3.5504,-3.5504,-3.5504,-3.5504,-3.5504,-3.5504,-3.5504,-3.5619,-3.5973,-3.5958,-3.6133,-3.6492,-3.6492,-3.6492,-3.6492,-3.6492,-3.6492,-3.6492,-3.6133,-3.5958,-3.5943,-3.5292,-3.4771,-3.4427,-3.3724,-3.3231,-3.2922,-3.2558,-3.2604,-3.2841,-3.2841,-3.3161,-3.3697,-3.3984,-3.43,-3.4546,-3.4804,-3.4899,-3.4899,-3.4899,-3.4899,-3.4899,-3.4899,-3.4899,-3.4899,-3.4899,-3.4899,-3.4899,-3.4899,-3.4899,-3.4899,-3.4899,-3.4899,-3.4899,-3.4899,-3.4899,-3.4899,-3.4899,-3.4899,-3.4899,-3.4899,-3.4899,0.0,0.0,-3.4899,-3.4899,-3.4899,-3.4899,-3.4899,-3.4899,-3.4899,-3.4899,-3.4899,-3.4899,-3.4899,-3.4899,-3.4899,-3.4899,-3.4899,-3.4899,-3.4899,-3.4899,-3.4899,-3.4899,-3.4883,-3.3392,-3.268,-3.263,-3.1172,-3.0526,-3.0526,-3.0526,-3.0526,-3.0526,-3.0526,-3.0526,-3.0526,-3.0526,-3.0526,-3.0526,-3.0526,-3.0526,-3.0576,-3.5504,-3.5504,-3.5504,-3.5504,-3.5504,-3.5504,-3.5504,-3.5504,-3.5504,-3.5504,-3.5504,-3.5504,-3.5504,-3.5504,-3.5504,-3.5504,-3.5504,-3.5554,-3.5668,-3.5748,-3.591,-3.6368,-3.6538,-3.689,-3.737,-3.7429,-3.7429,-3.7429,-3.7429,-3.7429,-3.737,-3.6674,-3.6383,-3.6353,-3.5002,-3.4438,-3.4349,-3.323,-3.2977,-3.333,-3.2803,-3.2911,-3.3407,-3.3407,-3.3748,-3.43,-3.43,-3.4546,-3.4899,-3.4899,-3.4899,-3.4899,-3.4899,-3.4899,-3.4899,-3.4899,-3.4899,-3.4899,-3.4899,-3.4899,-3.4899,-3.4899,-3.4899,-3.4899,-3.4899,-3.4899,-3.4899,-3.4899,-3.4899,-3.4899,-3.4899,-3.4899,-3.4899,-3.4899,0.0,0.0,0.0,-3.4899,-3.4899,-3.4899,-3.4899,-3.4899,-3.4899,-3.4899,-3.4899,-3.4899,-3.4899,-3.4899,-3.4899,-3.4899,-3.4899,-3.4899,-3.4899,-3.4899,-3.4899,-3.4899,-3.4899,-3.4883,-3.3392,-3.268,-3.263,-3.1172,-3.0526,-3.0526,-3.0526,-3.0526,-3.0526,-3.0526,-3.0526,-3.0526,-3.0526,-3.0526,-3.0526,-3.0526,-3.0526,-3.0526,-3.5504,-3.5504,-3.5504,-3.5504,-3.5504,-3.5504,-3.5504,-3.5504,-3.5504,-3.5504,-3.5504,-3.5504,-3.5504,-3.5504,-3.5504,-3.5504,-3.5504,-3.5733,-3.6321,-3.6305,-3.6368,-3.643,-3.7011,-3.737,-3.7429,-3.7429,-3.7429,-3.7429,-3.7429,-3.7429,-3.7413,-3.6663,-3.6321,-3.6232,-3.4914,-3.4264,-3.4195,-3.3615,-3.3293,-3.3208,-3.3161,-3.3475,-3.4034,-3.4034,-3.4399,-3.4851,-3.4851,-3.4851,-3.4899,-3.4899,-3.4899,-3.4899,-3.4899,-3.4899,-3.4899,-3.4899,-3.4899,-3.4899,-3.4899,-3.4899,-3.4899,-3.4899,-3.4899,-3.4899,-3.4899,-3.4899,-3.4899,-3.4899,-3.4899,-3.4899,-3.4899,-3.4899,-3.4899,-3.4899,0.0,0.0,-3.4899,-3.4899,-3.4899,-3.4899,-3.4899,-3.4899,-3.4899,-3.4899,-3.4899,-3.4899,-3.4899,-3.4899,-3.4899,-3.4899,-3.4899,-3.4899,-3.4899,-3.4899,-3.4899,-3.4899,-3.4899,-3.4883,-3.3392,-3.268,-3.263,-3.1172,-3.0526,-3.0526,-3.0526,-3.0526,-3.0526,-3.0526,-3.0526,-3.0526,-3.0526,-3.0526,-3.0526,-3.0526,-3.0526,-3.0526,-3.5504,-3.5504,-3.5504,-3.5504,-3.5504,-3.5504,-3.5504,-3.5504,-3.5504,-3.5504,-3.5504,-3.5504,-3.5504,-3.5504,-3.5504,-3.5504,-3.5504,-3.5733,-3.6368,-3.6784,-3.7191,-3.7589,-3.7822,-3.8124,-3.8551,-3.8181,-3.8181,-3.8551,-3.8127,-3.7916,-3.7899,-3.6715,-3.6197,-3.611,-3.4841,-3.4218,-3.4132,-3.3529,-3.3451,-3.3764,-3.3764,-3.4068,-3.4594,-3.4594,-3.4691,-3.4899,-3.4899,-3.4899,-3.4899,-3.4899,-3.4899,-3.4899,-3.4899,-3.4899,-3.4899,-3.4899,-3.4899,-3.4899,-3.4899,-3.4899,-3.4899,-3.4899,-3.4899,-3.4899,-3.4899,-3.4899,-3.4899,-3.4899,-3.4899,-3.4899,-3.4899,-3.4899,-3.4899,-3.4899,0.0,-3.4899,-3.4899,-3.4899,-3.4899,-3.4899,-3.4899,-3.4899,-3.4899,-3.4899,-3.4899,-3.4899,-3.4899,-3.4899,-3.4899,-3.4899,-3.4899,-3.4899,-3.4899,-3.4899,-3.4899,-3.4899,-3.4667,-3.4203,-3.3176,-3.2448,-3.1984,-3.0974,-3.0526,-3.0526,-3.0526,-3.0526,-3.0526,-3.0526,-3.0526,-3.0526,-3.0526,-3.0526,-3.0526,-3.0526,-3.0526,-3.0526,-3.5504,-3.5504,-3.5504,-3.5504,-3.5504,-3.5504,-3.5504,-3.5504,-3.5504,-3.5504,-3.5504,-3.5504,-3.5504,-3.5504,-3.5504,-3.5504,-3.5683,-3.6022,-3.6662,-3.7089,-3.7712,-3.859,-3.8407,-3.8492,-3.8941,-3.8515,-3.84,-3.8593,-3.8112,-3.7864,-3.7847,-3.6643,-3.6075,-3.6078,-3.4775,-3.4313,-3.4491,-3.3874,-3.3885,-3.4399,-3.4448,-3.4691,-3.4947,-3.4994,-3.5041,-3.4994,-3.4994,-3.4947,-3.4947,-3.4899,-3.4947,-3.4947,-3.4899,-3.4899,-3.4899,-3.4899,-3.4899,-3.4899,-3.4899,-3.4899,-3.4899,-3.4899,-3.4899,-3.4899,-3.4899,-3.4899,-3.4899,-3.4899,-3.4899,-3.4899,-3.4899,-3.4899,-3.4899,-3.4899,-3.4899,-3.4899,-3.4899,-3.4899,-3.4899,-3.4899,-3.4899,-3.4899,-3.4899,-3.4899,-3.4899,-3.4899,-3.4899,-3.4899,-3.4899,-3.4899,-3.4899,-3.4899,-3.4899,-3.4899,-3.4899,-3.4899,-3.4518,-3.3773,-3.3027,-3.2315,-3.1543,-3.0858,-3.0526,-3.0526,-3.0526,-3.0526,-3.0526,-3.0526,-3.0526,-3.0526,-3.0526,-3.0526,-3.0526,-3.0526,-3.0526,-3.0526,-3.5504,-3.5504,-3.5504,-3.5504,-3.5504,-3.5504,-3.5504,-3.5504,-3.5504,-3.5504,-3.5504,-3.5504,-3.5504,-3.5504,-3.5504,-3.5504,-3.6022,-3.6662,-3.7354,-3.7335,-3.7894,-3.9222,-3.8629,-3.8248,-3.8212,-3.8212,-3.7847,-3.7102,-3.7102,-3.7102,-3.7085,-3.634,-3.6041,-3.6105,-3.4824,-3.461,-3.5245,-3.4658,-3.4658,-3.5088,-3.5245,-3.5198,-3.5088,-3.5245,-3.5291,-3.5291,-3.5152,-3.5088,-3.5088,-3.4947,-3.4994,-3.5105,-3.4947,-3.4899,-3.4899,-3.4899,-3.4899,-3.4899,-3.4899,-3.4899,-3.4899,-3.4899,-3.4899,-3.4899,-3.4899,-3.4899,-3.4899,-3.4899,-3.4899,-3.4899,-3.4899,-3.4899,-3.4899,-3.4899,-3.4899,-3.4899,-3.4899,-3.4899,-3.4899,-3.4899,-3.4899,-3.4899,-3.4899,-3.4899,-3.4899,-3.4899,-3.4899,-3.4899,-3.4899,-3.4899,-3.4899,-3.4899,-3.4899,-3.4899,-3.4899,-3.4899,-3.4518,-3.3773,-3.3027,-3.2315,-3.1543,-3.0858,-3.0526,-3.0526,-3.0526,-3.0526,-3.0526,-3.0526,-3.0526,-3.0526,-3.0526,-3.0526,-3.0526,-3.0526,-3.0526,-3.0526,-3.5504,-3.5504,-3.5504,-3.5504,-3.5504,-3.5504,-3.5504,-3.5504,-3.5504,-3.5504,-3.5504,-3.5504,-3.5504,-3.5504,-3.5504,-3.5504,-3.5683,-3.5809,-3.6009,-3.6379,-3.6781,-3.709,-3.6516,-3.6599,-3.7382,-3.697,-3.6856,-3.7102,-3.6589,-3.634,-3.6307,-3.5578,-3.523,-3.5262,-3.4886,-3.4835,-3.4994,-3.4835,-3.4835,-3.4947,-3.4994,-3.4994,-3.4947,-3.4994,-3.4994,-3.4994,-3.4994,-3.4947,-3.4947,-3.4899,-3.4947,-3.4947,-3.4899,-3.4899,-3.4899,-3.4899,-3.4899,-3.4899,-3.4899,-3.4899,-3.4899,-3.4899,-3.4899,-3.4899,-3.4899,-3.4899,-3.4899,-3.4899,-3.4899,-3.4899,-3.4899,-3.4899,-3.4899,-3.4899,-3.4899,-3.4899,-3.4899,-3.4899,-3.4899,-3.4899,-3.4899,-3.4899,-3.4899,-3.4899,-3.4899,-3.4899,-3.4899,-3.4899,-3.4899,-3.4899,-3.4899,-3.4899,-3.4899,-3.4899,-3.4899,-3.4899,-3.427,-3.3011,-3.2796,-3.2034,-3.0841,-3.0626,-3.0526,-3.0526,-3.0526,-3.0526,-3.0526,-3.0526,-3.0526,-3.0526,-3.0526,-3.0526,-3.0526,-3.0526,-3.0526,-3.051,-3.5504,-3.5504,-3.5504,-3.5504,-3.5504,-3.5504,-3.5504,-3.5504,-3.5504,-3.5504,-3.5504,-3.5504,-3.5504,-3.5504,-3.5504,-3.5504,-3.5492,-3.5676,-3.6111,-3.5748,-3.5719,-3.6097,-3.5267,-3.5372,-3.6671,-3.6268,-3.612,-3.6241,-3.5777,-3.5562,-3.5562,-3.5098,-3.4947,-3.5041,-3.5041,-3.5088,-3.5165,-3.5165,-3.5182,-3.5152,-3.5182,-3.5182,-3.5152,-3.5182,-3.5165,-3.5165,-3.5152,-3.5152,-3.5152,-3.5105,-3.5041,-3.5041,-3.5105,-3.5088,-3.5041,-3.4994,-3.4994,-3.4994,-3.4994,-3.4994,-3.4994,-3.5041,-3.4994,-3.4899,-3.4899,-3.4899,-3.4899,-3.4899,-3.4899,-3.4899,-3.4899,-3.4899,-3.4899,-3.4899,-3.4899,-3.4899,-3.4899,-3.4899,-3.4899,-3.4899,-3.4899,-3.4899,-3.4899,-3.4899,-3.4899,-3.4899,-3.4899,-3.4899,-3.4899,-3.4899,-3.4899,-3.4899,-3.4899,-3.4899,-3.4899,-3.4899,-3.4154,-3.268,-3.268,-3.1918,-3.0526,-3.0526,-3.0526,-3.0526,-3.0526,-3.0526,-3.0526,-3.0526,-3.0526,-3.0526,-3.0526,-3.0526,-3.0526,-3.0526,-3.051,-3.0609,-3.5504,-3.5504,-3.5504,-3.5504,-3.5504,-3.5504,-3.5504,-3.5504,-3.5504,-3.5504,-3.5504,-3.5504,-3.5504,-3.5504,-3.5504,-3.5504,-3.5383,-3.5755,-3.6814,-3.5259,-3.4707,-3.5696,-3.4758,-3.4709,-3.5893,-3.5909,-3.5578,-3.4899,-3.4899,-3.4899,-3.4899,-3.4947,-3.5041,-3.5291,-3.5291,-3.5412,-3.5577,-3.5577,-3.5549,-3.5492,-3.5549,-3.5549,-3.5492,-3.5549,-3.5577,-3.5594,-3.5475,-3.5492,-3.5446,-3.5337,-3.5291,-3.5291,-3.5446,-3.54,-3.5291,-3.5152,-3.5105,-3.5088,-3.5088,-3.5088,-3.5088,-3.5245,-3.5105,-3.4899,-3.4899,-3.4899,-3.4899,-3.4899,-3.4899,-3.4899,-3.4899,-3.4899,-3.4899,-3.4899,-3.4899,-3.4899,-3.4899,-3.4899,-3.4899,-3.4899,-3.4899,-3.4899,-3.4899,-3.4899,-3.4899,-3.4899,-3.4899,-3.4899,-3.4899,-3.4899,-3.4899,-3.4899,-3.4899,-3.4899,-3.4899,-3.4899,-3.4187,-3.2779,-3.2713,-3.1967,-3.0626,-3.0543,-3.0526,-3.0526,-3.0526,-3.0526,-3.0526,-3.0526,-3.0526,-3.0526,-3.0526,-3.0526,-3.0526,-3.051,-3.0609,-3.0692,-3.5504,-3.5504,-3.5504,-3.5504,-3.5504,-3.5504,-3.5504,-3.5504,-3.5504,-3.5504,-3.5504,-3.5504,-3.5504,-3.5504,-3.5504,-3.5504,-3.4988,-3.4606,-3.4303,-3.4229,-3.4127,-3.3818,-3.4398,-3.487,-3.5131,-3.5131,-3.5048,-3.4899,-3.4994,-3.5058,-3.5041,-3.5135,-3.5245,-3.5291,-3.5291,-3.5337,-3.5383,-3.5383,-3.5337,-3.5337,-3.5337,-3.5337,-3.5337,-3.5337,-3.5383,-3.5383,-3.5337,-3.5337,-3.5337,-3.5291,-3.5291,-3.5291,-3.5337,-3.5337,-3.5291,-3.5245,-3.5198,-3.5105,-3.5245,-3.5088,-3.4994,-3.5105,-3.4994,-3.4947,-3.5041,-3.4994,-3.4899,-3.4899,-3.4899,-3.4899,-3.4899,-3.4899,-3.4899,-3.4899,-3.4899,-3.4899,-3.4899,-3.4899,-3.4899,-3.4899,-3.4899,-3.4899,-3.4899,-3.4899,-3.4899,-3.4899,-3.4899,-3.4899,-3.4899,-3.4899,-3.4899,-3.4899,-3.4899,-3.4899,-3.4899,-3.4899,-3.4435,-3.3541,-3.2961,-3.2232,-3.1328,-3.0733,-3.0526,-3.0526,-3.0526,-3.0526,-3.0526,-3.0526,-3.0526,-3.0526,-3.0526,-3.0526,-3.051,-3.0609,-3.0692,-3.0692,-3.5504,-3.5504,-3.5504,-3.5504,-3.5504,-3.5504,-3.5504,-3.5504,-3.5504,-3.5504,-3.5504,-3.5504,-3.5504,-3.5504,-3.537,-3.504,-3.4397,-3.3954,-3.3851,-3.3763,-3.3805,-3.4002,-3.4578,-3.4899,-3.4899,-3.4899,-3.4899,-3.4899,-3.5041,-3.5088,-3.5088,-3.5245,-3.5337,-3.54,-3.54,-3.5429,-3.5458,-3.5458,-3.5458,-3.5458,-3.5458,-3.5458,-3.5458,-3.5458,-3.5458,-3.5458,-3.5458,-3.5458,-3.5458,-3.5458,-3.5429,-3.54,-3.54,-3.5337,-3.5291,-3.5245,-3.5152,-3.5105,-3.5198,-3.5088,-3.5041,-3.5152,-3.5088,-3.4994,-3.4994,-3.4947,-3.4899,-3.4899,-3.4899,-3.4899,-3.4899,-3.4899,-3.4899,-3.4899,-3.4899,-3.4899,-3.4899,-3.4899,-3.4899,-3.4899,-3.4899,-3.4899,-3.4899,-3.4899,-3.4899,-3.4899,-3.4899,-3.4899,-3.4899,-3.4899,-3.4899,-3.4899,-3.4899,-3.4899,-3.4899,-3.4899,-3.47,-3.4319,-3.3574,-3.2646,-3.1576,-3.1179,-3.0858,-3.0526,-3.0526,-3.0526,-3.0526,-3.0526,-3.0526,-3.0526,-3.0526,-3.0526,-3.0609,-3.0692,-3.0733,-3.0814,-3.5504,-3.5504,-3.5504,-3.5504,-3.5504,-3.5504,-3.5504,-3.5504,-3.5504,-3.5504,-3.5504,-3.5504,-3.5504,-3.54,-3.51,-3.4532,-3.3769,-3.3545,-3.403,-3.354,-3.3665,-3.4691,-3.4851,-3.4899,-3.4899,-3.4899,-3.4899,-3.4899,-3.5041,-3.5135,-3.5152,-3.5291,-3.5429,-3.5537,-3.5537,-3.5566,-3.5622,-3.5622,-3.5622,-3.5622,-3.5622,-3.5622,-3.5622,-3.5622,-3.5622,-3.5622,-3.5622,-3.5622,-3.5622,-3.5622,-3.5549,-3.5537,-3.5492,-3.5429,-3.5337,-3.5198,-3.5135,-3.5152,-3.5152,-3.5105,-3.5088,-3.5245,-3.5198,-3.5041,-3.4947,-3.4899,-3.4899,-3.4899,-3.4899,-3.4899,-3.4899,-3.4899,-3.4899,-3.4899,-3.4899,-3.4899,-3.4899,-3.4899,-3.4899,-3.4899,-3.4899,-3.4899,-3.4899,-3.4899,-3.4899,-3.4899,-3.4899,-3.4899,-3.4899,-3.4899,-3.4899,-3.4899,-3.4899,-3.4899,-3.4899,-3.4899,-3.4899,-3.4883,-3.427,-3.3276,-3.1984,-3.1692,-3.1246,-3.0667,-3.0576,-3.0526,-3.0526,-3.0526,-3.0526,-3.0526,-3.0526,-3.0568,-3.0708,-3.0883,-3.1015,-3.1153,-3.5504,-3.5504,-3.5504,-3.5504,-3.5504,-3.5504,-3.5504,-3.5504,-3.5504,-3.5504,-3.5504,-3.5504,-3.5504,-3.4966,-3.4577,-3.4487,-3.3365,-3.2883,-3.347,-3.3325,-3.3527,-3.4201,-3.4643,-3.4899,-3.4899,-3.4899,-3.4899,-3.4899,-3.5152,-3.5291,-3.5291,-3.5458,-3.5577,-3.5577,-3.5577,-3.5577,-3.5622,-3.5622,-3.5622,-3.5622,-3.5622,-3.5622,-3.5622,-3.5622,-3.5622,-3.5622,-3.5622,-3.5622,-3.5622,-3.5622,-3.5577,-3.5594,-3.5537,-3.552,-3.5532,-3.5337,-3.5291,-3.5291,-3.54,-3.5198,-3.4994,-3.5245,-3.5088,-3.4899,-3.4899,-3.4899,-3.4899,-3.4899,-3.4899,-3.4899,-3.4899,-3.4899,-3.4899,-3.4899,-3.4899,-3.4899,-3.4899,-3.4899,-3.4899,-3.4899,-3.4899,-3.4899,-3.4899,-3.4899,-3.4899,-3.4899,-3.4899,-3.4899,-3.4899,-3.4899,-3.4899,-3.4899,-3.4899,-3.4899,-3.4899,-3.4899,-3.4899,-3.4899,-3.48,-3.4303,-3.3458,-3.2199,-3.1527,-3.1437,-3.0808,-3.0526,-3.0526,-3.0526,-3.0526,-3.0526,-3.0526,-3.051,-3.0634,-3.1508,-3.185,-3.2059,-3.5504,-3.5504,-3.5504,-3.5504,-3.5504,-3.5504,-3.5504,-3.5504,-3.5504,-3.5504,-3.5504,-3.5504,-3.5504,-3.4891,-3.4188,-3.344,-3.2841,-3.2583,-3.2819,-3.3067,-3.3475,-3.4101,-3.4594,-3.4899,-3.4899,-3.4899,-3.4899,-3.4899,-3.5152,-3.5337,-3.54,-3.5549,-3.5622,-3.5622,-3.5622,-3.5622,-3.5622,-3.5622,-3.5622,-3.5622,-3.5622,-3.5622,-3.5622,-3.5622,-3.5622,-3.5622,-3.5622,-3.5622,-3.5622,-3.5622,-3.5549,-3.5412,-3.5383,-3.5337,-3.5165,-3.5088,-3.5105,-3.5105,-3.5152,-3.5058,-3.4947,-3.5041,-3.4994,-3.4899,-3.4899,-3.4899,-3.4899,-3.4899,-3.4899,-3.4899,-3.4899,-3.4899,-3.4899,-3.4899,-3.4899,-3.4899,-3.4899,-3.4899,-3.4899,-3.4899,-3.4899,-3.4899,-3.4899,-3.4899,-3.4899,-3.4899,-3.4899,-3.4899,-3.4899,-3.4899,-3.4899,-3.4899,-3.4899,-3.4899,-3.4899,-3.4899,-3.4899,-3.4899,-3.4899,-3.4502,-3.3773,-3.3127,-3.2398,-3.156,-3.1288,-3.0907,-3.0526,-3.0526,-3.0526,-3.0526,-3.0526,-3.0858,-3.145,-3.2285,-3.2681,-3.2816]}]]